     2.11           OBSERVATION DATA    G (GPS)             RINEX VERSION / TYPE
teqc 2010Oct21 OPUS Account 20111028 20:39:22UTC            PGM / RUN BY / DATE
G 1528                                                      MARKER NAME
3091                                                        MARKER NUMBER
CSMIDDLETON NGS                                             OBSERVER / AGENCY
0220379089 TRIMBLE R7 2.28                                  REC # / TYPE / VERS
60124975 TRM41249.00 NONE                                   ANT # / TYPE
  -695462.5301 -5591819.2481  2978007.5744                  APPROX POSITION XYZ
        2.0010        0.0000        0.0000                  ANTENNA: DELTA H/E/N
     1     1                                                WAVELENGTH FACT L1/2
     5    L1    L2    C1    P1    P2                        # / TYPES OF OBSERV
    15                                                      LEAP SECONDS
  2011     8    27     0     0   30.0000000     GPS         TIME OF FIRST OBS
                                                            END OF HEADER
 11  8 27  0  0 30.0000000  0  8G17G10G09G12G05G04G25G02
 -26924802.58257 -20957543.83254  23286707.3674                   23286708.3754
 -27696355.19158 -21560819.22356  20841577.6644                   20841576.5514
 -10904572.16457  -8473969.39154  23901179.9534                   23901183.5664
 -22426765.42258 -17453166.86356  21270511.6644                   21270510.2194
 -19437813.99658 -15120750.54356  21628041.4304                   21628041.1954
 -28105689.67658 -21872642.05155  21911907.5634                   21911907.4344
  -4976100.64157  -3855551.71554  23838225.5234                   23838227.8364
 -30848978.93058 -24014730.64556  20620702.4384                   20620698.6374
 11  8 27  0  1  0.0000000  0  8G17G10G09G12G05G04G25G02
 -26889005.26647 -20929649.91844  23293519.5314                   23293520.0594
 -27702277.13348 -21565433.70346  20840450.2344                   20840449.3554
 -10843714.75847  -8426548.19943  23912760.5474                   23912764.7344
 -22498900.49648 -17509375.98446  21256785.3204                   21256783.3594
 -19540167.10248 -15200506.10246  21608564.1644                   21608564.0274
 -28046175.19148 -21826267.14845  21923233.2034                   21923232.7304
  -5091080.34447  -3945146.23444  23816344.7344                   23816347.9304
 -30863575.90248 -24026104.87946  20617924.7344                   20617921.1484
 11  8 27  0  1 30.0000000  0  8G17G10G09G12G05G04G25G02
 -26852991.21947 -20901587.11344  23300372.8914                   23300373.5664
 -27707523.15248 -21569521.48846  20839452.6094                   20839451.1134
 -10782704.22346  -8379007.67644  23924370.8754                   23924374.5554
 -22570524.44948 -17565186.84046  21243154.9454                   21243153.5124
 -19642116.02048 -15279946.71146  21589163.9454                   21589163.4614
 -27986515.14147 -21779778.80545  21934586.1094                   21934585.3914
  -5205796.11747  -4034535.06645  23794515.4774                   23794517.6604
 -30877864.05948 -24037238.49647  20615205.8204                   20615202.4344
 11  8 27  0  2  0.0000000  0  8G17G10G09G12G05G04G25G02
 -26816768.88747 -20873362.00044  23307265.7814                   23307266.7854
 -27712102.11348 -21573089.48446  20838580.8754                   20838579.5664
 -10721552.09847  -8331356.78544  23936007.5474                   23936011.6604
 -22641643.87548 -17620604.53546  21229622.1414                   21229620.0434
 -19743666.96948 -15359077.21146  21569839.4384                   21569838.8714
 -27926719.91047 -21733185.13745  21945964.7974                   21945964.6134
  -5320254.03147  -4123722.98845  23772735.0084                   23772736.8954
 -30891853.37548 -24048139.23046  20612543.8284                   20612540.4924
 11  8 27  0  2 30.0000000  0  8G17G10G09G12G05G04G25G02
 -26780339.30547 -20844975.41044  23314198.1804                   23314199.5204
 -27716016.35548 -21576139.51246  20837836.1024                   20837835.1174
 -10660263.82447  -8283599.84044  23947670.7034                   23947674.9614
 -22712258.18448 -17675628.64146  21216184.3674                   21216182.5274
 -19844818.86347 -15437896.76646  21550590.5864                   21550590.0274
 -27866793.24648 -21686489.06245  21957367.9924                   21957367.9224
  -5434453.21947  -4212709.30144  23751003.0634                   23751005.6524
 -30905546.54748 -24058809.21947  20609937.6954                   20609934.3674
 11  8 27  0  3  0.0000000  0  8G17G10G09G12G05G04G25G02
 -26743700.15247 -20816425.50844  23321170.7034                   23321170.9614
 -27719264.67248 -21578670.65646  20837217.9774                   20837216.8714
 -10598840.86746  -8235737.94943  23959358.5164                   23959363.2274
 -22782363.69948 -17730256.28946  21202843.7274                   21202842.0314
 -19945567.42648 -15516402.02746  21531419.0784                   21531418.4224
 -27806735.03148 -21639690.46945  21968797.2344                   21968796.3834
  -5548389.33247  -4301490.60944  23729321.6484                   23729324.0044
 -30918943.39848 -24069248.30947  20607388.6414                   20607385.0784
 11  8 27  0  3 30.0000000  0  8G17G10G09G12G05G04G25G02
 -26706850.58647 -20787711.66045  23328182.7894                   23328184.0784
 -27721846.63348 -21580682.55146  20836726.5084                   20836725.7544
 -10537285.85946  -8187773.15643  23971072.5394                   23971076.7854
 -22851957.52348 -17784485.20746  21189600.3054                   21189598.5944
 -20045909.16047 -15594590.28946  21512324.4614                   21512323.8674
 -27746546.50448 -21592790.33645  21980250.8364                   21980250.3364
  -5662058.98847  -4390064.31644  23707691.7504                   23707693.1374
 -30932044.33648 -24079456.80947  20604895.6884                   20604891.8794
 11  8 27  0  4  0.0000000  0  8G17G10G09G12G05G04G25G02
 -26669788.12547 -20758831.91844  23335235.7344                   23335237.4384
 -27723761.34048 -21582174.52346  20836362.5004                   20836360.8634
 -10475600.73846  -8139707.03144  23982811.3364                   23982815.6374
 -22921036.10548 -17838312.64146  21176455.4064                   21176453.0594
 -20145839.89548 -15672458.28146  21493307.9694                   21493307.7154
 -27686227.91447 -21545788.85545  21991729.0314                   21991728.2234
  -5775458.03147  -4478427.18444  23686112.5164                   23686113.6334
 -30944849.08248 -24089434.51247  20602458.9144                   20602455.1134
 11  8 27  0  4 30.0000000  0  8G17G10G09G12G05G04G25G02
 -26632513.77747 -20729787.07444  23342328.6334                   23342329.6844
 -27725010.37548 -21583147.78146  20836124.8524                   20836123.3164
 -10413789.74246  -8091542.79344  23994573.1334                   23994577.7194
 -22989598.63348 -17891737.96146  21163407.9304                   21163406.3914
 -20245357.75448 -15750004.56246  21474370.4384                   21474370.0784
 -27625782.30147 -21498688.40245  22003231.1724                   22003230.7074
  -5888584.77047  -4566577.84044  23664584.7974                   23664586.5904
 -30957360.04348 -24099183.29746  20600078.4534                   20600074.3284
 11  8 27  0  5  0.0000000  0  8G17G10G09G12G05G04G25G02
 -26595025.41447 -20700575.42644  23349462.6484                   23349463.5824
 -27725592.80548 -21583601.60946  20836013.8524                   20836012.4224
 -10351854.57046  -8043281.80944  24006358.7504                   24006363.9264
 -23057641.62948 -17944758.44546  21150459.7664                   21150458.1024
 -20344459.11347 -15827226.29746  21455512.1024                   21455511.4184
 -27565209.47747 -21451488.83645  22014758.2734                   22014757.5864
  -6001435.18447  -4654513.18444  23643110.3284                   23643111.4884
 -30969576.55548 -24108702.64146  20597753.4064                   20597749.5634
 11  8 27  0  5 30.0000000  0  8G17G10G09G12G05G04G25G02
 -26557323.23446 -20671197.18744  23356637.0084                   23356637.6684
 -27725510.10948 -21583537.15646  20836029.3364                   20836028.0664
 -10289799.70746  -7994927.53544  24018167.8984                   24018172.6994
 -23125163.66048 -17997372.98046  21137610.8914                   21137608.5704
 -20443142.02347 -15904121.96546  21436733.2974                   21436732.8794
 -27504512.19147 -21404192.28145  22026308.3364                   22026307.6454
  -6114007.36347  -4742231.70744  23621688.3444                   23621690.5594
 -30981500.96548 -24117994.37147  20595484.5704                   20595480.6604
 11  8 27  0  6  0.0000000  0  8G17G10G09G12G05G04G25G02
 -26519405.35247 -20641650.85244  23363852.4614                   23363853.9614
 -27724761.61748 -21582953.90646  20836172.0634                   20836170.5124
 -10227626.82846  -7946481.29344  24029999.6484                   24030003.7734
 -23192161.30548 -18049578.91046  21124861.8134                   21124859.7504
 -20541402.28948 -15980688.31646  21418034.5164                   21418034.1174
 -27443690.75047 -21356798.96945  22037882.3134                   22037881.7384
  -6226297.28547  -4829730.25444  23600319.5784                   23600322.1134
 -30993132.96548 -24127058.24647  20593270.8204                   20593267.1174
 11  8 27  0  6 30.0000000  0  8G17G10G09G12G05G04G25G02
 -26481271.53147 -20611936.26644  23371109.7894                   23371109.8244
 -27723348.04348 -21581852.41446  20836440.9454                   20836439.6414
 -10165339.27046  -7897945.66844  24041853.0234                   24041857.5864
 -23258632.56648 -18101374.65646  21112212.5634                   21112210.6334
 -20639237.25848 -16056923.25846  21399417.4144                   21399416.8284
 -27382747.03947 -21309310.40645  22049479.8524                   22049478.8444
  -6338302.27347  -4917006.77344  23579006.2344                   23579007.8794
 -31004473.80548 -24135895.25047  20591112.8524                   20591108.8444
 11  8 27  0  7  0.0000000  0  8G17G10G09G12G05G04G25G02
 -26442921.93447 -20582053.48844  23378407.0864                   23378407.9264
 -27721270.68748 -21580233.68746  20836836.1644                   20836834.9964
 -10102941.16046  -7849323.92244  24053726.3364                   24053731.0004
 -23324576.21148 -18152759.28146  21099663.7894                   21099661.9884
 -20736645.35548 -16132825.56646  21380880.7664                   21380880.7584
 -27321683.42647 -21261728.39845  22061099.7194                   22061098.8674
  -6450020.47747  -5004059.84044  23557746.5784                   23557748.9344
 -31015525.24248 -24144506.73047  20589009.6254                   20589005.8594
 11  8 27  0  7 30.0000000  0  8G17G10G09G12G05G04G25G02
 -26404356.19947 -20552002.35544  23385746.1954                   23385747.1254
 -27718530.15248 -21578098.18746  20837357.5314                   20837356.3714
 -10040435.83246  -7800618.61744  24065620.8284                   24065625.4144
 -23389990.44148 -18203731.37546  21087215.8364                   21087214.0434
 -20833623.89847 -16208393.16446  21362426.5394                   21362426.0044
 -27260501.64147 -21214054.29745  22072742.2584                   22072741.5554
  -6561449.18047  -5090887.34844  23536542.3984                   23536544.3554
 -31026288.95348 -24152894.02046  20586961.3134                   20586957.7814
 11  8 27  0  8  0.0000000  0  8G17G10G09G12G05G04G25G02
 -26365574.09847 -20521782.57844  23393126.6174                   23393126.3834
 -27715127.35248 -21575446.63746  20838005.5314                   20838004.0314
  -9977826.50446  -7751832.31244  24077535.8364                   24077540.0704
 -23454873.43448 -18254289.50446  21074868.9454                   21074867.2424
 -20930170.56648 -16283624.23446  21344054.3754                   21344053.7034
 -27199203.57047 -21166289.60245  22084406.9614                   22084405.9224
  -6672585.96947  -5177487.36344  23515393.5704                   23515395.9024
 -31036765.83248 -24161057.80546  20584967.4694                   20584964.1844
 11  8 27  0  8 30.0000000  0  8G17G10G09G12G05G04G25G02
 -26326575.26247 -20491393.93444  23400547.3594                   23400548.5554
 -27711062.91448 -21572279.52346  20838778.8364                   20838777.7664
  -9915116.43047  -7702967.53144  24089468.1334                   24089473.4574
 -23519223.19548 -18304432.14546  21062623.7424                   21062621.4344
 -21026282.62548 -16358516.65246  21325764.6804                   21325764.2584
 -27137791.02047 -21118435.69145  22096093.3834                   22096092.9304
  -6783428.15247  -5263857.84444  23494301.2504                   23494303.4264
 -31046957.35948 -24168999.23446  20583028.1884                   20583024.3134
 11  8 27  0  9  0.0000000  0  8G17G10G09G12G05G04G25G02
 -26287358.96547 -20460835.84044  23408010.4454                   23408011.0124
 -27706337.79348 -21568597.59046  20839677.9144                   20839676.7234
  -9852309.07446  -7654026.93043  24101420.5394                   24101425.3204
 -23583038.13748 -18354158.03146  21050479.6564                   21050477.9184
 -21121957.52348 -16433068.42646  21307558.1804                   21307557.3674
 -27076265.49647 -21070493.75845  22107801.5004                   22107800.3444
  -6893973.14547  -5349996.69945  23473264.9844                   23473267.6724
 -31056864.70748 -24176719.23446  20581143.1724                   20581139.4774
 11  8 27  0  9 30.0000000  0  8G17G10G09G12G05G04G25G02
 -26247924.69547 -20430107.90244  23415513.7344                   23415515.1134
 -27700952.71948 -21564401.41046  20840702.7114                   20840701.3834
  -9789407.29747  -7605012.77043  24113390.7894                   24113394.9454
 -23646315.94948 -18403465.38746  21038438.8204                   21038436.5664
 -21217192.35948 -16507277.29746  21289435.8754                   21289435.1524
 -27014628.46547 -21022464.91445  22119530.6024                   22119529.5044
  -7004217.77347  -5435901.51645  23452286.3444                   23452288.6414
 -31066488.77748 -24184218.48446  20579311.8204                   20579307.8754
 11  8 27  0 10  0.0000000  0  8G17G10G09G12G05G04G25G02
 -26208271.83647 -20399209.61344  23423059.4454                   23423061.0984
 -27694908.14848 -21559691.33246  20841852.7894                   20841851.6214
  -9726414.39547  -7555927.53943  24125378.1334                   24125382.7034
 -23709054.34448 -18452352.40246  21026500.1644                   21026497.6414
 -21311984.56248 -16581141.25046  21271397.1254                   21271396.3754
 -26952881.41047 -20974350.35545  22131280.5474                   22131279.3954
  -7114159.35947  -5521570.18045  23431365.5554                   23431367.5514
 -31075830.79748 -24191497.95346  20577533.6174                   20577529.5944
 11  8 27  0 10 30.0000000  0  8G17G10G09G12G05G04G25G02
 -26168399.18047 -20368140.05544  23430647.8444                   23430648.4924
 -27688204.58648 -21554467.74646  20843128.3204                   20843127.0004
  -9663332.59846  -7506773.07843  24137382.3674                   24137386.8874
 -23771250.71948 -18500817.07446  21014664.3674                   21014662.0204
 -21406330.58648 -16654657.53946  21253443.8204                   21253443.2114
 -26891025.30947 -20926150.80545  22143051.2734                   22143050.3984
  -7223794.51247  -5607000.06645  23410502.1174                   23410504.4064
 -31084891.08248 -24198557.90646  20575809.5554                   20575805.9384
 11  8 27  0 11  0.0000000  0  8G17G10G09G12G05G04G25G02
 -26128306.33647 -20336898.92244  23438277.6954                   23438278.2934
 -27680842.61348 -21548731.12946  20844529.1724                   20844528.0984
  -9600165.61746  -7457552.20743  24149402.7034                   24149407.3984
 -23832903.31648 -18548858.02346  21002932.2344                   21002929.8954
 -21500228.58648 -16727824.71146  21235575.4454                   21235574.9574
 -26829061.89147 -20877867.64545  22154842.3754                   22154841.7504
  -7333120.62147  -5692189.16045  23389698.2974                   23389699.6994
 -31093670.96948 -24205399.35246  20574139.0084                   20574135.0824
 11  8 27  0 11 30.0000000  0  8G17G10G09G12G05G04G25G02
 -26087991.54746 -20305484.83244  23445948.8834                   23445949.7774
 -27672822.46948 -21542481.63746  20846055.5164                   20846054.3594
  -9536915.43446  -7408266.53943  24161438.8284                   24161444.2584
 -23894009.55148 -18596473.23046  20991303.9614                   20991301.9024
 -21593674.76648 -16800639.81646  21217793.2114                   21217792.6174
 -26766991.77747 -20829501.34845  22166654.2274                   22166653.6954
  -7442134.15647  -5777134.70745  23368953.2504                   23368954.3634
 -31102170.76248 -24212022.55146  20572521.4454                   20572517.4844
 11  8 27  0 12  0.0000000  0  8G17G10G09G12G05G04G25G02
 -26047454.89146 -20273897.85544  23453662.5474                   23453662.9144
 -27664144.41448 -21535719.48446  20847706.6254                   20847705.1804
  -9473584.99246  -7358918.38743  24173490.4144                   24173495.1254
 -23954566.96548 -18643660.78946  20979780.3204                   20979777.9574
 -21686666.05548 -16873100.46546  21200097.2114                   21200096.4924
 -26704815.95747 -20781052.67645  22178486.0164                   22178485.2464
  -7550831.87947  -5861834.15244  23348268.3524                   23348270.2234
 -31110391.18048 -24218428.05946  20570957.1644                   20570953.3284
 11  8 27  0 12 30.0000000  0  8G17G10G09G12G05G04G25G02
 -26006695.62546 -20242137.41044  23461418.9144                   23461420.0554
 -27654809.81648 -21528445.75046  20849482.8754                   20849481.4884
  -9410177.68446  -7309510.32443  24185556.2504                   24185560.9304
 -24014573.93748 -18690419.43446  20968361.5164                   20968359.4494
 -21779200.34848 -16945205.01646  21182488.5164                   21182488.1994
 -26642536.34047 -20732523.11745  22190337.1954                   22190336.5554
  -7659211.34447  -5946285.60944  23327644.5394                   23327646.6134
 -31118333.40648 -24224616.79346  20569445.7894                   20569442.1174
 11  8 27  0 13  0.0000000  0  8G17G10G09G12G05G04G25G02
 -25965713.37546 -20210203.21544  23469217.6644                   23469218.1214
 -27644819.43748 -21520661.00846  20851384.1254                   20851382.8674
  -9346696.54746  -7260044.71143  24197636.3674                   24197641.3054
 -24074028.60548 -18736747.71546  20957047.3984                   20957045.2034
 -21871274.94148 -17016951.35246  21164967.5314                   21164967.0664
 -26580154.53147 -20683913.93445  22202208.4614                   22202207.8674
  -7767269.90247  -6030487.00445  23307081.3524                   23307083.4614
 -31125998.98048 -24230589.94946  20567987.3524                   20567983.3404
 11  8 27  0 13 30.0000000  0  8G17G10G09G12G05G04G25G02
 -25924507.06646 -20178094.44144  23477058.9454                   23477059.7504
 -27634173.70347 -21512365.60546  20853409.8914                   20853409.0784
  -9283144.24646  -7210523.67643  24209730.1724                   24209735.4064
 -24132928.66048 -18782643.83246  20945838.9614                   20945837.0314
 -21962886.85248 -17088337.15646  21147533.8284                   21147533.3914
 -26517671.36347 -20635225.77345  22214098.1804                   22214097.9844
  -7875004.12147  -6114435.65644  23286580.7274                   23286581.9774
 -31133388.30148 -24236347.84446  20566581.0004                   20566577.0594
 11  8 27  0 14  0.0000000  0  8G17G10G09G12G05G04G25G02
 -25883076.78146 -20145811.15644  23484943.3364                   23484944.1564
 -27622874.42647 -21503560.94546  20855560.0704                   20855558.8054
  -9219524.41446  -7160950.00443  24221836.8134                   24221842.7234
 -24191272.99648 -18828106.93046  20934736.7344                   20934734.3014
 -22054034.44548 -17159361.16046  21130189.1954                   21130188.4884
 -26455089.39147 -20586460.62945  22226006.9694                   22226006.5314
  -7982412.12547  -6198130.12545  23266141.6254                   23266143.0984
 -31140503.26648 -24241891.96946  20565227.0704                   20565223.2734
 11  8 27  0 14 30.0000000  0  8G17G10G09G12G05G04G25G02
 -25841422.02346 -20113352.96144  23492868.9534                   23492870.7234
 -27610922.09448 -21494247.41046  20857834.9614                   20857833.4494
  -9155839.75846  -7111325.85943  24233956.0944                   24233961.8094
 -24249059.49248 -18873135.34846  20923740.2344                   20923737.8484
 -22144714.02748 -17230020.48046  21112933.4844                   21112932.5204
 -26392409.27347 -20537618.99245  22237934.7974                   22237934.3954
  -8089490.71147  -6281567.91044  23245764.8754                   23245766.4964
 -31147344.86348 -24247223.07046  20563925.1884                   20563920.9774
 11  8 27  0 15  0.0000000  0  8G17G10G09G12G05G04G25G02
 -25799541.76646 -20080719.07444  23500839.0554                   23500840.6254
 -27598317.44548 -21484425.57046  20860233.2274                   20860231.9494
  -9092093.35246  -7061653.55143  24246087.4844                   24246092.2664
 -24306286.02048 -18917727.43446  20912850.1954                   20912848.1294
 -22234924.10248 -17300313.94946  21095766.7584                   21095766.0124
 -26329632.44547 -20488702.01245  22249881.0084                   22249880.5204
  -8196237.01647  -6364746.75844  23225451.5004                   23225453.3134
 -31153913.39848 -24252341.40246  20562675.2034                   20562671.1844
 11  8 27  0 15 30.0000000  0  8G17G10G09G12G05G04G25G02
 -25757436.23846 -20047909.64144  23508852.1094                   23508853.1994
 -27585062.60247 -21474097.10246  20862755.4614                   20862754.0704
  -9028288.64846  -7011935.84044  24258229.0084                   24258234.3134
 -24362950.96148 -18961881.91446  20902067.6644                   20902065.1134
 -22324662.28548 -17370239.71146  21078690.3054                   21078689.3204
 -26266760.83247 -20439711.17645  22261844.8674                   22261844.3594
  -8302648.62147  -6447664.79344  23205201.9144                   23205203.6764
 -31160211.05148 -24257248.65646  20561476.7734                   20561472.9104
 11  8 27  0 16  0.0000000  0  8G17G10G09G12G05G04G25G02
 -25715103.45746 -20014923.10944  23516907.2814                   23516908.4384
 -27571156.79348 -21463261.36746  20865401.4454                   20865400.5234
  -8964427.18046  -6962173.87144  24270381.8054                   24270387.4414
 -24419051.34448 -19005596.48846  20891391.9534                   20891389.1764
 -22413924.21148 -17439794.37146  21061704.3054                   21061703.2854
 -26203794.18747 -20390646.28945  22273827.0944                   22273826.6954
  -8408721.17647  -6530318.66045  23185017.7504                   23185019.1684
 -31166237.09448 -24261944.27046  20560330.0394                   20560326.2074
 11  8 27  0 16 30.0000000  0  8G17G10G09G12G05G04G25G02
 -25672542.82846 -19981759.05144  23525006.9534                   23525007.7424
 -27556600.75047 -21451918.95746  20868171.4774                   20868170.2154
  -8900512.22746  -6912370.24644  24282543.7274                   24282549.3484
 -24474585.26648 -19048869.66446  20880824.1804                   20880821.7114
 -22502707.22748 -17508975.84846  21044809.4454                   21044808.3444
 -26140733.92247 -20341508.44945  22285827.2584                   22285826.6294
  -8514451.84447  -6612706.09845  23164897.7894                   23164898.9654
 -31171992.15648 -24266428.72746  20559234.9384                   20559231.0434
 11  8 27  0 17  0.0000000  0  8G17G10G09G12G05G04G25G02
 -24054335.26647 -18720818.14144  23832941.3444                   23832942.2114
 -25965976.09048 -20212471.14546  21170857.4454                   21170855.9614
  -7261128.72346  -5634928.82043  24594508.7344                   24594514.3594
 -22954129.23848 -17864098.71946  21170157.2194                   21170155.1094
 -21015586.18748 -16350180.14546  21327798.8524                   21327797.9224
 -24502163.59847 -19064700.43745  22597636.5704                   22597636.6844
  -7044414.48447  -5467222.34845  23444636.4304                   23444637.9694
 -29602057.93748 -23043103.35547  20857983.4774                   20857979.4964
 11  8 27  0 17 30.0000000  0  8G17G10G09G12G05G04G25G02
 -24011316.84046 -18687297.32844  23841127.2194                   23841127.9734
 -25950122.22348 -20200117.46146  21173874.1954                   21173872.9344
  -7197114.69946  -5585048.00443  24606690.3444                   24606695.9654
 -23008524.14148 -17906484.35246  21159806.0634                   21159804.0394
 -21103403.71948 -16418609.29746  21311088.3364                   21311086.9304
 -24438919.77047 -19015419.57845  22609671.2664                   22609671.3204
  -7149452.64547  -5549070.15645  23424647.5554                   23424650.2504
 -29607274.78148 -23047168.41846  20856990.6414                   20856986.5044
 11  8 27  0 18  0.0000000  0  8G17G10G09G12G05G04G25G02
 -23968068.28146 -18653597.18744  23849357.0474                   23849357.1334
 -25933620.83648 -20187259.21146  21177014.3284                   21177012.8244
  -7133055.20746  -5535131.77044  24618880.6884                   24618887.1564
 -23062346.85948 -17948424.12546  21149564.2504                   21149562.1214
 -21190734.42648 -16486659.10946  21294469.2894                   21294468.3874
 -24375585.57047 -18966068.29745  22621723.7114                   22621723.2814
  -7254139.89547  -5630644.52045  23404726.4224                   23404728.7344
 -29612223.53548 -23051024.57446  20856048.8754                   20856045.0394
 11  8 27  0 18 30.0000000  0  8G17G10G09G12G05G04G25G02
 -23924589.23046 -18619717.47343  23857630.9224                   23857632.3834
 -25916473.11348 -20173897.33646  21180277.6334                   21180276.3404
  -7068953.36746  -5485182.50844  24631078.3834                   24631084.3914
 -23115595.41048 -17989916.48446  21139431.0084                   21139428.8364
 -21277575.88748 -16554327.69546  21277943.8284                   21277943.2154
 -24312162.59847 -18916647.84445  22633793.0474                   22633792.5784
  -7358473.58647  -5711943.38345  23384872.4774                   23384874.3324
 -29616905.57848 -23054672.91046  20855157.9774                   20855153.8284
 11  8 27  0 19  0.0000000  0  8G17G10G09G12G05G04G25G02
 -23880880.45346 -18585658.77043  23865947.7504                   23865949.7774
 -25898681.60548 -20160033.80146  21183662.9924                   21183661.8484
  -7004813.49246  -5435203.64143  24643284.6484                   24643290.5744
 -23168269.24248 -18030961.01646  21129407.8204                   21129405.4694
 -21363926.89148 -16621614.10546  21261511.4534                   21261510.9804
 -24248653.29347 -18867160.12545  22645878.4144                   22645878.1094
  -7462452.11747  -5792965.53145  23365085.7894                   23365086.9264
 -29621322.95348 -23058115.00846  20854317.6254                   20854313.3834
 11  8 27  0 19 30.0000000  0  8G17G10G09G12G05G04G25G02
 -23836940.46146 -18551419.91444  23874309.9144                   23874311.7274
 -25880246.44548 -20145668.73446  21187171.0234                   21187169.7154
  -6940637.41046  -5385196.52744  24655496.8834                   24655503.2114
 -23220365.78548 -18071555.71146  21119494.1334                   21119491.8134
 -21449783.99248 -16688515.66046  21245173.5394                   21245172.5274
 -24185058.15647 -18817605.52745  22657979.8834                   22657979.6954
  -7566071.70747  -5873707.98445  23345367.5394                   23345369.3914
 -29625475.58248 -23061350.82046  20853527.1334                   20853523.1804
 11  8 27  0 20  0.0000000  0  8G17G10G09G12G05G04G25G02
 -23792768.96546 -18517000.65644  23882715.6174                   23882717.3714
 -25861168.81648 -20130803.04346  21190801.4774                   21190799.7854
  -6876428.17246  -5335163.60244  24667716.1724                   24667721.6214
 -23271883.35948 -18111699.25446  21109690.1884                   21109688.4184
 -21535145.02348 -16755030.66446  21228929.5944                   21228928.6414
 -24121378.39847 -18767984.98445  22670097.6804                   22670097.5434
  -7669329.70347  -5954168.67645  23325718.0554                   23325719.6054
 -29629364.72748 -23064381.30546  20852787.2034                   20852783.0744
 11  8 27  0 20 30.0000000  0  8G17G10G09G12G05G04G25G02
 -23748365.30546 -18482400.47345  23891165.6644                   23891167.3284
 -25841449.88748 -20115437.63746  21194553.6724                   21194552.3014
  -6812188.29346  -5285106.81643  24679939.8834                   24679946.8484
 -23322820.16448 -18151390.24646  21099997.7114                   21099995.2234
 -21620007.05548 -16821156.84446  21212781.0634                   21212780.0944
 -24057614.97347 -18718299.26645  22682231.3984                   22682231.3984
  -7772222.99247  -6034345.18445  23306138.2274                   23306139.5044
 -29632991.26648 -23067207.15646  20852097.2194                   20852093.0554
 11  8 27  0 21  0.0000000  0  8G17G10G09G12G05G04G25G02
 -23703728.25047 -18447618.40245  23899659.7504                   23899661.2504
 -25821090.32048 -20099573.03146  21198428.2974                   21198426.6954
  -6747920.54346  -5235028.27343  24692170.2194                   24692176.3954
 -23373173.82448 -18190626.84446  21090415.5634                   21090413.2624
 -21704367.29748 -16886892.02046  21196727.5164                   21196726.5394
 -23993768.68447 -18668548.98445  22694381.5084                   22694380.7814
  -7874748.34447  -6114234.98045  23286627.7814                   23286629.5984
 -29636355.86348 -23069828.90246  20851456.6804                   20851452.6644
 11  8 27  0 21 30.0000000  0  8G17G10G09G12G05G04G25G02
 -23658857.41447 -18412654.16445  23908198.6564                   23908199.9574
 -25800091.57448 -20083210.37946  21202423.7344                   21202422.6764
  -6683627.90646  -5184930.37143  24704404.5784                   24704411.1684
 -23422942.91048 -18229407.92646  21080944.5784                   21080942.3754
 -21788223.29748 -16952234.27346  21180770.2814                   21180769.6764
 -23929841.04347 -18618735.28145  22706546.5634                   22706546.3014
  -7976902.95747  -6193835.91045  23267188.9304                   23267190.7774
 -29639459.34448 -23072247.17246  20850865.9534                   20850862.0864
 11  8 27  0 22  0.0000000  0  8G17G10G09G12G05G04G25G02
 -23613753.77347 -18377508.50444  23916781.3054                   23916782.3984
 -25778456.01248 -20066351.50846  21206541.0634                   21206539.5984
  -6619314.01246  -5134815.86343  24716643.9304                   24716649.6604
 -23472126.84048 -18267733.04746  21071585.5164                   21071582.8364
 -21871574.03948 -17017182.82446  21164909.4454                   21164908.5044
 -23865834.16847 -18568859.84845  22718726.4304                   22718726.2974
  -8078685.11747  -6273146.65245  23247820.7814                   23247821.6764
 -29642303.91448 -23074463.69146  20850324.9384                   20850320.5904
 11  8 27  0 22 30.0000000  0  8G17G10G09G12G05G04G25G02
 -23568415.98846 -18342180.41844  23925408.8364                   23925409.5864
 -25756184.23848 -20048996.87946  21210779.3984                   21210777.5164
  -6554981.25446  -5084686.77043  24728886.1724                   24728892.6564
 -23520723.28148 -18305600.37146  21062337.4144                   21062335.3954
 -21954416.14148 -17081735.03146  21149144.8754                   21149143.8914
 -23801748.53947 -18518923.06245  22730921.4924                   22730921.7894
  -8180091.39848  -6352164.51645  23228523.7504                   23228524.7114
 -29644890.06248 -23076478.84046  20849832.6334                   20849828.6524
 11  8 27  0 23  0.0000000  0  8G17G10G09G12G05G04G25G02
 -23522844.07446 -18306669.88743  23934080.6094                   23934082.1174
 -25733278.19148 -20031148.01246  21215138.1884                   21215137.1604
  -6490633.01246  -5034545.52343  24741131.3594                   24741137.3754
 -23568731.16048 -18343009.08646  21053202.1484                   21053200.0824
 -22036747.91448 -17145889.57846  21133477.6804                   21133476.6604
 -23737585.97347 -18468926.32045  22743131.4534                   22743131.0864
  -8281119.54747  -6430887.74245  23209298.3754                   23209299.7154
 -29647218.98448 -23078293.55946  20849389.5084                   20849385.4344
 11  8 27  0 23 30.0000000  0  8G17G10G09G12G05G04G25G02
 -23477036.95746 -18270976.05943  23942797.3364                   23942797.8984
 -25709738.37548 -20012805.29346  21219617.9614                   21219616.0824
  -6426271.43046  -4984393.91043  24753379.2664                   24753385.7074
 -23616148.50448 -18379957.64546  21044179.1484                   21044176.7854
 -22118566.47748 -17209644.22746  21117908.0474                   21117907.3794
 -23673347.10547 -18418870.12145  22755356.1884                   22755355.6254
  -8381766.06647  -6509313.57845  23190146.2114                   23190147.4844
 -29649291.14548 -23079908.19946  20848995.4224                   20848990.9184
 11  8 27  0 24  0.0000000  0  8G17G10G09G12G05G04G25G02
 -23430994.76246 -18235099.02043  23951559.6254                   23951559.4734
 -25685566.56248 -19993970.11346  21224217.2114                   21224216.2034
  -6361899.93446  -4934234.53543  24765628.2974                   24765635.6604
 -23662974.28148 -18416445.24246  21035268.0474                   21035265.9224
 -22199869.59448 -17272997.21946  21102436.5004                   21102435.2624
 -23609033.37947 -18368755.57845  22767594.1414                   22767594.6604
  -8482028.51247  -6587440.12145  23171066.7734                   23171068.1524
 -29651108.17248 -23081324.03146  20848649.3134                   20848645.4654
 11  8 27  0 24 30.0000000  0  8G17G10G09G12G05G04G25G02
 -23384714.50446 -18199036.53144  23960365.9774                   23960367.3554
 -25660761.96548 -19974641.85546  21228937.5864                   21228936.2424
  -6297518.85547  -4884067.77343  24777879.6644                   24777886.7814
 -23709203.81648 -18452468.24246  21026471.1334                   21026469.0474
 -22280652.94948 -17335945.21546  21087063.7584                   21087062.6994
 -23544643.52747 -18318581.72345  22779847.4224                   22779847.0554
  -8581901.78148  -6665263.41845  23152061.6254                   23152063.0234
 -29652668.46148 -23082539.80546  20848352.2034                   20848348.3674
 11  8 27  0 25  0.0000000  0  8G17G10G09G12G05G04G25G02
 -23338197.43447 -18162789.50044  23969218.5554                   23969219.8524
 -25635327.82448 -19954823.03546  21233777.6564                   21233776.1094
  -6233132.76646  -4833897.09043  24790132.5084                   24790139.3484
 -23754838.00848 -18488027.32446  21017787.1724                   21017784.8554
 -22360915.84048 -17398487.64846  21071790.1804                   21071789.3834
 -23480180.60547 -18268350.92645  22792114.3984                   22792114.3954
  -8681384.74648  -6742782.59445  23133130.5234                   23133131.8524
 -29653974.70348 -23083557.62546  20848103.6254                   20848099.5864
 11  8 27  0 25 30.0000000  0  8G17G10G09G12G05G04G25G02
 -23291443.21547 -18126357.68744  23978115.4844                   23978117.1484
 -25609265.35248 -19934514.60246  21238736.9384                   21238735.9144
  -6168744.79346  -4783724.94143  24802385.6804                   24802391.5474
 -23799875.20348 -18523121.21546  21009216.8364                   21009214.2424
 -22440655.92648 -17460622.69946  21056616.2584                   21056615.0354
 -23415645.71947 -18218064.05544  22804394.4144                   22804394.9264
  -8780474.81247  -6819995.59845  23114274.3444                   23114275.3054
 -29655028.14848 -23084378.45746  20847903.3444                   20847899.2504
 11  8 27  0 26  0.0000000  0  8G17G10G09G12G05G04G25G02
 -23244451.84847 -18089741.09444  23987057.6884                   23987059.8984
 -25582576.25848 -19913717.89846  21243815.8364                   21243814.1764
  -6104357.79346  -4733553.55943  24814638.7194                   24814645.4844
 -23844314.02748 -18557748.84446  21000760.3674                   21000758.1764
 -22519871.32048 -17522348.89846  21041541.9384                   21041540.9184
 -23351040.06247 -18167722.03944  22816688.3754                   22816688.7734
  -8879169.27347  -6896900.32445  23095493.1954                   23095494.5354
 -29655829.99248 -23085003.24646  20847750.6804                   20847746.3134
 11  8 27  0 26 30.0000000  0  8G17G10G09G12G05G04G25G02
 -23197222.60947 -18052939.15245  23996044.9304                   23996046.5634
 -25555261.86348 -19892433.93746  21249013.8524                   21249012.6994
  -6039974.51247  -4683385.06243  24826890.7974                   24826896.9734
 -23888153.30148 -18591909.29346  20992417.9614                   20992415.7664
 -22598559.44148 -17583664.23846  21026568.1094                   21026566.7304
 -23286364.78147 -18117325.75445  22828996.4064                   22828996.3404
  -8977465.34447  -6973494.61745  23076787.8364                   23076789.2154
 -29656381.09448 -23085432.65646  20847645.5864                   20847641.4024
 11  8 27  0 27  0.0000000  0  8G17G10G09G12G05G04G25G02
 -23149754.89146 -18015951.36344  24005077.5314                   24005079.2114
 -25527323.77748 -19870663.98446  21254329.7114                   21254328.7894
  -5975597.61346  -4633221.56643  24839141.5634                   24839148.0204
 -23931391.22748 -18625601.15646  20984189.9144                   20984187.9064
 -22676718.14848 -17644567.04746  21011695.1564                   21011693.7734
 -23221620.94547 -18066876.04745  22841316.4304                   22841316.9184
  -9075360.08647  -7049776.16445  23058158.9064                   23058160.2664
 -29656682.21148 -23085667.26246  20847588.2894                   20847584.4494
 11  8 27  0 27 30.0000000  0  8G17G10G09G12G05G04G25G02
 -23102049.14146 -17978778.10244  24014156.9534                   24014157.5514
 -25498764.43448 -19848409.93446  21259764.5314                   21259763.2274
  -5911230.63746  -4583065.80543  24851389.7734                   24851396.9924
 -23974027.13748 -18658823.90646  20976076.9614                   20976074.7544
 -22754346.09448 -17705056.28546  20996922.5864                   20996921.3134
 -23156810.39847 -18016374.36344  22853649.6564                   22853649.9884
  -9172851.52048  -7125743.44145  23039607.2194                   23039608.9574
 -29656735.06248 -23085708.43046  20847578.5634                   20847574.2234
 11  8 27  0 28  0.0000000  0  8G17G10G09G12G05G04G25G02
 -23054105.28546 -17941419.31244  24023278.7114                   24023280.6724
 -25469585.51248 -19825673.10246  21265317.0704                   21265315.9614
  -5846876.51246  -4532920.05543  24863636.2034                   24863643.4844
 -24016059.63748 -18691576.47346  20968077.9774                   20968075.6804
 -22831441.03548 -17765130.18746  20982252.0704                   20982250.7734
 -23091934.23447 -17965821.55145  22865995.1884                   22865995.5944
  -9269937.12547  -7201394.48445  23021132.2344                   23021133.7194
 -29656541.03948 -23085557.23046  20847615.4304                   20847611.2974
 11  8 27  0 28 30.0000000  0  8G17G10G09G12G05G04G25G02
 -23005923.54746 -17903875.17644  24032448.1644                   24032449.8164
 -25439789.25447 -19802455.21946  21270987.4844                   21270986.0824
  -5782538.57446  -4482786.93043  24875879.6564                   24875886.4454
 -24057488.37148 -18723858.57046  20960194.3524                   20960192.0394
 -22908001.57848 -17824787.68046  20967682.8134                   20967681.4774
 -23026994.43447 -17915219.14844  22878352.9384                   22878353.1174
  -9366614.75047  -7276727.59445  23002734.9534                   23002736.6024
 -29656101.59448 -23085214.80146  20847698.8674                   20847694.4064
 11  8 27  0 29  0.0000000  0  8G17G10G09G12G05G04G25G02
 -22957503.78946 -17866145.56644  24041661.1804                   24041663.3244
 -25409377.42248 -19778757.68046  21276774.3524                   21276773.2504
  -5718220.05546  -4432668.91443  24888118.9384                   24888126.5904
 -24098312.34448 -18755669.41846  20952426.1804                   20952423.9144
 -22984025.98848 -17884027.40646  20953216.0314                   20953214.4614
 -22961992.12147 -17864568.03144  22890722.2814                   22890722.8524
  -9462882.01647  -7351740.96145  22984415.7974                   22984417.5394
 -29655418.21148 -23084682.28146  20847828.7344                   20847824.7304
 11  8 27  0 29 30.0000000  0  8G17G10G09G12G05G04G25G02
 -22908845.67646 -17828230.17644  24050921.4224                   24050922.3874
 -25378351.54348 -19754581.65646  21282678.3444                   21282677.0944
  -5653923.54346  -4382568.01243  24900354.8444                   24900361.9224
 -24138530.00848 -18787007.82046  20944772.6884                   20944770.4144
 -23059512.07048 -17942847.65246  20938851.1094                   20938849.8164
 -22896928.54747 -17813869.16044  22903103.8834                   22903103.6484
  -9558736.19947  -7426432.43745  22966175.4534                   22966176.3984
 -29654491.60548 -23083960.23846  20848005.3984                   20848001.1134
 11  8 27  0 30  0.0000000  0  8G17G10G09G12G05G04G25G02
 -22859948.48447 -17790128.47344  24060226.4454                   24060227.3164
 -25346713.25448 -19729928.42646  21288698.8754                   21288697.1724
  -5589651.44546  -4332486.17243  24912585.0004                   24912592.8094
 -24178139.88348 -18817872.61746  20937235.0944                   20937232.8324
 -23134457.19948 -18001246.38746  20924589.5084                   20924588.0664
 -22831804.48447 -17763123.16045  22915496.1954                   22915496.7304
  -9654174.20347  -7500799.63345  22948014.4774                   22948014.7974
 -29653322.66448 -23083049.37146  20848227.8914                   20848223.3674
 11  8 27  0 30 30.0000000  0  8G17G10G09G12G05G04G25G02
 -22810812.56247 -17751840.73444  24069576.7034                   24069578.0744
 -25314464.91047 -19704799.84046  21294835.2974                   21294834.0394
  -5525407.37546  -4282426.16843  24924810.7894                   24924818.6024
 -24217141.59048 -18848263.51646  20929813.3364                   20929811.0904
 -23208859.88348 -18059222.43746  20910431.4534                   20910429.9064
 -22766621.46947 -17712331.23045  22927900.2424                   22927900.2274
  -9749194.05948  -7574841.01245  22929932.2344                   22929933.6884
 -29651912.95348 -23081950.89146  20848495.8984                   20848491.8404
 11  8 27  0 31  0.0000000  0  7G17G10G12G05G04G25G02
 -22761436.72346 -17713366.07044  24078972.0394                   24078974.2234
 -25281607.34048 -19679196.52346  21301088.2034                   21301086.7424
 -24255532.86348 -18878178.75846  20922507.8204                   20922505.6684
 -23282717.68448 -18116773.89846  20896376.2274                   20896374.8244
 -22701380.07847 -17661493.80944  22940315.6484                   22940315.7814
  -9843792.30547  -7648553.84845  22911931.0394                   22911931.9104
 -29650262.70348 -23080664.96946  20848809.9844                   20848805.6724
 11  8 27  0 31 30.0000000  0  7G17G10G12G05G04G25G02
 -22711821.16846 -17674704.64844  24088414.1024                   24088415.6334
 -25248142.31247 -19653119.85946  21307456.1954                   21307454.7274
 -24293312.50048 -18907617.40246  20915318.1724                   20915316.1994
 -23356028.71948 -18173899.31247  20882425.7814                   20882424.8164
 -22636081.07047 -17610611.49244  22952741.3594                   22952741.2344
  -9937966.26647  -7721936.07445  22894010.0704                   22894010.9614
 -29648372.91448 -23079192.39546  20849169.4454                   20849165.7504
 11  8 27  0 32  0.0000000  0  7G17G10G12G05G04G25G02
 -22661961.97346 -17635853.37144  24097901.6564                   24097903.4804
 -25214068.39847 -19626568.75046  21313940.2894                   21313938.9414
 -24330476.39548 -18936576.25446  20908246.7114                   20908244.3524
 -23428787.11748 -18230594.10547  20868580.5234                   20868579.3874
 -22570722.57447 -17559682.83244  22965178.8674                   22965179.0704
 -10031710.24648  -7794983.25045  22876171.0784                   22876171.9224
 -29646241.60548 -23077531.62946  20849575.3984                   20849571.2934
 11  8 27  0 32 30.0000000  0  7G17G10G12G05G04G25G02
 -22611854.99246 -17596809.01644  24107436.4614                   24107438.8874
 -25179383.48048 -19599541.53546  21320540.6804                   21320539.4224
 -24367019.25848 -18965051.18746  20901292.6724                   20901290.5514
 -23500987.68748 -18286854.22346  20854841.0314                   20854839.4384
 -22505301.46947 -17508705.38344  22977627.8054                   22977627.7344
 -10125017.50048  -7867690.13745  22858415.3834                   22858416.9184
 -29643865.74648 -23075680.31246  20850027.2974                   20850022.7854
 11  8 27  0 33  0.0000000  0  7G17G10G12G05G04G25G02
 -22561499.91846 -17557571.36344  24117019.2814                   24117021.1764
 -25144089.34848 -19572039.60546  21327256.9144                   21327255.7274
 -24402940.01648 -18993041.35946  20894457.0864                   20894454.6254
 -23572627.98448 -18342677.76646  20841208.2034                   20841206.6884
 -22439818.57847 -17457679.77044  22990088.8134                   22990088.6724
 -10217885.10947  -7940054.44945  22840743.4144                   22840743.8134
 -29641245.71148 -23073638.71546  20850525.5864                   20850521.8674
 11  8 27  0 33 30.0000000  0  7G17G10G12G05G04G25G02
 -22510898.32446 -17518141.56244  24126648.3204                   24126650.8094
 -25108189.71148 -19544065.85946  21334088.5004                   21334087.2234
 -24438239.12948 -19020547.14146  20887739.8914                   20887737.3984
 -23643707.98048 -18398064.71147  20827682.2894                   20827680.9844
 -22374277.05947 -17406608.50044  23002560.8984                   23002560.7814
 -10310312.60547  -8012075.84445  22823154.6334                   22823155.0744
 -29638384.80948 -23071409.43046  20851069.8284                   20851065.9064
 11  8 27  0 34  0.0000000  0  7G17G10G12G05G04G25G02
 -22460050.34046 -17478519.78944  24136324.2734                   24136326.0904
 -25071686.73848 -19515621.97746  21341034.7734                   21341033.6684
 -24472916.74648 -19047568.64146  20881141.0474                   20881138.4574
 -23714226.23048 -18453013.93447  20814263.1564                   20814261.5204
 -22308678.32847 -17355492.64844  23015044.1484                   23015043.9884
 -10402297.81647  -8083752.58645  22805650.0864                   22805651.2344
 -29635284.58248 -23068993.66446  20851660.3204                   20851656.3634
 11  8 27  0 34 30.0000000  0  7G17G10G12G05G04G25G02
 -22408956.20746 -17438706.19944  24146047.3834                   24146049.2234
 -25034582.68448 -19486709.71946  21348095.0944                   21348093.6804
 -24506971.49648 -19074104.79746  20874660.6334                   20874658.3874
 -23784181.18448 -18507524.22747  20800950.8834                   20800949.6024
 -22243023.63347 -17304333.18444  23027537.8204                   23027538.0004
 -10493838.31247  -8155082.78545  22788230.8054                   22788232.3204
 -29631946.18448 -23066392.30546  20852295.5004                   20852291.4384
 11  8 27  0 35  0.0000000  0  7G17G10G12G05G04G25G02
 -22357617.34447 -17398701.88344  24155817.4454                   24155818.2384
 -24996881.28548 -19457332.01246  21355269.7734                   21355268.4844
 -24540404.32848 -19100156.34446  20868298.0784                   20868296.1484
 -23853572.60248 -18561595.39847  20787746.1804                   20787744.6374
 -22177315.42647 -17253132.02344  23040041.5004                   23040041.6254
 -10584933.13347  -8226065.70345  22770895.5784                   22770897.5274
 -29628372.21548 -23063607.38746  20852975.4144                   20852971.7814
 11  8 27  0 35 30.0000000  0  7G17G10G12G05G04G25G02
 -22306033.98046 -17358507.08244  24165633.2274                   24165634.2464
 -24958584.87948 -19427490.66046  21362557.2584                   21362555.8324
 -24573214.40648 -19125722.63346  20862054.9454                   20862052.6564
 -23922399.24648 -18615226.48447  20774648.7274                   20774647.3714
 -22111555.55547 -17201890.60944  23052555.5394                   23052555.2154
 -10675580.17647  -8296699.71145  22753646.8444                   22753647.9734
 -29624564.25048 -23060640.13746  20853700.5084                   20853696.3014
 11  8 27  0 36  0.0000000  0  7G17G10G12G05G04G25G02
 -22254206.20346 -17318121.79343  24175495.4144                   24175496.5084
 -24919695.68448 -19397187.39546  21369957.3364                   21369956.1804
 -24605401.29348 -19150803.31646  20855929.7504                   20855927.4414
 -23990659.40648 -18668416.16047  20761659.4614                   20761658.2624
 -22045745.02047 -17150609.69544  23065079.1254                   23065078.6254
 -10765777.23047  -8366983.09045  22736482.3754                   22736483.3954
 -29620523.66448 -23057491.62146  20854469.4534                   20854465.1294
 11  8 27  0 36 30.0000000  0  7G17G10G12G05G04G25G02
 -22202134.39846 -17277546.37543  24185404.5004                   24185405.5044
 -24880216.25848 -19366424.22346  21377470.4224                   21377468.9924
 -24636964.84848 -19175398.29346  20849923.4064                   20849921.2344
 -24058352.05948 -18721163.61347  20748777.7894                   20748776.0944
 -21979885.62546 -17099290.70744  23077611.1024                   23077611.8054
 -10855522.35247  -8436914.32445  22719404.6254                   22719405.7234
 -29616252.28948 -23054163.27046  20855281.7034                   20855277.7854
 11  8 27  0 37  0.0000000  0  7G17G10G12G05G04G25G02
 -22149818.87946 -17236781.08243  24195360.2424                   24195361.4534
 -24840149.13747 -19335203.09046  21385094.9144                   21385093.3524
 -24667904.55148 -19199507.14546  20844035.9064                   20844033.7774
 -24125475.82848 -18773467.79747  20736004.4454                   20736002.9694
 -21913978.62947 -17047934.63744  23090153.3364                   23090153.6054
 -10944813.46947  -8506491.77745  22702412.7734                   22702414.3984
 -29611751.04348 -23050655.79346  20856138.2814                   20856134.6564
 11  8 27  0 37 30.0000000  0  7G17G10G12G05G04G25G02
 -22097258.47746 -17195825.00443  24205361.1334                   24205363.1134
 -24799495.65648 -19303525.06246  21392831.1414                   21392829.7464
 -24698218.63748 -19223128.51246  20838267.5314                   20838264.9654
 -24192028.33648 -18825326.83647  20723339.8364                   20723338.3834
 -21848024.31647 -16996541.68444  23102703.7344                   23102703.8914
 -11033647.19547  -8575712.81645  22685508.5164                   22685509.4574
 -29607020.19148 -23046969.41446  20857038.7034                   20857034.5984
 11  8 27  0 38  0.0000000  0  7G17G10G12G05G04G25G02
 -22044452.25046 -17154677.35543  24215410.4694                   24215411.6954
 -24758256.48048 -19271390.64546  21400678.6334                   21400677.0044
 -24727905.31648 -19246260.98446  20832618.4454                   20832615.7624
 -24258006.69548 -18876738.48047  20710784.2664                   20710782.9924
 -21782022.77347 -16945111.92644  23115263.9534                   23115263.7814
 -11122020.11347  -8644574.79745  22668691.6804                   22668692.5124
 -29602059.87548 -23043104.22746  20857982.7734                   20857978.2894
 11  8 27  0 38 30.0000000  0  7G17G10G12G05G04G25G02
 -21991402.16446 -17113339.71143  24225505.3674                   24225507.1334
 -24716435.99648 -19238803.26645  21408636.7974                   21408635.2304
 -24756965.87148 -19268905.57447  20827088.1334                   20827085.7814
 -24323411.00048 -18927702.81247  20698338.3444                   20698337.1414
 -21715976.68047 -16893647.45744  23127831.6884                   23127832.1914
 -11209931.68047  -8713077.28145  22651962.7664                   22651963.7304
 -29596873.20348 -23039062.65646  20858969.6564                   20858965.8094
 11  8 27  0 39  0.0000000  0  7G17G10G12G05G04G25G02
 -21938108.00046 -17071811.79344  24235647.4924                   24235649.0944
 -24674036.27747 -19205764.53145  21416705.2974                   21416703.9304
 -24785399.59848 -19291061.72346  20821677.3754                   20821675.0204
 -24388240.08648 -18978218.92247  20686002.0234                   20686000.4104
 -21649887.09447 -16842149.10944  23140408.2194                   23140408.3094
 -11297379.41047  -8781218.32845  22635321.4144                   22635322.8594
 -29591461.14548 -23034845.45346  20859999.2114                   20859995.4264
 11  8 27  0 39 30.0000000  0  7G17G10G12G05G04G25G02
 -21884570.22746 -17030094.07844  24245834.7344                   24245836.6054
 -24631060.08248 -19172276.59046  21424882.9534                   21424881.9024
 -24813206.30148 -19312729.28546  20816385.7894                   20816383.7234
 -24452492.72348 -19028285.85247  20673774.7664                   20673773.0274
 -21583755.58647 -16790618.07844  23152992.4534                   23152993.0084
 -11384361.47747  -8848996.53145  22618769.5474                   22618770.4734
 -29585825.44948 -23030453.99246  20861071.9614                   20861067.7344
 11  8 27  0 40  0.0000000  0  7G17G10G12G05G04G25G02
 -21830788.26647 -16988186.08644  24256069.5004                   24256071.5234
 -24587508.85947 -19138340.57445  21433170.4064                   21433169.5274
 -24840384.54748 -19333907.12546  20811214.0704                   20811211.4224
 -24516166.42248 -19077901.66047  20661658.1804                   20661656.6724
 -21517582.40247 -16739054.56244  23165585.1174                   23165585.0164
 -11470874.76247  -8916409.43045  22602306.7504                   22602307.3874
 -29579966.23048 -23025888.35546  20862186.7034                   20862183.1334
 11  8 27  0 40 30.0000000  0  7G17G10G12G05G04G25G02
 -21776761.32447 -16946087.18744  24266350.6724                   24266351.9844
 -24543384.39547 -19103957.88745  21441567.4144                   21441566.0554
 -24866933.36748 -19354594.51246  20806161.9304                   20806159.9614
 -24579259.57448 -19127065.09847  20649652.1024                   20649649.9344
 -21451368.16047 -16687459.05944  23178185.0084                   23178185.6684
 -11556916.43047  -8983454.82845  22585933.5084                   22585934.0904
 -29573884.18448 -23021149.09846  20863344.0864                   20863340.1724
 11  8 27  0 41  0.0000000  0  7G17G10G12G05G04G25G02
 -21722490.20347 -16903798.04744  24276678.1414                   24276679.1954
 -24498689.88747 -19069131.00046  21450072.5634                   21450070.7384
 -24892852.98848 -19374791.61346  20801229.4694                   20801227.1644
 -24641771.37548 -19175775.53947  20637756.4064                   20637754.7424
 -21385114.62946 -16635832.96944  23190792.5554                   23190793.1684
 -11642484.87547  -9050131.50045  22569650.1414                   22569651.1644
 -29567581.26648 -23016237.72346  20864543.6564                   20864539.6724
 11  8 27  0 41 30.0000000  0  7G17G10G12G05G04G25G02
 -21667975.73446 -16861319.25443  24287051.7344                   24287053.0434
 -24453427.77748 -19033861.82045  21458685.6804                   21458684.4494
 -24918143.01648 -19394498.11346  20796417.0084                   20796414.4304
 -24703700.60948 -19224032.02347  20625971.5164                   20625969.6484
 -21318823.39147 -16584177.48444  23203407.7664                   23203407.8554
 -11727578.17247  -9116437.91045  22553457.3524                   22553458.4224
 -29561058.95348 -23011155.39546  20865784.3834                   20865780.6294
 11  8 27  0 42  0.0000000  0  7G17G10G12G05G04G25G02
 -21613217.58246 -16818650.57043  24297472.1724                   24297472.8404
 -24407600.46147 -18998152.22346  21467405.8834                   21467404.7384
 -24942802.74248 -19413713.47346  20791724.1804                   20791722.0784
 -24765045.93048 -19271833.52047  20614297.6724                   20614296.1374
 -21252494.89847 -16532492.96944  23216029.5784                   23216028.9884
 -11812193.77347  -9182372.09445  22537355.4774                   22537356.9264
 -29554317.67248 -23005902.44146  20867067.1804                   20867063.4734
 11  8 27  0 42 30.0000000  0  7G17G10G12G05G04G25G02
 -21558215.09046 -16775791.48843  24307937.9844                   24307940.6454
 -24361209.42647 -18962003.37145  21476234.0944                   21476233.0044
 -24966831.55148 -19432437.21146  20787151.7734                   20787149.2154
 -24825805.11348 -19319178.28147  20602735.9924                   20602734.0434
 -21186129.73846 -16480779.89844  23228658.3204                   23228658.5314
 -11896328.80947  -9247931.79745  22521344.9924                   22521346.0434
 -29547358.40648 -23000479.62946  20868391.6334                   20868387.8134
 11  8 27  0 43  0.0000000  0  7G17G10G12G05G04G25G02
 -21502968.41046 -16732742.20343  24318450.9384                   24318452.8014
 -24314257.02347 -18925417.08246  21485168.5944                   21485166.9574
 -24990229.02748 -19450668.99646  20782699.6414                   20782696.9734
 -24885976.98848 -19366065.40247  20591285.0864                   20591283.5274
 -21119728.89846 -16429039.00844  23241294.0864                   23241293.8674
 -11979981.18047  -9313115.40645  22505426.3914                   22505427.6724
 -29540182.24248 -22994887.81246  20869757.5634                   20869753.2344
 11  8 27  0 43 30.0000000  0  7G17G10G12G05G04G25G02
 -21447478.02746 -16689502.98843  24329010.1414                   24329012.8364
 -24266746.34448 -18888395.78145  21494209.6564                   21494208.7194
 -25012994.87148 -19468408.60946  20778367.4454                   20778364.7344
 -24945560.73048 -19412494.23847  20579946.8134                   20579945.1954
 -21053294.05946 -16377271.65244  23253936.4844                   23253936.2074
 -12063148.87547  -9377921.36345  22489600.3364                   22489601.1254
 -29532790.52748 -22989128.04346  20871163.9924                   20871159.8244
 11  8 27  0 44  0.0000000  0  7G17G10G12G05G04G25G02
 -21391744.85246 -16646074.57844  24339616.5634                   24339618.9574
 -24218680.30148 -18850941.72345  21503356.4304                   21503355.2074
 -25035129.57048 -19485656.41046  20774155.0944                   20774152.7584
 -25004555.50048 -19458464.13747  20568720.5474                   20568718.6914
 -20986826.49646 -16325478.79744  23266584.6174                   23266584.6684
 -12145830.49647  -9442348.54745  22473866.6414                   22473867.1914
 -29525185.26648 -22983201.85246  20872611.2504                   20872607.1054
 11  8 27  0 44 30.0000000  0  7G17G10G12G05G04G25G02
 -21335767.59446 -16602455.96544  24350268.6644                   24350271.6054
 -24170059.90648 -18813055.70745  21512608.5554                   21512607.6564
 -25056631.24648 -19502410.95346  20770063.5164                   20770061.1454
 -25062958.68048 -19503973.05947  20557606.6174                   20557604.8244
 -20920326.02746 -16273660.32044  23279239.6024                   23279239.6914
 -12228022.34447  -9506394.09445  22458225.7734                   22458226.5664
 -29517366.09448 -22977109.00446  20874099.2424                   20874095.4654
 11  8 27  0 45  0.0000000  0  8G17G10G29G12G05G04G25G02
 -21279547.34446 -16558648.02744  24360966.7504                   24360968.6914
 -24120888.77348 -18774740.54345  21521965.6954                   21521964.4534
   1434886.27356   1129429.24253  24618062.1484                   24618062.3054
 -25077500.75448 -19518672.90246  20766092.2424                   20766089.6844
 -25120770.49248 -19549021.17247  20546605.5164                   20546603.3834
 -20853794.93746 -16221817.96144  23291899.7974                   23291899.4184
 -12309723.53547  -9570057.29745  22442678.6564                   22442679.5864
 -29509335.19548 -22970851.16046  20875627.1644                   20875623.2854
 11  8 27  0 45 30.0000000  0  8G17G10G29G12G05G04G25G02
 -21223087.38347 -16514653.24644  24371710.7504                   24371713.0944
 -24071172.23848 -18736000.39145  21531426.4774                   21531424.8554
   1340185.77346   1055636.74643  24600041.1724                   24600040.7034
 -25097740.85948 -19534444.39846  20762240.7664                   20762238.1564
 -25177992.35948 -19593609.59047  20535716.6094                   20535714.6644
 -20787236.98047 -16169954.69144  23304565.9304                   23304565.4494
 -12390934.70747  -9633338.67645  22427224.5314                   22427225.4614
 -29501096.55548 -22964431.44546  20877194.9384                   20877190.8754
 11  8 27  0 46  0.0000000  0  8G17G10G29G12G05G04G25G02
 -21166390.12947 -16470473.57044  24382500.8204                   24382502.7854
 -24020915.35948 -18696839.19545  21540989.9614                   21540988.3164
   1245449.79746    981816.55543  24582013.5864                   24582014.2974
 -25117353.77348 -19549727.18446  20758508.1564                   20758506.2504
 -25234625.62948 -19637739.35947  20524939.5004                   20524937.6374
 -20720655.43047 -16118073.01244  23317235.7664                   23317235.4414
 -12471656.09447  -9696238.39845  22411863.5554                   22411864.8134
 -29492653.92248 -22957852.77046  20878801.7424                   20878797.8164
 11  8 27  0 46 30.0000000  0  8G17G10G29G12G05G04G25G02
 -21109456.69547 -16426109.83644  24393334.5704                   24393336.5164
 -23970121.54348 -18657259.60545  21550655.7894                   21550654.3284
   1150678.10546    907968.53543  24563979.0234                   24563980.1844
 -25136339.68048 -19564521.38746  20754895.4144                   20754893.1374
 -25290669.99648 -19681410.25447  20514274.5704                   20514272.3834
 -20654052.19146 -16066174.47344  23329909.2894                   23329909.7974
 -12551886.33647  -9758755.41045  22396596.4144                   22396597.6094
 -29484009.10248 -22951116.54746  20880447.1334                   20880442.9224
 11  8 27  0 47  0.0000000  0  8G17G10G29G12G05G04G25G02
 -21052287.18447 -16381562.14144  24404213.2814                   24404215.8014
 -23918793.25048 -18617263.54745  21560423.1334                   21560421.9924
   1055871.45746    834093.29744  24545937.8834                   24545938.4104
 -25154698.80148 -19578827.19146  20751401.7584                   20751399.3244
 -25346124.07048 -19724621.16847  20503722.0634                   20503720.1564
 -20587428.04347 -16014259.64144  23342588.1644                   23342587.8524
 -12631623.28947  -9820888.04745  22381423.2034                   22381423.5904
 -29475163.41448 -22944223.80546  20882130.3054                   20882126.1644
 11  8 27  0 47 30.0000000  0  8G17G10G29G12G05G04G25G02
 -20994880.62947 -16336829.73444  24415137.3524                   24415139.6094
 -23866931.63748 -18576851.90246  21570291.9694                   21570290.8244
    961031.46947    760192.07444  24527890.6174                   24527890.8754
 -25172429.87148 -19592643.60546  20748028.0084                   20748025.3164
 -25400985.47748 -19767370.27347  20493282.1024                   20493280.4224
 -20520782.84847 -15962328.39844  23355270.1414                   23355270.7814
 -12710863.68447  -9882633.75045  22366343.9844                   22366344.5824
 -29466116.29748 -22937174.11346  20883851.7894                   20883848.0824
 11  8 27  0 48  0.0000000  0  8G17G10G29G12G05G04G25G02
 -20937235.50047 -16291911.42244  24426107.2114                   24426108.6764
 -23814537.83648 -18536025.57845  21580262.1564                   21580261.0204
    866160.30547    686266.55144  24509836.9694                   24509838.1644
 -25189530.81648 -19605969.00846  20744773.8054                   20744771.5234
 -25455252.05548 -19809655.86747  20482955.3364                   20482953.3404
 -20454116.16846 -15910380.38744  23367956.4924                   23367957.1644
 -12789603.84847  -9943989.66845  22351360.1094                   22351360.9574
 -29456867.34848 -22929967.13346  20885611.6334                   20885607.5634
 11  8 27  0 48 30.0000000  0  8G17G10G29G12G05G04G25G02
 -20879352.66446 -16246807.91443  24437121.7194                   24437123.5634
 -23761614.66848 -18494786.74645  21590333.2034                   21590332.0664
    771257.84447    612316.67244  24491777.3984                   24491778.0824
 -25206002.12548 -19618803.78946  20741639.2344                   20741636.7234
 -25508922.80548 -19851477.18747  20472742.2114                   20472740.2704
 -20387429.27346 -15858416.65244  23380646.5944                   23380647.4454
 -12867842.15247 -10004954.51646  22336472.2034                   22336473.1024
 -29447418.25048 -22922604.20346  20887410.0234                   20887405.6994
 11  8 27  0 49  0.0000000  0  8G17G10G29G12G05G04G25G02
 -20821232.07046 -16201519.07443  24448181.8364                   24448183.3554
 -23708164.77748 -18453137.48445  21600504.8594                   21600503.0314
    676325.07447    538343.16844  24473712.2974                   24473712.4884
 -25221843.61348 -19631147.80546  20738624.5314                   20738622.5744
 -25561996.49648 -19892833.26247  20462642.3754                   20462640.6524
 -20320722.56647 -15806437.47744  23393340.2814                   23393340.9734
 -12945576.23447 -10065526.47746  22321679.6954                   22321680.4884
 -29437769.72748 -22915085.87946  20889246.2814                   20889241.7814
 11  8 27  0 49 30.0000000  0  8G17G10G29G12G05G04G25G02
 -20762872.68446 -16156044.21143  24459286.8674                   24459288.2934
 -23654189.56248 -18411078.87945  21610775.3984                   21610774.3134
    581363.69547    464347.39544  24455641.5164                   24455642.6644
 -25237054.01648 -19643000.05546  20735730.4774                   20735727.7734
 -25614471.03148 -19933722.46547  20452656.9694                   20452655.4224
 -20253995.91847 -15754442.74644  23406038.3364                   23406038.5234
 -13022802.74647 -10125702.91846  22306983.6644                   22306984.4494
 -29427921.77748 -22907412.14846  20891119.7194                   20891115.9144
 11  8 27  0 50  0.0000000  0  7G10G29G12G05G04G25G02
 -23599691.87148 -18368613.14545  21621145.9844                   21621144.9224
    486373.92246    390329.49644  24437565.5164                   24437565.9104
 -25251633.52048 -19654360.70346  20732955.8444                   20732953.4924
 -25666345.79748 -19974144.30947  20442785.6564                   20442783.3954
 -20187250.68047 -15702433.54344  23418738.9144                   23418739.8134
 -13099520.17247 -10185482.67246  22292384.8284                   22292385.7464
 -29417876.00848 -22899584.28146  20893031.6644                   20893027.3834
 11  8 27  0 50 30.0000000  0  7G10G29G12G05G04G25G02
 -23544674.00848 -18325742.09045  21631615.8834                   21631614.4454
    391356.61746    316290.16044  24419484.1564                   24419484.3444
 -25265581.79348 -19665229.48046  20730301.2504                   20730299.1764
 -25717619.35248 -20014097.68447  20433028.5234                   20433026.6334
 -20120487.41847 -15650410.28544  23431444.1644                   23431444.6254
 -13175726.07047 -10244863.83246  22277883.1644                   22277883.6764
 -29407632.77048 -22891602.53146  20894980.7814                   20894976.7034
 11  8 27  0 51  0.0000000  0  7G10G29G12G05G04G25G02
 -23489135.97748 -18282465.71145  21642184.0864                   21642182.9104
    296315.27346    242232.10544  24401397.3674                   24401399.1884
 -25278896.25448 -19675604.37946  20727767.9844                   20727765.6414
 -25768288.10548 -20053579.78147  20423386.4534                   20423384.5634
 -20053704.15647 -15598371.44544  23444152.8204                   23444152.9574
 -13251415.72747 -10303842.72345  22263480.2584                   22263480.7304
 -29397190.48048 -22883465.68046  20896968.1954                   20896963.8204
 11  8 27  0 51 30.0000000  0  7G10G29G12G05G04G25G02
 -23433076.67248 -18238783.13745  21652852.2194                   21652850.9104
    201253.88746    168158.47743  24383308.3284                   24383309.5274
 -25291573.18048 -19685482.49246  20725355.7034                   20725353.3714
 -25818347.72748 -20092587.23447  20413860.2504                   20413858.2974
 -19986898.16847 -15546314.86744  23456865.0164                   23456865.7424
 -13326583.50047 -10362414.96945  22249176.3674                   22249176.8164
 -29386546.90248 -22875171.98046  20898993.3284                   20898988.9694
 11  8 27  0 52  0.0000000  0  7G10G29G12G05G04G25G02
 -23376497.96948 -18194695.83645  21663618.2974                   21663617.2034
    106174.12946     94070.48043  24365216.2584                   24365214.8554
 -25303611.51248 -19694863.00046  20723064.3754                   20723062.2424
 -25867796.19148 -20131118.45747  20404450.6954                   20404448.5554
 -19920069.44547 -15494240.56644  23469582.5394                   23469583.0554
 -13401226.50447 -10420578.29746  22234972.1644                   22234972.3594
 -29375701.85248 -22866721.28146  20901057.2344                   20901053.2624
 11  8 27  0 52 30.0000000  0  7G10G29G12G05G04G25G02
 -23319404.40648 -18150207.35545  21674483.2974                   21674481.7934
     11074.53147     19967.03943  24347118.5864                   24347118.5164
 -25315013.71548 -19703747.82047  20720895.1024                   20720892.5204
 -25916634.63348 -20169174.34047  20395157.0704                   20395155.0314
 -19853220.75447 -15442150.72344  23482303.3204                   23482304.1724
 -13475344.76248 -10478332.73846  22220867.7274                   22220868.8404
 -29364658.41448 -22858115.99246  20903158.6024                   20903154.7974
 11  8 27  0 53  0.0000000  0  7G10G29G12G05G04G25G02
 -23261798.77348 -18105319.86345  21685445.5474                   21685443.9104
    -84044.38746    -54151.41443  24329017.8674                   24329018.4104
 -25325779.99248 -19712137.12546  20718846.0394                   20718843.8874
 -25964862.55948 -20206754.49247  20385979.5864                   20385977.2854
 -19786353.42647 -15390046.34844  23495027.7114                   23495028.3204
 -13548936.53148 -10535676.93446  22206863.5634                   22206864.2854
 -29353417.83248 -22849357.08646  20905297.6094                   20905292.9924
 11  8 27  0 53 30.0000000  0  7G10G29G12G05G04G25G02
 -23203685.51648 -18060036.80545  21696504.0784                   21696502.3914
   -179183.62547   -128285.72744  24310913.7664                   24310913.4884
 -25335912.51248 -19720032.58246  20716917.8984                   20716915.5474
 -26012480.69548 -20243859.49247  20376918.1644                   20376915.9964
 -19719469.66847 -15337929.14543  23507755.2034                   23507756.1764
 -13622001.40247 -10592610.54745  22192959.6724                   22192960.4694
 -29341982.78548 -22840446.65646  20907473.3134                   20907469.2464
 11  8 27  0 54  0.0000000  0  7G10G29G12G05G04G25G02
 -23145067.38748 -18014360.34445  21707658.5474                   21707656.9184
   -274342.78547   -202435.58244  24292805.0004                   24292804.9844
 -25345411.32848 -19727434.24246  20715110.2894                   20715108.1024
 -26059488.26248 -20280488.71547  20367972.8594                   20367971.2464
 -19652570.39547 -15285799.85244  23520485.5634                   23520486.4264
 -13694537.62947 -10649132.24645  22179156.9454                   22179156.7704
 -29330354.57448 -22831385.69946  20909686.1094                   20909682.1054
 11  8 27  0 54 30.0000000  0  7G10G29G12G05G04G25G02
 -23085948.15247 -17968293.41045  21718908.4454                   21718907.0944
   -369522.01646   -276601.05543  24274692.9614                   24274693.2194
 -25354277.26248 -19734342.75046  20713423.3204                   20713420.9844
 -26105885.54748 -20316642.40247  20359143.7034                   20359141.7194
 -19585657.48447 -15233659.94544  23533218.9614                   23533219.4884
 -13766544.19147 -10705241.23045  22165453.9534                   22165454.5784
 -29318534.83648 -22822175.50446  20911935.5864                   20911931.2624
 11  8 27  0 55  0.0000000  0  7G10G29G12G05G04G25G02
 -23026331.32448 -17921838.74245  21730252.8754                   21730251.7544
   -464721.36746   -350782.23843  24256577.4144                   24256576.8714
 -25362511.28948 -19740758.86346  20711856.4064                   20711853.7934
 -26151672.40648 -20352320.43047  20350430.4454                   20350428.6024
 -19518732.43447 -15181510.55944  23545954.4144                   23545954.8954
 -13838019.95748 -10760936.60246  22151852.7584                   22151853.0864
 -29306525.48848 -22812817.56246  20914220.7974                   20914216.3524
 11  8 27  0 55 30.0000000  0  7G10G29G12G05G04G25G02
 -22966219.51248 -17874998.36345  21741692.0634                   21741690.3714
   -559940.56246   -424978.88343  24238456.3754                   24238457.3554
 -25370114.30548 -19746683.27746  20710409.4774                   20710407.2114
 -26196848.17648 -20387522.28147  20341834.0164                   20341832.0944
 -19451796.08647 -15129352.37144  23558692.0394                   23558692.8794
 -13908963.10548 -10816216.93445  22138352.5234                   22138353.3444
 -29294327.54748 -22803312.66046  20916541.9844                   20916538.0084
 11  8 27  0 56  0.0000000  0  7G10G29G12G05G04G25G02
 -22905616.93747 -17827775.58645  21753224.2584                   21753223.3404
   -655180.09846   -499191.40643  24220333.6884                   24220334.6134
 -25377087.77348 -19752117.14146  20709082.7814                   20709080.2074
 -26241413.91848 -20422248.79347  20333353.2114                   20333351.3134
 -19384850.50447 -15077186.98843  23571431.3204                   23571431.6954
 -13979373.24247 -10871081.94546  22124953.8284                   22124954.6024
 -29281943.64548 -22793662.84846  20918898.7034                   20918894.2464
 11  8 27  0 56 30.0000000  0  7G10G29G12G05G04G25G02
 -22844525.92247 -17780172.21145  21764849.5784                   21764848.7274
   -750439.08246   -573419.14544  24202206.8054                   24202207.0664
 -25383431.67248 -19757060.44146  20707875.3364                   20707872.8714
 -26285368.62948 -20456499.17247  20324988.9614                   20324987.5004
 -19317896.55947 -15025015.09444  23584172.1414                   23584172.5434
 -14049248.24248 -10925529.95345  22111657.1174                   22111658.1454
 -29269374.55948 -22783868.74646  20921290.3914                   20921286.1804
 11  8 27  0 57  0.0000000  0  7G10G29G12G05G04G25G02
 -22782950.86747 -17732191.65245  21776566.6564                   21776565.1484
   -845717.64846   -647662.10244  24184075.6804                   24184075.7774
 -25389147.40248 -19761514.24246  20706787.7194                   20706785.3364
 -26328712.52048 -20490273.59047  20316740.9694                   20316738.7934
 -19250936.05547 -14972838.09044  23596913.8594                   23596914.9844
 -14118587.35248 -10979560.39846  22098462.2424                   22098462.7934
 -29256622.02748 -22773931.69146  20923717.0704                   20923712.9414
 11  8 27  0 57 30.0000000  0  7G10G29G12G05G04G25G02
 -22720893.77748 -17683835.48445  21788376.1954                   21788374.4924
   -941014.86346   -721919.65644  24165940.9774                   24165941.0864
 -25394234.73448 -19765478.40646  20705819.3754                   20705816.8284
 -26371444.43048 -20523571.14547  20308609.1174                   20308607.4884
 -19183968.93747 -14920655.91844  23609658.5554                   23609658.3954
 -14187388.14848 -11033171.39146  22085370.4224                   22085370.3554
 -29243686.40248 -22763851.97746  20926178.6884                   20926174.5664
 11  8 27  0 58  0.0000000  0  7G10G29G12G05G04G25G02
 -22658359.07047 -17635107.15245  21800275.9774                   21800274.3794
  -1036331.17646   -796192.06244  24147802.9064                   24147802.9024
 -25398695.69948 -19768954.48446  20704970.6414                   20704968.2234
 -26413565.35948 -20556392.60947  20300594.0314                   20300591.9264
 -19116997.56247 -14868470.44944  23622402.1804                   23622402.8054
 -14255650.54348 -11086362.84046  22072380.3984                   22072380.9104
 -29230570.70348 -22753631.93746  20928674.6414                   20928670.7034
 11  8 27  0 58 30.0000000  0  7G10G29G12G05G04G25G02
 -22595348.17247 -17586007.76245  21812266.9224                   21812265.3054
  -1131665.23047   -870478.29744  24129662.2504                   24129660.7194
 -25402529.57048 -19771941.91446  20704241.3054                   20704238.8444
 -26455073.98848 -20588736.94547  20292694.6954                   20292693.0554
 -19050021.97347 -14816281.68044  23635147.9304                   23635147.8984
 -14323371.75448 -11139132.58646  22059493.2894                   22059493.6994
 -29217274.91848 -22743271.57446  20931204.3914                   20931200.1054
 11  8 27  0 59  0.0000000  0  7G10G29G12G05G04G25G02
 -22531865.55947 -17536540.80145  21824346.8674                   21824345.2704
  -1227017.69946   -944778.91044  24111516.5004                   24111516.5744
 -25405738.87548 -19774442.68046  20703630.7504                   20703628.4344
 -26495971.08648 -20620604.77747  20284912.6564                   20284910.8754
 -18983044.24647 -14764091.27044  23647893.1564                   23647893.4534
 -14390551.47348 -11191480.39546  22046709.3204                   22046710.1724
 -29203801.21948 -22732772.57846  20933768.6174                   20933764.3484
 11  8 27  0 59 30.0000000  0  7G10G29G12G05G04G25G02
 -22467913.94947 -17486708.38345  21836516.0234                   21836514.8404
  -1322387.59446  -1019093.05144  24093367.8524                   24093368.1334
 -25408323.46148 -19776456.64846  20703138.7814                   20703136.1524
 -26536255.96948 -20651995.55947  20277246.5394                   20277244.4844
 -18916064.75047 -14711899.46944  23660638.9064                   23660638.9384
 -14457187.69948 -11243404.69946  22034028.7584                   22034029.4104
 -29190150.34048 -22722135.52746  20936366.2194                   20936362.2154
 11  8 27  1  0  0.0000000  0  7G10G29G12G05G04G25G02
 -22403496.18048 -17436512.73045  21848775.0394                   21848773.4734
  -1417773.97746  -1093420.04744  24075216.5164                   24075217.1094
 -25410284.11348 -19777984.43446  20702765.6884                   20702762.7154
 -26575928.40648 -20682909.10547  20269697.2974                   20269695.3324
 -18849084.87547 -14659707.38744  23673384.8134                   23673384.8754
 -14523279.03548 -11294904.43446  22021452.0164                   22021452.5274
 -29176323.64148 -22711361.47346  20938997.1644                   20938993.1054
 11  8 27  1  0 30.0000000  0  7G10G29G12G05G04G25G02
 -22338615.56247 -17385956.42245  21861121.0164                   21861119.7934
  -1513177.04346  -1167760.02044  24057062.3914                   24057062.6374
 -25411621.38348 -19779026.46546  20702511.0394                   20702508.9534
 -26614988.17648 -20713345.25047  20262264.1954                   20262262.3244
 -18782105.09847 -14607515.39844  23686130.1564                   23686130.9884
 -14588824.01648 -11345978.42246  22008979.2734                   22008980.0864
 -29162322.74648 -22700451.68046  20941661.8134                   20941657.5394
 11  8 27  1  1  0.0000000  0  7G10G29G12G05G04G25G02
 -22273274.24247 -17335041.12545  21873555.4844                   21873553.6054
  -1608595.01246  -1242111.57844  24038904.0944                   24038904.0784
 -25412335.51648 -19779582.94146  20702375.3594                   20702372.5084
 -26653434.05548 -20743303.02747  20254948.2274                   20254946.1564
 -18715125.52346 -14555323.53944  23698876.1174                   23698876.6134
 -14653820.11748 -11396624.73046  21996611.0634                   21996611.3164
 -29148147.01648 -22689405.64546  20944359.0234                   20944354.9224
 11  8 27  1  1 30.0000000  0  7G10G29G12G05G04G25G02
 -22207475.32047 -17283769.24245  21886076.0474                   21886075.2344
  -1704027.20346  -1316474.21944  24020744.1094                   24020743.6914
 -25412427.10248 -19779654.31246  20702357.4144                   20702355.2854
 -26691265.87548 -20772782.32847  20247749.0784                   20247746.7734
 -18648147.18447 -14503132.67244  23711621.6484                   23711622.0474
 -14718266.09048 -11446842.37146  21984347.2734                   21984348.2774
 -29133797.87548 -22678224.48846  20947089.5004                   20947085.6294
 11  8 27  1  2  0.0000000  0  7G10G29G12G05G04G25G02
 -22141222.02748 -17232143.32045  21898684.0234                   21898682.5164
  -1799472.89146  -1390847.40244  24002581.1414                   24002581.3524
 -25411896.99648 -19779241.25446  20702458.4384                   20702456.3164
 -26728483.49248 -20801783.03547  20240666.8984                   20240664.5944
 -18581170.69947 -14450943.22744  23724367.0234                   23724367.5354
 -14782160.24648 -11496630.02746  21972188.7894                   21972189.1054
 -29119276.57448 -22666909.19146  20949853.1564                   20949849.1604
 11  8 27  1  2 30.0000000  0  7G10G29G12G05G04G25G02
 -22074517.52047 -17180165.78545  21911377.3284                   21911376.1484
  -1894932.05546  -1465231.05944  23984416.7504                   23984415.9694
 -25410746.41048 -19778344.69546  20702677.3914                   20702675.1174
 -26765087.07048 -20830305.26247  20233701.2194                   20233699.0704
 -18514197.48847 -14398756.32043  23737111.8134                   23737112.5124
 -14845501.57448 -11545986.89846  21960135.1724                   21960135.8554
 -29104584.55148 -22655460.85946  20952648.7274                   20952644.5514
 11  8 27  1  3  0.0000000  0  7G10G29G12G05G04G25G02
 -22007364.43447 -17127838.73845  21924156.3594                   21924155.1294
  -1990403.82846  -1539624.57044  23966248.6724                   23966248.4064
 -25408975.86748 -19776965.05946  20703014.4924                   20703011.9884
 -26801076.05948 -20858348.58647  20226852.7734                   20226850.5664
 -18447227.95347 -14346572.33243  23749855.8914                   23749855.8164
 -14908288.42648 -11594911.71146  21948187.0784                   21948188.1644
 -29089722.77048 -22643880.24646  20955477.0084                   20955472.9414
 11  8 27  1  3 30.0000000  0  7G10G29G12G05G04G25G02
 -21939765.34048 -17075164.13345  21937020.0864                   21937018.7344
  -2085886.76646  -1614026.77344  23948079.1804                   23948078.5594
 -25406585.44548 -19775102.39146  20703469.3594                   20703467.0234
 -26836450.11748 -20885912.75847  20220121.1174                   20220119.2344
 -18380262.53947 -14294391.51643  23762598.1564                   23762598.6454
 -14970518.85248 -11643402.95346  21936345.4384                   21936345.8444
 -29074691.88748 -22632167.86746  20958337.2584                   20958333.3714
 11  8 27  1  4  0.0000000  0  7G10G29G12G05G04G25G02
 -21871723.72347 -17022144.71145  21949967.7034                   21949966.8404
  -2181380.21546  -1688437.16044  23929906.7734                   23929906.7664
 -25403576.07848 -19772757.44146  20704041.8444                   20704039.7704
 -26871208.70748 -20912997.33647  20213506.9064                   20213504.8984
 -18313302.19947 -14242214.67244  23775340.8284                   23775341.6134
 -15032191.51648 -11691459.56246  21924609.4454                   21924609.3714
 -29059492.81248 -22620324.43046  20961229.1414                   20961225.3554
 11  8 27  1  4 30.0000000  0  7G10G29G12G05G04G25G02
 -21803243.80947 -16968783.76245  21962998.9454                   21962997.7384
  -2276885.18746  -1762856.55143  23911733.1954                   23911731.8204
 -25399950.48848 -19769932.30946  20704732.1954                   20704729.3634
 -26905353.98048 -20939604.00447  20207008.9144                   20207006.9884
 -18246349.12946 -14190043.47744  23788081.3914                   23788082.3364
 -15093306.44948 -11739081.58246  21912979.3134                   21912980.3484
 -29044127.94148 -22608351.80546  20964153.5164                   20964149.4264
 11  8 27  1  5  0.0000000  0  7G10G29G12G05G04G25G02
 -21734327.62547 -16915082.85545  21976113.4534                   21976112.0864
  -2372400.09047  -1837283.64544  23893557.0234                   23893556.6644
 -25395709.12948 -19766627.35946  20705538.9304                   20705536.9844
 -26938884.37548 -20965731.55547  20200628.5314                   20200626.3364
 -18179403.11746 -14137877.78543  23800820.6804                   23800821.4454
 -15153861.27048 -11786267.15246  21901456.0634                   21901456.4774
 -29028597.60248 -22596250.23446  20967108.7424                   20967104.3674
 11  8 27  1  5 30.0000000  0  7G10G29G12G05G04G25G02
 -21664978.52347 -16861044.61745  21989309.4614                   21989308.9734
  -2467924.03147  -1911717.78144  23875378.9694                   23875378.4144
 -25390852.17248 -19762842.71946  20706463.2274                   20706461.1484
 -26971799.74248 -20991379.85547  20194364.7504                   20194363.0274
 -18112464.82446 -14085718.11743  23813558.9064                   23813559.9534
 -15213854.78548 -11833015.31646  21890039.9304                   21890040.4734
 -29012902.65648 -22584020.40646  20970095.2814                   20970091.1374
 11  8 27  1  6  0.0000000  0  7G10G29G12G05G04G25G02
 -21595200.17647 -16806671.90645  22002588.4144                   22002587.3444
  -2563456.91447  -1986158.89144  23857200.1724                   23857199.5944
 -25385381.53548 -19758579.88746  20707504.4224                   20707502.0474
 -27004100.82448 -21016549.49247  20188218.4224                   20188216.2854
 -18045535.89646 -14033565.74343  23826295.0944                   23826295.8324
 -15273286.20348 -11879325.49646  21878730.4774                   21878730.9454
 -28997044.85248 -22571663.66846  20973112.7584                   20973108.9574
 11  8 27  1  6 30.0000000  0  7G10G29G12G05G04G25G02
 -21524994.37547 -16751966.10545  22015948.5474                   22015947.2384
  -2658996.75047  -2060605.44144  23839019.2734                   23839019.0394
 -25379296.63348 -19753838.41046  20708662.3054                   20708660.0704
 -27035786.54748 -21041239.64147  20182188.5004                   20182186.4104
 -17978615.78946 -13981420.22743  23839029.5634                   23839030.0664
 -15332152.98448 -11925195.68746  21867528.1804                   21867528.7464
 -28981024.33248 -22559180.14546  20976161.3914                   20976157.7194
 11  8 27  1  7  0.0000000  0  7G10G29G12G05G04G25G02
 -21454364.35247 -16696929.74245  22029388.5474                   22029387.4494
  -2754542.96547  -2135056.94544  23820837.0164                   23820836.9414
 -25372598.93748 -19748619.43046  20709936.9064                   20709934.1524
 -27066856.74648 -21065450.15647  20176276.2344                   20176274.1454
 -17911705.15246 -13929282.08643  23851762.1884                   23851762.7274
 -15390453.80948 -11970624.87146  21856434.0314                   21856434.5314
 -28964842.02048 -22546570.54746  20979240.9454                   20979237.0984
 11  8 27  1  7 30.0000000  0  7G10G29G12G05G04G25G02
 -21383314.21147 -16641566.02745  22042908.6954                   22042908.1374
  -2850096.29347  -2209514.00044  23802653.9384                   23802653.6294
 -25365290.94148 -19742924.88746  20711327.3284                   20711325.0514
 -27097312.91048 -21089182.20347  20170480.6724                   20170478.3914
 -17844806.12546 -13877153.00044  23864492.9304                   23864493.5314
 -15448188.82048 -12015613.16446  21845447.4454                   21845447.7114
 -28948500.05148 -22533836.54746  20982350.7894                   20982346.7974
 11  8 27  1  8  0.0000000  0  7G10G29G12G05G04G25G02
 -21311846.16847 -16585876.66845  22056509.2974                   22056507.9224
  -2945654.65647  -2283974.96544  23784469.9694                   23784469.3954
 -25357372.54748 -19736754.71946  20712834.3524                   20712832.1094
 -27127154.05548 -21112435.01247  20164801.9844                   20164799.8524
 -17777918.30546 -13825032.67243  23877221.1174                   23877221.5314
 -15505355.69548 -12060158.73846  21834568.9694                   21834569.6644
 -28931998.53148 -22520978.21946  20985490.7974                   20985486.7154
 11  8 27  1  8 30.0000000  0  7G10G29G12G05G04G25G02
 -21239964.35547 -16529864.88745  22070187.5554                   22070186.4884
  -3041218.25047  -2358440.04344  23766284.6644                   23766284.1134
 -25348845.36348 -19730110.15646  20714456.8914                   20714454.6644
 -27156381.02348 -21135209.24647  20159240.0234                   20159237.9884
 -17711043.36346 -13772922.35543  23889947.1174                   23889947.6524
 -15561953.87548 -12104261.17246  21823798.3914                   21823798.7344
 -28915339.13748 -22507996.86746  20988661.2194                   20988657.0554
 11  8 27  1  9  0.0000000  0  7G10G29G12G05G04G25G02
 -21167672.19147 -16473533.36345  22083944.7504                   22083943.0274
  -3136786.92247  -2432909.03944  23748098.1174                   23748098.3204
 -25339711.42248 -19722992.81246  20716195.1884                   20716192.7934
 -27184994.82448 -21157505.68447  20153795.2504                   20153792.9104
 -17644182.79346 -13720823.25443  23902670.2504                   23902670.8284
 -15617982.91448 -12147920.12546  21813136.6174                   21813137.4024
 -28898523.78948 -22494894.00046  20991860.6954                   20991856.8204
 11  8 27  1  9 30.0000000  0  7G10G29G12G05G04G25G02
 -21094972.17247 -16416884.01245  22097778.8524                   22097777.8484
  -3232359.02047  -2507380.72744  23729910.9304                   23729910.8984
 -25329971.03948 -19715402.91046  20718048.8834                   20718046.6414
 -27212994.74248 -21179323.77347  20148466.6724                   20148464.4884
 -17577336.39846 -13668735.18443  23915390.8054                   23915391.3634
 -15673441.02748 -12191134.20746  21802582.8134                   21802583.6294
 -28881552.63748 -22481669.72346  20995090.2814                   20995086.3914
 11  8 27  1 10  0.0000000  0  7G10G29G12G05G04G25G02
 -21021866.78147 -16359918.79345  22111690.5314                   22111688.9534
  -3327933.27347  -2581854.10944  23711723.9144                   23711723.9454
 -25319624.84448 -19707340.94946  20720017.6174                   20720015.3094
 -27240380.32048 -21200663.16047  20143255.8134                   20143252.9184
 -17510504.11746 -13616658.13743  23928108.9844                   23928109.0864
 -15728326.12948 -12233901.78546  21792139.1724                   21792139.5594
 -28864425.70748 -22468324.05946  20998349.5554                   20998345.1604
 11  8 27  1 10 30.0000000  0  7G10G29G12G05G04G25G02
 -20948359.97347 -16302640.77345  22125678.1174                   22125677.0434
  -3423509.45747  -2656328.96544  23693536.6954                   23693536.2734
 -25308675.03548 -19698808.62946  20722101.2424                   20722099.0474
 -27267152.42248 -21221524.50447  20138161.0944                   20138158.8364
 -17443687.59046 -13564593.31643  23940823.5004                   23940823.2704
 -15782638.05148 -12276222.72346  21781803.8834                   21781804.6604
 -28847145.09048 -22454858.63746  21001637.7114                   21001633.9494
 11  8 27  1 11  0.0000000  0  7G10G29G12G05G04G25G02
 -19299037.46947 -15017454.42245  22439534.2034                   22439533.2274
  -1943663.64147  -1503202.28944  23975142.0554                   23975141.7114
 -23721703.02748 -18462207.07446  21024091.8204                   21024089.4024
 -25717890.69948 -20014307.54347  20432975.7974                   20432973.8984
 -15801469.73846 -12284943.08643  24253326.8754                   24253326.7544
 -14260953.75048 -11090494.66446  22071370.7894                   22071371.2464
 -27254292.37948 -21213674.70746  21304747.6564                   21304743.8524
 11  8 27  1 11 30.0000000  0  7G10G29G12G05G04G25G02
 -19224736.27047 -14959557.40245  22453673.0314                   22453672.2544
  -2039240.03547  -1577677.32445  23956954.3914                   23956954.0634
 -23709548.05548 -18452735.67646  21026404.8594                   21026402.7464
 -25743435.74248 -20034212.74647  20428114.4304                   20428112.0744
 -15734685.26246 -12232903.27743  24266034.7504                   24266035.6764
 -14314114.49248 -11131918.58646  22061254.4694                   22061255.1094
 -27236705.90648 -21199970.95746  21308094.1174                   21308090.0594
 11  8 27  1 12  0.0000000  0  7G10G29G12G05G04G25G02
 -19150041.71547 -14901353.87545  22467886.6484                   22467885.7544
  -2134814.68447  -1652151.00444  23938767.3914                   23938766.7424
 -23696791.89548 -18442795.82046  21028832.2974                   21028830.1134
 -25768366.96548 -20053639.63747  20423370.4924                   20423368.1134
 -15667917.32046 -12180876.35943  24278741.6024                   24278741.3444
 -14366697.41848 -11172892.26646  22051248.0634                   22051248.7384
 -27218967.23848 -21186148.61746  21311469.5784                   21311466.1844
 11  8 27  1 12 30.0000000  0  7G10G29G12G05G04G25G02
 -19074957.72747 -14842846.89145  22482174.8134                   22482173.8754
  -2230387.64147  -1726623.34844  23920579.5864                   23920579.7734
 -23683436.36748 -18432388.91846  21031373.3204                   21031371.6334
 -25792685.29348 -20072588.95347  20418742.6024                   20418740.4024
 -15601167.34446 -12128863.45343  24291442.9304                   24291443.4804
 -14418702.21948 -11213415.45346  22041352.0784                   22041352.6174
 -27201078.15648 -21172209.06646  21314873.6334                   21314870.3324
 11  8 27  1 13  0.0000000  0  8G26G10G29G12G05G04G25G02
   2997384.23456   2346135.21953  24979407.4454                   24979410.6604
 -18999488.46147 -14784039.68445  22496536.5084                   22496534.9574
  -2325958.48047  -1801094.07444  23902393.0864                   23902392.1334
 -23669483.98448 -18421516.93746  21034028.9384                   21034026.2464
 -25816392.27748 -20091061.89147  20414231.1094                   20414229.3984
 -15534436.78146 -12076865.69543  24304141.3594                   24304142.2464
 -14470128.73848 -11253488.05146  22031565.7814                   22031566.2734
 -27183040.52048 -21158153.76646  21318306.3524                   21318302.7034
 11  8 27  1 13 30.0000000  0  8G26G10G29G12G05G04G25G02
   2893763.85546   2265392.36743  24959689.1954                   24959692.6844
 -18923637.78947 -14724935.27745  22510970.1724                   22510969.1094
  -2421527.62947  -1875563.49644  23884206.7114                   23884206.4384
 -23654936.88748 -18410181.54746  21036796.9774                   21036794.6994
 -25839488.89548 -20109059.22347  20409836.1094                   20409834.3244
 -15467727.19546 -12024884.28143  24316836.0634                   24316837.6484
 -14520976.90248 -11293109.96946  22021889.8364                   22021889.9924
 -27164856.34048 -21143984.27346  21321766.8914                   21321763.1994
 11  8 27  1 14  0.0000000  0  8G26G10G29G12G05G04G25G02
   2790030.92246   2184561.74643  24939948.6484                   24939952.5314
 -18847414.10947 -14665540.22745  22525475.0864                   22525473.7074
  -2517099.29747  -1950034.88744  23866020.6884                   23866019.5554
 -23639801.71148 -18398387.90646  21039677.5944                   21039674.9454
 -25861980.73448 -20126585.30147  20405556.1174                   20405554.1174
 -15401044.17646 -11972923.54343  24329525.9384                   24329526.4104
 -14571250.69948 -11332284.34046  22012323.0474                   22012323.8014
 -27146531.49248 -21129705.16846  21325253.9064                   21325250.0204
 11  8 27  1 14 30.0000000  0  8G26G10G29G12G05G04G25G02
   2686188.47746   2103645.82443  24920188.2194                   24920191.5514
 -18770819.83247 -14605856.37145  22540050.5704                   22540049.4494
  -2612671.84847  -2024506.96144  23847833.5474                   23847831.9804
 -23624078.96148 -18386136.41446  21042669.3444                   21042667.2074
 -25883867.41848 -20143639.82047  20401391.1414                   20401389.2424
 -15334387.74646 -11920983.51643  24342210.0784                   24342211.0664
 -14620948.53948 -11371009.90246  22002865.7664                   22002866.3834
 -27128066.10948 -21115316.55546  21328767.6804                   21328763.8014
 11  8 27  1 15  0.0000000  0  8G26G10G29G12G05G04G25G02
   2582238.76246   2022646.29343  24900407.2274                   24900410.1954
 -18693858.57847 -14545886.58245  22554695.5314                   22554694.7344
  -2708244.62147  -2098979.23444  23829646.8914                   23829645.8914
 -23607770.47348 -18373428.51246  21045772.6254                   21045770.6374
 -25905150.09448 -20160223.68747  20397341.5314                   20397339.1954
 -15267759.09446 -11869065.16843  24354889.3364                   24354890.2664
 -14670069.89148 -11409286.28146  21993518.1644                   21993518.8404
 -27109461.63347 -21100819.56646  21332308.2274                   21332303.7304
 11  8 27  1 15 30.0000000  0  8G26G10G29G12G05G04G25G02
   2478185.95746   1941566.40243  24880606.6954                   24880609.0784
 -18616531.80547 -14485631.96545  22569410.3754                   22569409.9774
  -2803815.34847  -2173449.90244  23811460.0234                   23811459.3794
 -23590876.19948 -18360264.14546  21048987.5784                   21048985.1254
 -25925827.54748 -20176335.95747  20393406.3914                   20393404.3324
 -15201156.92646 -11817167.41443  24367562.7664                   24367563.5634
 -14718612.15648 -11447111.40246  21984281.2814                   21984281.7274
 -27090717.31247 -21086213.59846  21335874.9144                   21335870.8484
 11  8 27  1 16  0.0000000  0  8G26G10G29G12G05G04G25G02
   2374033.81346   1860409.16043  24860786.7114                   24860788.8834
 -18538841.42247 -14425094.02745  22584194.6564                   22584193.9104
  -2899381.57047  -2247917.03144  23793273.9304                   23793273.6684
 -23573396.31248 -18346643.45746  21052313.8674                   21052311.1644
 -25945898.78948 -20191975.84847  20389586.8364                   20389584.9924
 -15134580.80546 -11765290.00443  24380232.6334                   24380232.5434
 -14766573.12148 -11484483.57046  21975154.6564                   21975154.3094
 -27071832.87947 -21071498.45346  21339468.5864                   21339464.8984
 11  8 27  1 16 30.0000000  0  8G26G10G29G12G05G04G25G02
   2269785.37546   1779176.80143  24840948.4384                   24840951.8954
 -18460789.70747 -14364274.53945  22599047.0314                   22599046.2774
  -2994941.88747  -2322379.53944  23775089.5864                   23775088.8984
 -23555331.87948 -18332567.28146  21055751.2664                   21055748.8054
 -25965363.89148 -20207143.41847  20385882.7344                   20385880.6374
 -15068030.71146 -11713432.86743  24392895.8444                   24392897.3364
 -14813951.36748 -11521401.66846  21966138.4144                   21966138.8054
 -27052808.52748 -21056674.28946  21343088.7424                   21343084.3244
 11  8 27  1 17  0.0000000  0  8G26G10G29G12G05G04G25G02
   2165443.38746   1697871.57443  24821093.2274                   24821095.3834
 -18382380.37547 -14303176.37945  22613967.9064                   22613967.3364
  -3090495.48047  -2396836.83244  23756906.6804                   23756905.4184
 -23536684.44148 -18318036.81246  21059299.8674                   21059297.8204
 -25984223.34048 -20221839.06247  20382293.9384                   20382291.7344
 -15001507.07046 -11661596.34043  24405555.5394                   24405555.8754
 -14860746.09048 -11557865.08246  21957233.9534                   21957234.2544
 -27033645.21547 -21041741.82846  21346735.2114                   21346731.2544
 11  8 27  1 17 30.0000000  0  8G26G10G29G12G05G04G25G02
   2061011.60946   1616496.37142  24801219.5784                   24801221.9774
 -18303615.27747 -14241801.00844  22628956.6564                   22628955.2584
  -3186040.13747  -2471287.16044  23738724.6414                   23738723.9024
 -23517454.18448 -18303052.20346  21062958.9844                   21062956.9574
 -26002476.48848 -20236062.26647  20378820.6094                   20378818.4104
 -14935009.47346 -11609780.10943  24418209.0234                   24418210.9774
 -14906955.28548 -11593872.23046  21948440.5704                   21948440.7504
 -27014342.70747 -21026700.91846  21350408.3364                   21350403.9844
 11  8 27  1 18  0.0000000  0  8G26G10G29G12G05G04G25G02
   1956492.26246   1535052.97342  24781330.1254                   24781333.1294
 -18224497.78147 -14180151.03944  22644012.1644                   22644011.1484
  -3281575.29747  -2545730.10244  23720545.2734                   23720544.5704
 -23497642.60948 -18287614.60946  21066729.4694                   21066727.2704
 -26020124.43748 -20249813.88347  20375462.0944                   20375459.6094
 -14868538.78147 -11557984.86744  24430859.2974                   24430859.9844
 -14952578.36748 -11629422.66046  21939758.8754                   21939759.3524
 -26994902.19547 -21011552.46946  21354108.2424                   21354103.8094
 11  8 27  1 18 30.0000000  0  8G26G10G29G12G05G04G25G02
   1851888.69145   1453543.92243  24761424.3524                   24761427.0984
 -18145030.31247 -14118228.36744  22659134.1334                   22659133.7814
  -3377099.34047  -2620164.35544  23702366.9144                   23702366.7424
 -23477251.60948 -18271725.51646  21070609.4774                   21070607.0314
 -26037166.75848 -20263093.57847  20372218.9614                   20372216.9494
 -14802094.66046 -11506210.29743  24443502.3594                   24443503.7504
 -14997613.85548 -11664515.23046  21931188.8674                   21931189.4804
 -26975323.67647 -20996296.48446  21357833.6644                   21357829.6884
 11  8 27  1 19  0.0000000  0  8G26G10G29G12G05G04G25G02
   1747202.93046   1371970.84443  24741503.1174                   24741506.4804
 -18065216.99647 -14056036.20345  22674322.3524                   22674321.5204
  -3472611.41847  -2694589.30144  23684192.1954                   23684191.6214
 -23456283.06648 -18255386.39546  21074600.0634                   21074597.6604
 -26053604.64848 -20275902.30547  20369090.8594                   20369088.7234
 -14735678.54746 -11454457.56643  24456140.8914                   24456142.4344
 -15042061.63348 -11699149.85546  21922730.4694                   21922731.1024
 -26955608.68447 -20980934.15646  21361585.0784                   21361581.3874
 11  8 27  1 19 30.0000000  0  8G26G10G29G12G05G04G25G02
   1642437.94946   1290336.03543  24721567.0784                   24721569.7274
 -17985060.37547 -13993576.54345  22689575.5554                   22689574.5824
  -3568110.55547  -2769004.11344  23666018.6644                   23666019.0904
 -23434738.20348 -18238598.19146  21078699.7034                   21078697.0044
 -26069439.16848 -20288240.86747  20366077.5554                   20366075.6374
 -14669290.48046 -11402726.65643  24468773.0164                   24468775.7194
 -15085920.67248 -11733325.69946  21914384.4774                   21914385.1214
 -26935758.07047 -20965466.15246  21365362.6644                   21365358.8054
 11  8 27  1 20  0.0000000  0  8G26G10G29G12G05G04G25G02
   1537596.32046   1208641.50043  24701616.8754                   24701619.0664
 -17904563.42647 -13930851.66845  22704893.9454                   22704892.5004
  -3663595.77747  -2843408.08245  23647848.7734                   23647848.4064
 -23412618.79748 -18221362.30146  21082909.1334                   21082906.4384
 -26084670.53548 -20300109.43747  20363178.8284                   20363177.4144
 -14602931.05946 -11351018.09043  24481400.9694                   24481402.7464
 -15129190.14848 -11767042.15246  21906150.5634                   21906150.7074
 -26915772.22747 -20949892.76646  21369166.0394                   21369162.2734
 11  8 27  1 20 30.0000000  0  8G26G10G29G12G05G04G25G02
   1432680.93846   1126889.48443  24681651.8524                   24681654.5634
 -17823729.53147 -13867864.24245  22720275.8754                   22720274.9804
  -3759065.95747  -2917800.34845  23629681.5944                   23629681.0314
 -23389926.33248 -18203679.85546  21087226.9694                   21087224.7384
 -26099299.52048 -20311508.62947  20360395.5704                   20360393.3914
 -14536600.66847 -11299332.10243  24494024.7664                   24494024.9884
 -15171869.44148 -11800298.72346  21898028.9534                   21898029.3324
 -26895652.02747 -20934214.69546  21372995.0944                   21372990.8554
 11  8 27  1 21  0.0000000  0  8G26G10G29G12G05G04G25G02
   1327695.86746   1045083.15243  24661673.2974                   24661676.2074
 -17742560.22747 -13804615.48045  22735722.0784                   22735720.9224
  -3854518.25847  -2992178.68445  23611517.3284                   23611516.8634
 -23366660.87548 -18185550.93746  21091654.3984                   21091652.0944
 -26113324.99248 -20322437.54347  20357726.6024                   20357724.3404
 -14470298.17647 -11247667.83244  24506641.7194                   24506642.0944
 -15213956.07448 -11833093.47746  21890019.9224                   21890020.4734
 -26875396.76248 -20918431.37946  21376848.7424                   21376845.0474
 11  8 27  1 21 30.0000000  0  8G26G10G29G12G05G04G25G02
   1222643.56346    963224.45744  24641681.9924                   24641684.9454
 -17661059.27347 -13741108.28945  22751231.0864                   22751230.5164
  -3949952.27047  -3066542.75445  23593357.1484                   23593356.5124
 -23342824.76648 -18166977.35246  21096190.2584                   21096187.8714
 -26126748.41048 -20332897.32847  20355172.2344                   20355169.9774
 -14404024.69947 -11196026.18743  24519252.6724                   24519254.1994
 -15255449.97348 -11865426.35946  21882124.2114                   21882124.3794
 -26855007.80147 -20902543.87146  21380728.8524                   21380725.0234
 11  8 27  1 22  0.0000000  0  8G26G10G29G12G05G04G25G02
   1117526.46546    881315.28143  24621679.2344                   24621681.2034
 -17579229.76647 -13677345.08644  22766802.4454                   22766801.7074
  -4045366.92246  -3140891.77744  23575199.7194                   23575198.9144
 -23318419.76248 -18147960.47346  21100834.1804                   21100832.1334
 -26139570.42248 -20342888.48047  20352732.0784                   20352730.0514
 -14337780.44947 -11144407.30543  24531858.5234                   24531860.1564
 -15296350.45348 -11897296.84846  21874340.7974                   21874341.7544
 -26834485.80548 -20886552.72346  21384634.2974                   21384629.9454
 11  8 27  1 22 30.0000000  0  8G26G10G29G12G05G04G25G02
   1012346.65247    799357.19944  24601664.1644                   24601666.3594
 -17497075.47347 -13613328.79745  22782436.3594                   22782436.0164
  -4140762.07046  -3215225.59844  23557046.9384                   23557045.4104
 -23293448.69948 -18128502.51246  21105586.0474                   21105583.8324
 -26151792.85948 -20352412.44147  20350406.3134                   20350404.3094
 -14271566.80547 -11092812.27343  24544458.5944                   24544460.6134
 -15336657.69548 -11928705.07046  21866670.5634                   21866670.9964
 -26813832.47347 -20870459.21546  21388564.4614                   21388560.6054
 11  8 27  1 23  0.0000000  0  8G26G10G29G12G05G04G25G02
    907106.35946    717352.00043  24581637.2424                   24581639.3984
 -17414600.12547 -13549062.33645  22798130.6884                   22798130.3284
  -4236137.24246  -3289543.83244  23538896.8754                   23538896.4384
 -23267913.52048 -18108604.97746  21110445.0944                   21110443.2034
 -26163416.96948 -20361470.16447  20348194.2194                   20348192.0084
 -14205385.03947 -11041242.11343  24557052.4614                   24557054.0274
 -15376371.80148 -11959651.10246  21859113.1174                   21859113.8404
 -26793049.07448 -20854264.35946  21392519.1564                   21392515.1024
 11  8 27  1 23 30.0000000  0  8G26G10G29G12G05G04G25G02
    801809.14846    635302.46543  24561599.7584                   24561601.6764
 -17331805.81647 -13484547.34844  22813886.2814                   22813885.2734
  -4331489.95347  -3363844.54744  23520752.8364                   23520751.6914
 -23241815.21948 -18088268.66046  21115411.4924                   21115409.5554
 -26174442.53148 -20370061.49247  20346096.0944                   20346093.5274
 -14139234.76647 -10989696.47743  24569640.7274                   24569642.0204
 -15415491.05548 -11990133.61746  21851668.7194                   21851669.3404
 -26772135.48047 -20837968.04746  21396499.0704                   21396495.1884
 11  8 27  1 24  0.0000000  0  8G26G10G29G12G05G04G25G02
    696457.76646    553210.70743  24541551.4534                   24541553.6134
 -17248695.76247 -13419786.30144  22829701.6094                   22829701.0634
  -4426819.30147  -3438127.07844  23502611.5084                   23502610.5314
 -23215155.53548 -18067494.89146  21120484.7974                   21120482.6454
 -26184870.20748 -20378186.93047  20344111.8284                   20344109.4344
 -14073115.96146 -10938175.34043  24582222.5164                   24582223.6724
 -15454014.95748 -12020152.23046  21844337.9924                   21844338.9344
 -26751092.34847 -20821570.79346  21400502.9844                   21400499.6564
 11  8 27  1 24 30.0000000  0  8G26G10G29G12G05G04G25G02
    591054.09046    471078.20743  24521494.2194                   24521495.5944
 -17165274.12147 -13354782.48044  22845576.0004                   22845575.0704
  -4522125.13747  -3512391.30544  23484475.6174                   23484474.3634
 -23187937.18048 -18046285.79746  21125664.1484                   21125661.7194
 -26194701.74248 -20385847.85247  20342240.7894                   20342238.5434
 -14007030.18747 -10886679.98843  24594798.5554                   24594799.9574
 -15491943.84848 -12049707.19546  21837120.7194                   21837120.9964
 -26729921.32447 -20805073.89146  21404532.2664                   21404528.1884
 11  8 27  1 25  0.0000000  0  8G26G10G29G12G05G04G25G02
    485602.82046    388908.61343  24501426.8364                   24501429.0274
 -17081542.54747 -13289537.14144  22861509.3054                   22861508.7734
  -4617404.62147  -3586634.98444  23466344.1174                   23466343.8714
 -23160160.55548 -18024641.69546  21130950.5394                   21130947.8284
 -26203936.95348 -20393044.09847  20340483.6414                   20340480.6484
 -13940976.22346 -10835209.39843  24607368.1174                   24607369.4804
 -15529275.55148 -12078796.82446  21830016.7734                   21830016.7504
 -26708621.56247 -20788476.67246  21408585.2504                   21408581.4804
 11  8 27  1 25 30.0000000  0  8G26G10G29G12G05G04G25G02
    380105.75046    306703.31643  24481351.1094                   24481353.4844
 -16997504.83247 -13224053.24644  22877501.5394                   22877500.7274
  -4712657.10247  -3660857.62544  23448217.6724                   23448217.6024
 -23131828.44148 -18002564.73846  21136341.6484                   21136339.0664
 -26212577.37148 -20399776.87547  20338839.2584                   20338836.8914
 -13874955.03146 -10783764.39843  24619931.6724                   24619932.8714
 -15566010.46148 -12107421.41846  21823026.1414                   21823026.5084
 -26687194.71947 -20771780.42646  21412663.0234                   21412658.8244
 11  8 27  1 26  0.0000000  0  8G26G10G29G12G05G04G25G02
    274564.30146    224463.43042  24461266.5704                   24461268.6334
 -16913165.52747 -13158334.35244  22893550.8204                   22893550.0824
  -4807883.44547  -3735059.89544  23430097.5554                   23430096.5474
 -23102943.77748 -17980057.22746  21141838.2114                   21141835.6214
 -26220624.89548 -20406047.64847  20337307.7814                   20337305.6764
 -13808968.75446 -10732346.56242  24632488.2974                   24632489.9264
 -15602149.37948 -12135581.60546  21816148.9454                   21816149.7974
 -26665642.68448 -20754986.62546  21416763.7274                   21416760.1134
 11  8 27  1 26 30.0000000  0  8G26G10G29G12G05G04G25G02
    168982.98046    142192.46543  24441174.8134                   24441176.8404
 -16828526.41047 -13092381.82044  22909657.3914                   22909656.7774
  -4903080.68747  -3809239.51245  23411981.9064                   23411980.8674
 -23073507.45748 -17957119.85546  21147440.0474                   21147437.4534
 -26228079.58648 -20411856.48847  20335889.2424                   20335886.8984
 -13743016.32047 -10680955.05943  24645038.7114                   24645040.5984
 -15637690.50448 -12163275.98846  21809385.7344                   21809386.5204
 -26643964.94547 -20738094.87946  21420889.1024                   21420884.8594
 11  8 27  1 27  0.0000000  0  8G26G10G29G12G05G04G25G02
     63363.75046     59891.93843  24421077.6884                   24421078.5554
 -16743591.14547 -13026198.53544  22925819.7814                   22925818.5664
  -4998248.33247  -3883396.07445  23393872.8914                   23393871.1994
 -23043522.00048 -17933754.57446  21153145.8524                   21153143.7074
 -26234942.80148 -20417204.43047  20334583.2974                   20334580.9184
 -13677098.53547 -10629590.45342  24657582.0944                   24657582.9494
 -15672634.07848 -12190504.74246  21802736.1254                   21802736.4844
 -26622162.69547 -20721106.10246  21425038.0554                   21425033.7664
 11  8 27  1 27 30.0000000  0  8G26G10G29G12G05G04G25G02
    -42290.04347    -22435.50043  24400971.4694                   24400973.2734
 -16658362.43047 -12959786.58644  22942038.5474                   22942037.2384
  -5093384.55947  -3957528.14845  23375768.4454                   23375767.4694
 -23012988.78948 -17909962.48446  21158955.9774                   21158954.0394
 -26241215.46148 -20422092.21147  20333389.5394                   20333387.5474
 -13611215.63346 -10578253.07442  24670119.6024                   24670119.3794
 -15706979.31248 -12217267.25846  21796200.5314                   21796201.0944
 -26600236.18448 -20704020.50446  21429210.5084                   21429206.3984
 11  8 27  1 28  0.0000000  0  8G26G10G29G12G05G04G25G02
   -147975.97347   -104787.99643  24380860.5164                   24380861.4494
 -16572843.63746 -12893148.61744  22958312.2274                   22958311.1484
  -5188488.63747  -4031635.16045  23357670.2894                   23357670.3404
 -22981910.26648 -17885745.47746  21164869.9534                   21164867.4924
 -26246898.78148 -20426520.75047  20332308.1884                   20332305.2734
 -13545368.02346 -10526943.28942  24682650.2974                   24682651.0824
 -15740726.12548 -12243563.47746  21789778.8914                   21789779.5044
 -26578186.44948 -20686838.89546  21433406.4694                   21433402.3714
 11  8 27  1 28 30.0000000  0  8G26G10G29G12G05G04G25G02
   -253690.27047   -187162.60244  24360742.9844                   24360744.5864
 -16487037.07046 -12826286.39844  22974640.4454                   22974640.0514
  -5283558.64147  -4105715.59845  23339579.0314                   23339578.7624
 -22950287.56648 -17861104.42246  21170887.7664                   21170885.3164
 -26251992.81648 -20430490.11747  20331338.9144                   20331336.3284
 -13479555.63746 -10475660.97743  24695172.6804                   24695174.5164
 -15773873.43048 -12269392.55146  21783471.2504                   21783471.8134
 -26556013.66848 -20669561.39546  21437625.3674                   21437621.4884
 11  8 27  1 29  0.0000000  0  8G26G10G29G12G05G04G25G02
   -359431.68747   -269558.32043  24340620.9534                   24340622.8094
 -16400947.26246 -12759203.48044  22991023.1094                   22991021.9574
  -5378594.68747  -4179769.59844  23321494.3204                   23321493.7464
 -22918124.43748 -17836042.27346  21177008.1174                   21177005.9344
 -26256500.10548 -20434002.28147  20330481.3054                   20330478.9694
 -13413780.03145 -10424407.35542  24707688.8834                   24707690.7194
 -15806422.29348 -12294755.30546  21777277.2814                   21777277.5904
 -26533719.61348 -20652189.41046  21441868.2274                   21441864.0124
 11  8 27  1 29 30.0000000  0  8G26G10G29G12G05G04G25G02
   -465196.84847   -351972.54744  24320494.5314                   24320496.6564
 -16314577.18746 -12691902.16844  23007458.5474                   23007457.9884
  -5473595.17247  -4253795.90645  23303416.1644                   23303415.0314
 -22885422.39548 -17810560.18746  21183231.0634                   21183228.9344
 -26260421.66048 -20437058.02347  20329734.6484                   20329732.2424
 -13348041.19545 -10373182.43042  24720199.6334                   24720200.6684
 -15838372.17248 -12319651.31646  21771197.5704                   21771198.1644
 -26511304.76248 -20634723.29746  21446133.5314                   21446129.6604
 11  8 27  1 30  0.0000000  0  8G26G10G29G12G05G04G25G02
   -570982.74247   -434402.94144  24300364.4774                   24300365.5554
 -16227929.36747 -12624384.41844  23023947.1094                   23023946.6724
  -5568558.50047  -4327793.26245  23285346.0394                   23285344.0044
 -22852183.56248 -17784659.81246  21189556.2584                   21189553.7544
 -26263758.39148 -20439658.05547  20329099.9844                   20329097.4414
 -13282339.59446 -10321986.41043  24732703.2194                   24732704.5744
 -15869722.49248 -12344080.14146  21765231.7584                   21765232.5664
 -26488769.45748 -20617163.31646  21450421.8444                   21450418.1334
 11  8 27  1 30 30.0000000  0  7G26G10G29G12G05G25G02
   -676786.42647   -516847.19544  24280230.3754                   24280232.2234
 -16141007.65647 -12556653.27044  23040488.0234                   23040487.3094
  -5663484.16047  -4401761.26644  23267281.0944                   23267280.4414
 -22818410.15648 -17758342.89846  21195983.1644                   21195980.8404
 -26266511.32048 -20441803.18047  20328575.9694                   20328573.8484
 -15900473.32448 -12368041.82846  21759379.9144                   21759380.2504
 -26466114.67648 -20599510.23446  21454732.9614                   21454728.7774
 11  8 27  1 31  0.0000000  0  7G26G10G29G12G05G25G02
   -782604.62146   -599302.75844  24260092.9774                   24260095.4414
 -16053814.12146 -12488710.29344  23057080.2974                   23057079.3134
  -5758369.79347  -4475698.05144  23249225.1564                   23249224.7544
 -22784103.64548 -17731610.57446  21202511.1954                   21202509.2504
 -26268681.50448 -20443494.21947  20328162.7114                   20328160.5984
 -15930623.75448 -12391535.66046  21753642.4144                   21753643.2304
 -26443340.53948 -20581764.16446  21459066.5234                   21459062.6804
 11  8 27  1 31 30.0000000  0  7G26G10G29G12G05G25G02
   -888432.50846   -681765.85543  24239954.5314                   24239956.1564
 -15966350.27346 -12420556.69944  23073724.0234                   23073723.8444
  -5853212.62947  -4549601.49644  23231176.9304                   23231176.4804
 -22749264.35548 -17704463.09446  21209140.9774                   21209139.0164
 -26270268.21548 -20444730.60247  20327861.1094                   20327858.6254
 -15960171.93448 -12414560.20746  21748019.5164                   21748020.0314
 -26420445.60948 -20563923.96546  21463423.3364                   21463419.5204
 11  8 27  1 32  0.0000000  0  7G26G10G29G12G05G25G02
   -994263.76646   -764231.57443  24219815.3754                   24219816.9774
 -15878615.91447 -12352192.30544  23090419.2814                   23090418.9104
  -5948007.69947  -4623467.71544  23213138.2114                   23213137.3054
 -22713890.87948 -17676899.36346  21215872.8984                   21215870.2934
 -26271269.15248 -20445510.53547  20327670.4064                   20327668.0824
 -15989114.13748 -12437112.57446  21742512.4224                   21742512.8954
 -26397427.35948 -20545987.66446  21467803.3984                   21467799.3324
 11  8 27  1 32 30.0000000  0  7G26G10G29G12G05G25G02
  -1100096.66446   -846698.58243  24199676.6024                   24199677.9264
 -15790615.11747 -12283620.28944  23107166.0234                   23107165.2504
  -6042754.98847  -4697296.72745  23195109.1254                   23195107.2934
 -22677986.96548 -17648922.30946  21222705.0554                   21222702.8014
 -26271686.87548 -20445836.01247  20327590.8204                   20327588.5904
 -16017451.48048 -12459193.61346  21737119.6644                   21737120.4494
 -26374287.49248 -20527956.59446  21472206.9924                   21472203.0634
 11  8 27  1 33  0.0000000  0  7G26G10G29G12G05G25G02
  -1205928.37146   -929164.66843  24179536.8284                   24179537.8874
 -15702351.45747 -12214843.44144  23123961.8834                   23123961.1954
  -6137453.46947  -4771087.72345  23177088.2034                   23177086.5664
 -22641554.59048 -17620533.46146  21229637.9694                   21229635.2894
 -26271522.59848 -20445707.98447  20327622.7034                   20327619.8324
 -16045184.06648 -12480803.41046  21731842.4924                   21731842.7934
 -26351026.72748 -20509831.31646  21476633.6564                   21476629.4304
 11  8 27  1 33 30.0000000  0  7G26G10G29G12G05G25G02
  -1311755.19147  -1011626.92243  24159399.0784                   24159399.6484
 -15613827.41847 -12145863.71944  23140806.9844                   23140805.9964
  -6232101.10947  -4844839.09045  23159077.2274                   23159075.4104
 -22604595.20748 -17591733.96546  21236671.1644                   21236668.6764
 -26270777.14148 -20445127.08647  20327764.1644                   20327761.4534
 -16072311.18748 -12501941.41846  21726680.2664                   21726680.5274
 -26327645.05948 -20491611.83646  21481083.1024                   21481078.9104
 11  8 27  1 34  0.0000000  0  7G26G10G29G12G05G25G02
  -1417575.09847  -1094083.85943  24139262.3204                   24139262.7814
 -15525046.68747 -12076683.96944  23157702.0164                   23157700.8014
  -6326697.54347  -4918550.55545  23141076.1724                   23141075.0984
 -22567112.78548 -17562526.89546  21243803.4534                   21243801.0434
 -26269452.71148 -20444095.04747  20328016.1414                   20328013.7934
 -16098833.70348 -12522608.29746  21721633.2274                   21721633.6094
 -26304144.24648 -20473299.50846  21485554.8594                   21485550.8054
 11  8 27  1 34 30.0000000  0  7G26G10G29G12G05G25G02
  -1523387.09847  -1176534.62943  24119126.7504                   24119127.6334
 -15436014.27347 -12007308.09044  23174644.0944                   23174643.1914
  -6421243.18047  -4992222.40245  23123084.5314                   23123083.9614
 -22529111.34848 -17532915.39846  21251035.3204                   21251032.8204
 -26267552.69148 -20442614.49247  20328377.6724                   20328374.9574
 -16124753.44548 -12542805.48846  21716700.9924                   21716701.4884
 -26280526.70748 -20454896.22746  21490049.2814                   21490045.0514
 11  8 27  1 35  0.0000000  0  7G26G10G29G12G05G25G02
  -1629187.52747  -1258976.35543  24098992.9924                   24098993.4694
 -15346732.87547 -11937738.21144  23191633.7274                   23191632.8444
  -6515736.01647  -5065853.11745  23105103.4454                   23105102.6174
 -22490592.18748 -17502900.48446  21258364.9614                   21258362.7774
 -26265077.46548 -20440685.72347  20328848.4694                   20328846.3054
 -16150069.76648 -12562532.47746  21711883.1254                   21711884.0084
 -26256792.34448 -20436401.91046  21494565.6094                   21494561.5554
 11  8 27  1 35 30.0000000  0  7G26G10G29G12G05G25G02
  -1734973.53947  -1341406.87943  24078862.5474                   24078863.4384
 -15257205.59847 -11867976.73044  23208670.2274                   23208669.4224
  -6610175.12147  -5139441.98445  23087132.5314                   23087131.3554
 -22451557.57048 -17472483.91846  21265793.0554                   21265791.0514
 -26262028.87948 -20438310.18447  20329428.7344                   20329426.3594
 -16174782.95748 -12581789.49246  21707180.4534                   21707180.9344
 -26232941.64148 -20417816.94546  21499104.4384                   21499100.0864
 11  8 27  1 36  0.0000000  0  7G26G10G29G12G05G25G02
  -1840743.32047  -1423824.73844  24058735.0554                   24058735.8094
 -15167436.46947 -11798026.78944  23225752.7814                   23225751.2854
  -6704560.23047  -5212988.76645  23069171.2424                   23069169.7774
 -22412011.39848 -17441668.73446  21273318.3524                   21273315.8754
 -26258409.35948 -20435489.76247  20330117.3204                   20330114.8834
 -16198894.11748 -12600577.39846  21702592.1174                   21702592.5164
 -26208976.65648 -20399142.92246  21503665.0084                   21503660.7624
 11  8 27  1 36 30.0000000  0  7G26G10G29G12G05G25G02
  -1946493.01647  -1506226.93044  24038611.2194                   24038612.6524
 -15077428.35547 -11727890.62144  23242880.4694                   23242880.0084
  -6798889.44947  -5286492.00045  23051220.3914                   23051219.7894
 -22371955.52048 -17410456.38346  21280940.5784                   21280938.7664
 -26254219.70748 -20432225.07847  20330914.7814                   20330912.5984
 -16222402.83248 -12618895.85946  21698118.7424                   21698119.4534
 -26184897.34848 -20380379.82046  21508246.4924                   21508242.7544
 11  8 27  1 37  0.0000000  0  7G26G10G29G12G05G25G02
  -2052219.86747  -1588611.32844  24018491.8914                   24018493.0044
 -14987184.06647 -11657570.42243  23260053.3054                   23260053.1954
  -6893161.00047  -5359950.27745  23033281.1724                   23033280.2274
 -22331391.81648 -17378848.31246  21288659.8284                   21288657.8094
 -26249461.55948 -20428517.41447  20331819.9224                   20331817.7734
 -16245309.07848 -12636744.87146  21693760.2894                   21693760.3674
 -26160704.29748 -20361528.07846  21512850.8284                   21512846.5044
 11  8 27  1 37 30.0000000  0  7G26G10G29G12G05G25G02
  -2157921.45746  -1670976.03144  23998377.5944                   23998379.0354
 -14896707.56647 -11587069.29344  23277270.3054                   23277270.5744
  -6987374.57847  -5433363.37945  23015353.0944                   23015351.8594
 -22290323.89848 -17346847.35546  21296475.1334                   21296472.8444
 -26244137.29348 -20424368.62547  20332833.4144                   20332831.5314
 -16267613.89848 -12654125.23846  21689515.2584                   21689515.5824
 -26136398.66448 -20342588.62146  21517475.7894                   21517471.5354
 11  8 27  1 38  0.0000000  0  7G26G10G29G12G05G25G02
  -2263594.63746  -1753318.57444  23978268.0084                   23978270.0354
 -14806001.64547 -11516389.37143  23294531.5084                   23294530.5164
  -7081528.52747  -5506730.02045  22997436.1804                   22997435.3754
 -22248753.82448 -17314455.11746  21304385.5164                   21304383.1804
 -26238247.80548 -20419779.39847  20333954.1334                   20333951.8834
 -16289317.26248 -12671036.93746  21685385.4224                   21685385.7664
 -26111980.97348 -20323561.84446  21522122.2344                   21522118.1454
 11  8 27  1 38 30.0000000  0  7G26G10G29G12G05G25G02
  -2369236.05946  -1835636.37543  23958165.2114                   23958167.0124
 -14715069.12147 -11445532.88344  23311835.7034                   23311835.1804
  -7175621.21547  -5580048.92645  22979530.7344                   22979529.9344
 -22206683.87148 -17281673.35946  21312390.9844                   21312388.9064
 -26231794.68048 -20414750.96947  20335182.0944                   20335179.3364
 -16310419.08248 -12687479.91446  21681370.1334                   21681370.2304
 -26087451.26648 -20304447.78946  21526790.2424                   21526786.3444
 11  8 27  1 39  0.0000000  0  7G26G10G29G12G05G25G02
  -2474842.12546  -1917926.61744  23938069.2814                   23938071.2194
 -14623912.60547 -11374501.85244  23329181.9224                   23329181.4144
  -7269650.78547  -5653318.64545  22961637.6564                   22961636.6884
 -22164115.70348 -17248503.37146  21320491.5784                   21320489.1564
 -26224778.64848 -20409283.92647  20336517.1334                   20336514.7934
 -16330918.84848 -12703453.75046  21677468.8594                   21677469.1954
 -26062809.55548 -20285246.45346  21531479.2424                   21531475.2114
 11  8 27  1 39 30.0000000  0  7G26G10G29G12G05G25G02
  -2580410.78146  -2000187.71944  23917979.6414                   23917980.9224
 -14532536.03147 -11303299.34444  23346570.3524                   23346569.1724
  -7363616.30947  -5726538.46945  22943756.0004                   22943754.7934
 -22121052.59048 -17214947.71146  21328686.1414                   21328683.8054
 -26217202.19148 -20403380.18747  20337958.8364                   20337956.3324
 -16350817.79348 -12718959.42246  21673682.2584                   21673682.7304
 -26038057.47348 -20265959.12146  21536189.6644                   21536185.2344
 11  8 27  1 40  0.0000000  0  7G26G10G29G12G05G25G02
  -2685938.24646  -2082416.74244  23897899.0084                   23897899.8594
 -14440941.87547 -11231927.28544  23364000.7114                   23363999.3284
  -7457515.96947  -5799706.98445  22925888.5314                   22925886.4454
 -22077496.68748 -17181008.07046  21336974.5084                   21336972.3244
 -26209066.34048 -20397040.55547  20339507.2344                   20339504.5944
 -16370115.73448 -12733996.78546  21670009.8674                   21670010.4614
 -26013194.94948 -20246585.73446  21540920.6644                   21540916.5784
 11  8 27  1 40 30.0000000  0  7G26G10G29G12G05G25G02
  -2791421.73846  -2164611.50444  23877825.6024                   23877826.9574
 -14349133.50047 -11160388.31244  23381470.5864                   23381470.1994
  -7551348.98047  -5872823.55145  22908032.0634                   22908030.4534
 -22033450.60248 -17146686.47346  21345356.3594                   21345354.2814
 -26200373.27348 -20390266.73047  20341161.4844                   20341159.0944
 -16388813.37548 -12748566.37946  21666452.0314                   21666452.3834
 -25988222.91048 -20227127.01646  21545672.7114                   21545668.3484
 11  8 27  1 41  0.0000000  0  7G26G10G29G12G05G25G02
  -2896858.26246  -2246769.67644  23857762.1804                   23857762.9304
 -14257114.12947 -11088684.91844  23398981.3754                   23398980.8484
  -7645113.78947  -5945886.96145  22890189.0164                   22890187.6684
 -21988917.44548 -17111985.34046  21353830.8134                   21353828.8794
 -26191124.53548 -20383059.91447  20342921.4844                   20342919.0474
 -16406911.00048 -12762668.43446  21663007.9614                   21663008.4344
 -25963141.79348 -20207583.30146  21550445.5394                   21550441.3404
 11  8 27  1 41 30.0000000  0  7G26G10G29G12G05G25G02
  -3002246.17647  -2328889.98044  23837706.8674                   23837708.4384
 -14164888.12147 -11016820.53144  23416531.4224                   23416531.1564
  -7738810.29747  -6018897.15645  22872359.2584                   22872357.7934
 -21943901.00048 -17076907.60946  21362397.1024                   21362394.9304
 -26181323.14148 -20375422.45747  20344786.4924                   20344783.9654
 -16424410.37148 -12776304.31646  21659677.9614                   21659678.3674
 -25937953.49248 -20187956.06646  21555238.9454                   21555234.9144
 11  8 27  1 42  0.0000000  0  7G26G10G29G12G05G25G02
  -3107582.14147  -2410969.82844  23817662.4304                   23817662.9574
 -14072458.31247 -10944797.32044  23434119.8674                   23434120.4184
  -7832436.78547  -6091852.79345  22854542.7814                   22854541.5084
 -21898403.45748 -17041454.99646  21371054.9224                   21371053.2854
 -26170970.75848 -20367355.66047  20346756.4454                   20346753.9024
 -16441311.64848 -12789474.15246  21656461.5634                   21656462.7234
 -25912658.46148 -20168245.67646  21560052.1414                   21560048.1684
 11  8 27  1 42 30.0000000  0  7G26G10G29G12G05G25G02
  -3212861.53547  -2493005.59044  23797628.3594                   23797628.2934
 -13979825.84447 -10872616.21544  23451747.0004                   23451746.9574
  -7925990.30547  -6164751.59445  22836740.3204                   22836738.5084
 -21852426.03548 -17005628.46146  21379804.5314                   21379802.4144
 -26160067.48448 -20358859.59447  20348831.2664                   20348828.9144
 -16457613.83648 -12802177.17646  21653359.4064                   21653360.4884
 -25887255.32448 -20148451.04746  21564886.4454                   21564882.4654
 11  8 27  1 43  0.0000000  0  7G26G10G29G12G05G25G02
  -3318081.97347  -2574995.42243  23777605.1644                   23777605.4344
 -13886994.77347 -10800280.33644  23469412.9924                   23469412.4384
  -8019470.08247  -6237592.91845  22818951.5554                   22818950.0084
 -21805971.73448 -16969430.32846  21388644.0084                   21388642.2624
 -26148615.66048 -20349936.09847  20351010.4534                   20351007.7934
 -16473318.00048 -12814414.19946  21650370.9774                   21650371.6764
 -25861745.66048 -20128573.40646  21569740.6954                   21569736.5314
 11  8 27  1 43 30.0000000  0  7G26G10G29G12G05G25G02
  -3423240.90646  -2656937.33643  23757594.5084                   23757593.9534
 -13793969.09447 -10727792.84043  23487114.9844                   23487114.2194
  -8112875.23847  -6310376.09045  22801176.9844                   22801175.5314
 -21759043.89548 -16932863.19546  21397574.1564                   21397572.4654
 -26136617.42248 -20340586.80947  20353293.3914                   20353291.0514
 -16488425.12948 -12826186.01246  21647496.3914                   21647496.9694
 -25836130.35248 -20108613.45346  21574614.9774                   21574610.9804
 11  8 27  1 44  0.0000000  0  7G26G10G29G12G05G25G02
  -3528333.69946  -2738827.69944  23737594.9454                   23737596.0864
 -13700750.27047 -10655154.83243  23504853.8134                   23504853.6094
  -8206202.87947  -6383098.85945  22783417.0704                   22783415.7114
 -21711643.63347 -16895927.94146  21406594.2584                   21406592.4734
 -26124073.22748 -20330812.10247  20355680.6484                   20355678.7504
 -16502934.41048 -12837491.96146  21644735.4064                   21644736.1024
 -25810408.42648 -20088570.42246  21579509.8284                   21579505.8634
 11  8 27  1 44 30.0000000  0  7G26G10G29G12G05G25G02
  -3633357.71946  -2820664.48443  23717609.1334                   23717609.9614
 -13607341.37547 -10582368.71944  23522628.8834                   23522628.4774
  -8299451.82847  -6455760.29745  22765672.8834                   22765671.2934
 -21663774.38347 -16858627.23446  21415703.7034                   21415701.1994
 -26110985.18048 -20320613.61347  20358171.4454                   20358168.9414
 -16516846.77348 -12848332.77346  21642087.8054                   21642088.8524
 -25784581.07448 -20068445.24246  21584424.8914                   21584420.4144
 11  8 27  1 45  0.0000000  0  8G26G10G29G12G05G15G25G02
  -3738309.81646  -2902445.22343  23697638.0394                   23697638.5554
 -13513745.55147 -10509436.92244  23540440.2194                   23540439.2304
  -8392620.53947  -6528359.23045  22747942.9694                   22747941.4924
 -21615438.45348 -16820962.88346  21424901.6884                   21424899.5164
 -26097355.43748 -20309993.02747  20360764.6484                   20360762.6564
   2997772.55556   2346451.61353  24618545.2734                   24618549.8134
 -16530162.73848 -12858708.86746  21639554.2664                   21639554.6884
 -25758648.42648 -20048238.00846  21589359.4064                   21589355.2464
 11  8 27  1 45 30.0000000  0  8G26G10G29G12G05G15G25G02
  -3843188.77746  -2984168.97344  23677680.1644                   23677680.8094
 -13419968.02747 -10436363.58244  23558285.5864                   23558284.4884
  -8485709.80547  -6600896.27345  22730228.7734                   22730227.4494
 -21566640.81247 -16782938.76246  21434187.3524                   21434185.4734
 -26083187.59848 -20298953.13747  20363460.7424                   20363458.5784
   2894370.49646   2265878.90243  24598868.7974                   24598872.9414
 -16542884.97348 -12868622.31246  21637132.9774                   21637133.8054
 -25732613.31248 -20027950.92646  21594313.7974                   21594309.2814
 11  8 27  1 46  0.0000000  0  8G26G10G29G12G05G15G25G02
  -3947994.59046  -3065835.72344  23657736.4384                   23657737.1134
 -13326014.59447 -10363153.14544  23576163.9694                   23576163.0434
  -8578720.84447  -6673372.34445  22712528.9924                   22712527.5594
 -21517386.93047 -16744559.12946  21443560.3914                   21443558.2624
 -26068486.62148 -20287497.81647  20366258.3674                   20366256.0204
   2790852.04346   2185215.48444  24579170.2114                   24579172.9224
 -16555017.02048 -12878075.86346  21634824.4844                   21634824.8954
 -25706478.70748 -20007586.32046  21599286.7734                   21599282.8834
 11  8 27  1 46 30.0000000  0  8G26G10G29G12G05G15G25G02
  -4052725.19146  -3147443.85944  23637806.3984                   23637807.2234
 -13231889.55947 -10289808.99244  23594075.6804                   23594075.0314
  -8671653.66047  -6745787.48045  22694844.6334                   22694843.6214
 -21467680.94547 -16705827.21146  21453019.0634                   21453016.8914
 -26053255.58648 -20275629.46547  20369157.0634                   20369154.6844
   2687217.90246   2104461.91844  24559448.9534                   24559451.8874
 -16566560.92648 -12887071.12546  21632627.9224                   21632627.9964
 -25680246.78148 -19987145.87946  21604278.9144                   21604274.8014
 11  8 27  1 47  0.0000000  0  8G26G10G29G12G05G15G25G02
  -4157375.23446  -3228989.25044  23617891.7424                   23617892.0784
 -13137594.11747 -10216332.07043  23612019.3594                   23612018.7624
  -8764504.21147  -6818138.50445  22677175.9844                   22677174.5204
 -21417523.60248 -16666743.58246  21462563.4694                   21462561.6294
 -26037494.02748 -20263347.71947  20372155.9384                   20372153.7304
   2583472.69947   2023621.79743  24539707.6174                   24539709.8324
 -16577515.03148 -12895606.80546  21630543.3914                   21630543.7894
 -25653915.65248 -19966628.12546  21609289.3674                   21609285.4734
 11  8 27  1 47 30.0000000  0  8G26G10G29G12G05G15G25G02
  -4261940.08246  -3310468.23444  23597994.4694                   23597994.8914
 -13043129.34847 -10142723.19943  23629995.3524                   23629994.3244
  -8857269.32447  -6890422.96945  22659523.2504                   22659522.1684
 -21366915.47747 -16627308.70346  21472193.6724                   21472192.2424
 -26021202.28148 -20250652.83247  20375256.1414                   20375254.0394
   2479620.02346   1942697.91843  24519944.4064                   24519946.1884
 -16587878.45348 -12903682.19146  21628571.2504                   21628571.7234
 -25627483.94948 -19946032.00446  21614319.3674                   21614315.3874
 11  8 27  1 48  0.0000000  0  8G26G10G29G12G05G15G25G02
  -4366417.18747  -3391878.85544  23578112.7114                   23578113.2704
 -12948498.72747 -10068985.09843  23648002.8134                   23648002.6294
  -8949948.05547  -6962640.13345  22641886.8364                   22641885.6294
 -21315860.46547 -16587525.59846  21481909.3134                   21481907.6334
 -26004383.14548 -20237546.99647  20378456.9694                   20378454.4184
   2375661.86346   1861691.85244  24500160.7274                   24500163.4184
 -16597652.55948 -12911298.38346  21626711.2114                   21626711.5554
 -25600952.81247 -19925358.40246  21619368.5314                   21619363.6684
 11  8 27  1 48 30.0000000  0  8G26G10G29G12G05G15G25G02
  -4470802.57447  -3473218.02344  23558248.8674                   23558249.1214
 -12853704.70347  -9995119.66444  23666041.2194                   23666041.3164
  -9042538.32047  -7034788.35245  22624267.3914                   22624265.8094
 -21264360.40247 -16547395.69146  21491709.3834                   21491707.8094
 -25987037.67648 -20224031.03147  20381757.5704                   20381755.1954
   2271600.55946   1780605.42643  24480358.5554                   24480361.2624
 -16606837.43048 -12918455.43446  21624963.3364                   21624963.9654
 -25574322.41848 -19904607.44946  21624435.6484                   21624431.6724
 11  8 27  1 49  0.0000000  0  8G26G10G29G12G05G15G25G02
  -4575091.06247  -3554481.68444  23538403.3754                   23538403.7624
 -12758747.98447  -9921127.46544  23684111.3674                   23684111.0474
  -9135036.63747  -7106864.93045  22606666.0944                   22606664.3164
 -21212416.36747 -16506919.84046  21501593.8754                   21501592.4534
 -25969165.77348 -20210104.85547  20385158.5394                   20385156.2664
   2167440.45746   1699442.02043  24460537.3984                   24460539.9924
 -16615431.82848 -12925152.36346  21623327.8984                   21623328.6484
 -25547590.55948 -19883777.42246  21629522.4614                   21629518.3594
 11  8 27  1 49 30.0000000  0  8G26G10G29G12G05G15G25G02
  -4679281.73047  -3635669.10944  23518576.2274                   23518576.8404
 -12663634.07846  -9847012.78943  23702210.7584                   23702210.8244
  -9227443.75847  -7178870.44945  22589080.6024                   22589079.6644
 -21160033.14847 -16466101.77746  21511562.2894                   21511560.1604
 -25950771.77348 -20195771.85247  20388658.6564                   20388656.4844
   2063182.05546   1618201.96143  24440697.8134                   24440699.9064
 -16623438.88748 -12931391.62946  21621804.3364                   21621805.1374
 -25520760.12947 -19862870.60246  21634628.1644                   21634624.2384
 11  8 27  1 50  0.0000000  0  8G26G10G29G12G05G15G25G02
  -4783369.73847  -3716776.55544  23498769.0084                   23498769.3014
 -12568364.28547  -9772776.66444  23720340.4534                   23720340.2194
  -9319756.44147  -7250802.38345  22571514.4924                   22571513.5434
 -21107212.32448 -16424942.70746  21521613.9924                   21521611.8444
 -25931856.03148 -20181032.29747  20392258.1414                   20392255.7624
   1958828.94946   1536888.16443  24420839.8444                   24420842.1954
 -16630857.77348 -12937172.57446  21620392.4064                   21620392.7734
 -25493829.91047 -19841886.01246  21639752.7344                   21639748.8204
 11  8 27  1 50 30.0000000  0  8G26G10G29G12G05G15G25G02
  -4887351.36747  -3797801.10244  23478982.0164                   23478982.8284
 -12472940.91447  -9698420.85244  23738499.0164                   23738498.5594
  -9411972.17247  -7322658.75845  22553966.7734                   22553964.8014
 -21053956.03948 -16383444.32046  21531748.5784                   21531746.6174
 -25912419.76648 -20165887.13747  20395956.4454                   20395954.5634
   1854383.34046   1455502.28543  24400963.1254                   24400965.6334
 -16637688.86748 -12942495.50446  21619092.0234                   21619093.0864
 -25466799.65647 -19820823.48046  21644896.5944                   21644892.5234
 11  8 27  1 51  0.0000000  0  8G26G10G29G12G05G15G25G02
  -4991224.21547  -3878740.87144  23459215.8134                   23459215.8984
 -12377368.05147  -9623948.56643  23756685.8594                   23756685.8914
  -9504090.39147  -7394439.15645  22536436.8524                   22536434.8054
 -21000267.90648 -16341609.43446  21541964.8674                   21541963.0784
 -25892466.28548 -20150338.95747  20399753.7664                   20399751.2894
   1749847.23846   1374045.92243  24381071.0864                   24381072.8524
 -16643933.82848 -12947361.70346  21617903.9384                   21617904.7464
 -25439671.00048 -19799684.26246  21650058.4144                   21650054.8634
 11  8 27  1 51 30.0000000  0  8G26G10G29G12G05G15G25G02
  -5094984.52747  -3959592.97344  23439470.5394                   23439470.7464
 -12281647.86746  -9549361.46543  23774900.2194                   23774900.9454
  -9596108.86747  -7466141.84845  22518926.4774                   22518924.5354
 -20946150.22348 -16299439.82846  21552263.1954                   21552261.0084
 -25871997.10248 -20134388.92647  20403648.7814                   20403646.6914
   1645223.25046   1292521.00843  24361161.6174                   24361163.5354
 -16649593.06648 -12951771.49646  21616827.0704                   21616828.0784
 -25412443.74648 -19778468.22746  21655240.0314                   21655236.2274
 11  8 27  1 52  0.0000000  0  8G26G10G29G12G05G15G25G02
  -5198627.88747  -4040353.92244  23419747.9924                   23419747.9304
 -12185782.24646  -9474661.05943  23793143.2424                   23793143.2074
  -9688025.09447  -7537764.84045  22501435.0704                   22501433.7664
 -20891604.79748 -16256936.91446  21562642.4614                   21562641.0394
 -25851012.66448 -20118037.40247  20407642.1724                   20407639.7114
   1540514.86347   1210930.35943  24341236.2734                   24341238.0744
 -16654666.37948 -12955724.72746  21615862.0234                   21615862.0704
 -25385117.01247 -19757174.67246  21660439.8134                   21660436.3594
 11  8 27  1 52 30.0000000  0  8G26G10G29G12G05G15G25G02
  -5302151.47347  -4121021.55944  23400047.5634                   23400048.0314
 -12089774.09847  -9399849.57444  23811413.1254                   23811412.5084
  -9779837.66047  -7609307.04345  22483963.8284                   22483962.4534
 -20836634.80547 -16214103.17646  21573103.1884                   21573100.8524
 -25829515.53948 -20101286.38347  20411732.6644                   20411730.6214
   1435724.17247   1129275.56343  24321294.9774                   24321296.3364
 -16659155.05148 -12959222.38346  21615008.0784                   21615008.3954
 -25357691.38347 -19735804.05946  21665658.7664                   21665655.2734
 11  8 27  1 53  0.0000000  0  8G26G10G29G12G05G15G25G02
  -5405551.28147  -4201592.73044  23380371.3754                   23380371.8284
 -11993625.91447  -9324928.95743  23829710.2114                   23829709.0904
  -9871544.03547  -7680766.50445  22466512.6024                   22466510.9614
 -20781242.43447 -16170940.31246  21583643.8914                   21583642.0984
 -25807507.38348 -20084137.16047  20415921.0784                   20415918.3714
   1330854.13747   1047558.94544  24301338.6954                   24301340.3524
 -16663059.42648 -12962264.73846  21614264.6564                   21614265.1524
 -25330166.80147 -19714356.33646  21670896.6644                   21670892.7854
 11  8 27  1 53 30.0000000  0  8G26G10G29G12G05G15G25G02
  -5508823.77047  -4282064.69144  23360719.5084                   23360719.4414
 -11897340.40647  -9249901.33643  23848032.7584                   23848032.1134
  -9963142.53547  -7752141.92645  22449081.6954                   22449080.2774
 -20725430.35247 -16127450.39846  21594264.5944                   21594262.8954
 -25784989.94148 -20066591.09047  20420205.9384                   20420203.4304
   1225907.41847    965782.59844  24281367.5784                   24281369.5164
 -16666380.14848 -12964852.31246  21613632.8984                   21613632.8634
 -25302542.86747 -19692831.19946  21676153.4694                   21676149.6484
 11  8 27  1 54  0.0000000  0  8G26G10G29G12G05G15G25G02
  -5611966.71547  -4362435.73844  23341092.0474                   23341091.1214
 -11800921.29347  -9174769.60243  23866380.8204                   23866379.3444
 -10054632.18447  -7823432.51245  22431672.3444                   22431670.4344
 -20669202.60247 -16083636.57846  21604964.2034                   21604962.3634
 -25761966.15248 -20048650.46147  20424586.6094                   20424584.5904
   1120885.09047    883947.32444  24261382.3054                   24261384.4384
 -16669119.30548 -12966986.70746  21613111.4614                   21613112.1884
 -25274821.16047 -19671229.88346  21681428.8674                   21681424.9964
 11  8 27  1 54 30.0000000  0  8G26G10G29G12G05G15G25G02
  -5714976.05147  -4442702.65644  23321489.5554                   23321490.1134
 -11704370.69147  -9099535.41843  23884753.5004                   23884752.3284
 -10146010.80547  -7894636.57845  22414283.4614                   22414281.9024
 -20612561.30947 -16039500.52346  21615742.6954                   21615740.8984
 -25738437.22748 -20030316.22747  20429064.4924                   20429062.2734
   1015790.26247    802055.58244  24241383.5864                   24241385.1764
 -16671277.11348 -12968668.10246  21612700.6024                   21612701.6054
 -25247001.19947 -19649552.00046  21686722.5084                   21686718.7774
 11  8 27  1 55  0.0000000  0  8G26G10G29G12G05G15G25G02
  -5817847.50847  -4522862.11744  23301913.8524                   23301913.8054
 -11607690.89847  -9024200.55943  23903150.5314                   23903150.4024
 -10237275.81247  -7965752.11345  22396915.7734                   22396914.7624
 -20555508.37948 -15995043.71146  21626599.5784                   21626597.6524
 -25714404.71948 -20011589.58247  20433637.8284                   20433635.3524
    910626.30947    720109.94544  24221371.7344                   24221372.7424
 -16672853.94148 -12969896.79346  21612400.8204                   21612401.1644
 -25219082.64147 -19627797.28945  21692035.0784                   21692031.3594
 11  8 27  1 55 30.0000000  0  8G26G10G29G12G05G15G25G02
  -5920576.88747  -4602910.88744  23282365.0314                   23282364.6844
 -11510883.60246  -8948766.33243  23921572.4844                   23921571.5394
 -10328424.57047  -8036777.06245  22379570.9534                   22379569.5314
 -20498046.03547 -15950267.87146  21637534.2974                   21637532.5704
 -25689869.91448 -19992471.54747  20438306.4384                   20438304.3524
    805396.35947    638112.88344  24201345.8594                   24201347.6454
 -16673849.82048 -12970672.79746  21612211.0314                   21612211.5634
 -25191064.63347 -19605965.08646  21697367.2974                   21697363.4304
 11  8 27  1 56  0.0000000  0  8G26G10G29G12G05G15G25G02
  -6023161.68447  -4682846.99644  23262843.2814                   23262843.6054
 -11413952.31646  -8873235.50843  23940017.9924                   23940017.3364
 -10419455.89847  -8107710.52345  22362248.3204                   22362246.4024
 -20440177.95747 -15905175.87946  21648546.1804                   21648544.7894
 -25664835.38748 -19972964.10547  20443070.6094                   20443067.8954
    700102.20347    556065.78944  24181308.9774                   24181310.8134
 -16674266.59848 -12970997.55146  21612131.9774                   21612132.5204
 -25162948.24247 -19584056.22346  21702717.7504                   21702713.9184
 11  8 27  1 56 30.0000000  0  8G26G10G29G12G05G15G25G02
  -6125598.85947  -4762668.07044  23243350.3364                   23243350.4494
 -11316900.31646  -8797610.60543  23958487.2194                   23958486.2304
 -10510368.37147  -8178551.35545  22344948.1334                   22344946.6524
 -20381907.35948 -15859770.23446  21659634.9774                   21659633.1414
 -25639303.47348 -19953069.09847  20447929.0394                   20447926.5204
    594745.93046    473970.25444  24161260.0704                   24161261.9144
 -16674105.75048 -12970872.20746  21612162.8284                   21612162.9344
 -25134734.32047 -19562071.35546  21708086.3524                   21708082.8554
 11  8 27  1 57  0.0000000  0  8G26G10G29G12G05G15G25G02
  -6227884.46547  -4842371.04744  23223885.8524                   23223886.3204
 -11219729.38746  -8721893.06643  23976977.7274                   23976977.6024
 -10601159.63347  -8249297.75046  22327670.9534                   22327669.4064
 -20323236.43048 -15814052.64546  21670799.7274                   21670797.8404
 -25613276.03948 -19932787.97747  20452881.9774                   20452879.3324
    489330.60546    391828.73043  24141200.3054                   24141201.1844
 -16673367.73848 -12970297.13746  21612303.1174                   21612303.4734
 -25106421.99247 -19540009.82046  21713474.1724                   21713470.1174
 11  8 27  1 57 30.0000000  0  8G26G10G29G12G05G15G25G02
  -6330015.43047  -4921953.52044  23204451.0864                   23204450.3874
 -11122442.94546  -8646085.51243  23995490.8674                   23995490.9104
 -10691828.37547  -8319948.67645  22310417.2734                   22310415.7704
 -20264168.71147 -15768025.85946  21682039.6094                   21682037.8404
 -25586755.57048 -19912122.65647  20457928.4534                   20457925.9414
    383858.39146    309642.81643  24121129.1884                   24121129.9224
 -16672054.12148 -12969273.53946  21612552.8204                   21612553.1294
 -25078012.20747 -19517872.33246  21718880.0634                   21718876.4884
 11  8 27  1 58  0.0000000  0  8G26G10G29G12G05G15G25G02
  -6431988.03547  -5001412.61344  23185046.9304                   23185046.7304
 -11025043.27346  -8570189.70343  24014025.2814                   24014024.8834
 -10782372.29747  -8390502.33245  22293187.7974                   22293186.1804
 -20204706.68747 -15721691.83246  21693355.1724                   21693353.3914
 -25559743.87148 -19891074.57047  20463068.6954                   20463066.5664
    278332.15646    227414.85943  24101047.7734                   24101048.6054
 -16670165.74248 -12967802.08646  21612912.0554                   21612912.7774
 -25049504.83647 -19495658.80546  21724304.9694                   21724300.8364
 11  8 27  1 58 30.0000000  0  8G26G10G29G12G05G15G25G02
  -6533799.01647  -5080745.73044  23165672.2424                   23165672.3524
 -10927533.44946  -8494208.10943  24032580.4064                   24032580.7814
 -10872789.58647  -8460957.31645  22275981.6724                   22275979.8834
 -20144853.00847 -15675052.60546  21704745.0704                   21704742.8094
 -25532243.18748 -19869645.45347  20468301.6334                   20468299.2974
    172754.05946    145146.45743  24080956.6564                   24080957.6764
 -16667703.75048 -12965883.66046  21613381.1094                   21613381.2274
 -25020899.71547 -19473369.09446  21729748.2274                   21729744.3324
 11  8 27  1 59  0.0000000  0  8G26G10G29G12G05G15G25G02
  -6635444.14847  -5159949.64544  23146329.7664                   23146329.2074
 -10829915.72746  -8418142.40243  24051156.8444                   24051156.5554
 -10963077.94947  -8531311.83646  22258800.0234                   22258798.8404
 -20084610.26647 -15628110.22746  21716208.6334                   21716206.8634
 -25504255.01248 -19847836.46946  20473627.8914                   20473625.2424
     67127.34846     62840.14843  24060857.2034                   24060857.2234
 -16664668.87148 -12963518.83246  21613958.5084                   21613958.6374
 -24992196.75047 -19451003.15246  21735210.1414                   21735206.6764
 11  8 27  1 59 30.0000000  0  8G26G10G29G12G05G15G25G02
  -6736918.96147  -5239020.84044  23127019.3054                   23127019.2424
 -10732191.30946  -8341993.59043  24069753.3754                   24069753.4384
 -11053234.23047  -8601563.43745  22241643.8524                   22241641.9884
 -20023980.62147 -15580866.36746  21727746.2584                   21727744.0354
 -25475779.99248 -19825648.13347  20479046.3054                   20479044.1024
    -38544.13746    -19501.02343  24040747.8754                   24040748.9414
 -16661060.97348 -12960707.49246  21614645.1954                   21614645.4304
 -24963394.77347 -19428560.05946  21740691.5004                   21740687.0984
 11  8 27  2  0  0.0000000  0  8G26G10G29G12G05G15G25G02
  -6838219.65247  -5317956.34444  23107742.3754                   23107742.5824
 -10634362.54347  -8265763.44943  24088369.5944                   24088369.2274
 -11143256.14847  -8671710.33645  22224513.4454                   22224512.0354
 -19962966.24248 -15533322.71546  21739357.1094                   21739354.9734
 -25446820.35248 -19803082.17247  20484557.5394                   20484554.9804
   -144257.43047   -101874.77343  24020631.9304                   24020631.6684
 -16656881.09048 -12957450.45346  21615440.2974                   21615440.4614
 -24934494.05147 -19406040.01646  21746191.0864                   21746186.8444
 11  8 27  2  0 30.0000000  0  8G26G10G29G12G05G15G25G02
  -6939344.15247  -5396754.55944  23088499.1414                   23088498.8594
 -10536433.50447  -8189455.17644  24107004.9064                   24107004.6174
 -11233143.39847  -8741752.30145  22207408.4224                   22207406.5004
 -19901571.46948 -15485482.65246  21751039.6484                   21751038.1174
 -25417379.50848 -19780141.24247  20490159.7424                   20490157.0824
   -250011.60547   -184280.40244  24000506.4064                   24000507.1334
 -16652131.77348 -12953749.69546  21616343.9534                   21616344.4344
 -24905495.52747 -19383443.76646  21751709.1564                   21751705.1134
 11  8 27  2  1  0.0000000  0  8G26G10G29G12G05G15G25G02
  -7040287.98047  -5475411.99644  23069289.7194                   23069290.1994
 -10438405.67647  -8113069.87943  24125659.0234                   24125658.4144
 -11322892.66047  -8811686.74245  22190329.7664                   22190328.2074
 -19839798.59048 -15437347.95746  21762795.0634                   21762793.1684
 -25387458.76648 -19756826.36347  20495853.5084                   20495851.2034
   -355802.90647   -266714.98044  23980375.2584                   23980375.1454
 -16646813.26648 -12949605.41446  21617356.6334                   21617356.5314
 -24876398.52748 -19360770.77746  21757246.0554                   21757242.1954
 11  8 27  2  1 30.0000000  0  8G26G10G29G12G05G15G25G02
  -7141049.36347  -5553927.26244  23050115.2814                   23050115.5784
 -10340283.44547  -8036611.05143  24144331.2344                   24144330.5704
 -11412504.44147  -8881514.04345  22173276.6254                   22173275.1094
 -19777651.82848 -15388921.93046  21774621.0004                   21774619.1604
 -25357062.02048 -19733140.58247  20501637.5864                   20501635.4304
   -461630.94547   -349178.14144  23960236.4454                   23960237.3874
 -16640928.64548 -12945020.00046  21618476.0634                   21618476.4844
 -24847205.00447 -19338022.58646  21762801.3834                   21762797.1524
 11  8 27  2  2  0.0000000  0  8G26G10G29G12G05G15G25G02
  -7241623.47746  -5632296.58644  23030977.1254                   23030977.1374
 -10242068.09446  -7960079.62943  24163021.2504                   24163020.5824
 -11501974.75447  -8951231.11346  22156250.9774                   22156249.8594
 -19715132.80948 -15340205.83646  21786518.1644                   21786515.9884
 -25326190.02348 -19709084.47347  20507512.4304                   20507510.0394
   -567491.28147   -431666.52044  23940091.6884                   23940092.4184
 -16634477.73848 -12939993.32046  21619703.6254                   21619704.2274
 -24817913.42647 -19315197.97346  21768375.5234                   21768371.4654
 11  8 27  2  2 30.0000000  0  8G26G10G29G12G05G15G25G02
  -7342006.44947  -5710516.98444  23011874.7114                   23011874.2234
 -10143761.92246  -7883477.47343  24181728.2504                   24181727.7074
 -11591301.60547  -9020836.39845  22139252.9614                   22139251.2934
 -19652244.89847 -15291202.28946  21798485.5314                   21798483.4414
 -25294844.60548 -19684659.46147  20513477.1644                   20513474.8834
   -673381.12147   -514177.84844  23919941.7734                   23919942.5394
 -16627461.57848 -12934526.18046  21621038.8524                   21621039.2664
 -24788523.70347 -19292296.87545  21773968.2034                   21773964.2774
 11  8 27  2  3  0.0000000  0  8G26G10G29G12G05G15G25G02
  -7442195.11747  -5788585.96544  22992809.1024                   22992809.5664
 -10045367.78146  -7806806.77743  24200452.3054                   24200450.7934
 -11680483.38347  -9090328.62946  22122282.4534                   22122280.5824
 -19588990.69147 -15241913.32046  21810522.5394                   21810520.3874
 -25263028.39148 -19659867.59447  20519531.8594                   20519529.3094
   -779298.21146   -596710.43044  23899786.2814                   23899786.6724
 -16619881.93448 -12928619.96546  21622481.1884                   21622481.7424
 -24759036.19947 -19269319.60246  21779579.3594                   21779575.6844
 11  8 27  2  3 30.0000000  0  8G26G10G29G12G05G15G25G02
  -7542185.57847  -5866500.48044  22973781.6484                   22973781.4144
  -9946887.85946  -7730069.20343  24219191.5004                   24219191.3244
 -11769517.60947  -9159705.89546  22105339.3284                   22105337.3714
 -19525373.09048 -15192341.17646  21822628.2114                   21822626.2074
 -25230743.26648 -19634710.35247  20525675.4774                   20525672.6094
   -885239.29746   -679261.72744  23879625.2894                   23879626.5864
 -16611739.60948 -12922275.28546  21624030.4924                   21624031.2034
 -24729450.55948 -19246265.86745  21785209.5634                   21785205.1914
 11  8 27  2  4  0.0000000  0  8G26G10G29G12G05G15G25G02
  -7641974.59447  -5944258.06244  22954792.1644                   22954792.1684
  -9848325.34446  -7653267.23443  24237947.8524                   24237947.4534
 -11858402.73447  -9228966.97345  22088425.0864                   22088423.6524
 -19461395.38348 -15142488.43746  21834802.8984                   21834800.6684
 -25197991.75048 -19609189.68046  20531907.7814                   20531905.3364
   -991202.34046   -761830.10544  23859461.0474                   23859462.0784
 -16603036.52748 -12915493.64546  21625686.6484                   21625686.7934
 -24699767.46147 -19223136.18446  21790857.9304                   21790853.6334
 11  8 27  2  4 30.0000000  0  8G26G10G29G12G05G15G25G02
  -7741558.56247  -6021855.84844  22935842.8204                   22935841.6884
  -9749682.34846  -7576402.65642  24256719.0784                   24256718.6564
 -11947136.54747  -9298110.15645  22071539.5554                   22071537.2194
 -19397059.93448 -15092356.93746  21847045.4224                   21847043.6214
 -25164775.62148 -19583306.97347  20538228.5634                   20538226.0234
  -1097184.23846   -844413.19144  23839293.7814                   23839294.3674
 -16593773.79348 -12908275.92646  21627449.5554                   21627449.6094
 -24669986.22347 -19199930.02045  21796524.9144                   21796521.1844
 11  8 27  2  5  0.0000000  0  8G26G10G29G12G05G15G25G02
  -7840933.28947  -6099290.59444  22916931.6644                   22916931.6914
  -9650960.81246  -7499476.78942  24275504.4694                   24275504.4454
 -12035716.20747  -9367133.21945  22054683.5784                   22054681.3834
 -19332369.55148 -15041948.87146  21859355.5554                   21859353.6684
 -25131096.83648 -19557063.75847  20544637.2734                   20544634.9494
  -1203181.92246   -927008.54744  23819123.1024                   23819124.1294
 -16583952.19548 -12900622.71946  21629318.4384                   21629318.3324
 -24640106.68747 -19176647.27046  21802211.0864                   21802207.0744
 11  8 27  2  5 30.0000000  0  8G26G10G29G12G05G15G25G02
  -7940096.28947  -6176560.35944  22898062.2424                   22898061.6024
  -9552164.30546  -7422492.58243  24294305.5864                   24294304.5234
 -12124140.87147  -9436035.51246  22037856.8914                   22037854.8284
 -19267328.14848 -14991267.28546  21871732.6804                   21871730.8714
 -25096958.56248 -19530462.49646  20551133.8984                   20551131.0554
  -1309193.56646  -1009614.84444  23798949.1954                   23798950.0204
 -16573574.17648 -12892535.93746  21631293.1414                   21631293.8634
 -24610129.81247 -19153288.66446  21807915.3134                   21807911.3204
 11  8 27  2  6  0.0000000  0  8G26G10G29G12G05G15G25G02
  -8039044.28947  -6253662.58644  22879232.3754                   22879231.9924
  -9453296.04746  -7345452.41443  24313120.0474                   24313119.2154
 -12212408.94547  -9504815.78946  22021059.9774                   22021057.8674
 -19201939.06648 -14940314.77046  21884175.8834                   21884173.5944
 -25062363.50448 -19503505.30947  20557716.9454                   20557714.5944
  -1415216.96946  -1092230.28944  23778773.6094                   23778774.1954
 -16562641.61748 -12884017.04746  21633373.5784                   21633374.2464
 -24580055.84047 -19129854.41046  21813638.4144                   21813634.9614
 11  8 27  2  6 30.0000000  0  8G26G10G29G12G05G15G25G02
  -8137771.75047  -6330592.96944  22860444.8364                   22860444.4344
  -9354356.30546  -7268356.56243  24331947.2584                   24331946.9774
 -12300516.39847  -9573470.91846  22004293.8754                   22004291.4574
 -19136203.28948 -14889092.10946  21896684.5474                   21896682.6914
 -25027311.76248 -19476192.25847  20564387.0864                   20564384.4454
  -1521247.20747  -1174851.07444  23758596.8984                   23758597.0234
 -16551154.02348 -12875065.66446  21635559.4144                   21635559.5234
 -24549882.89148 -19106343.03146  21819380.2034                   21819375.8204
 11  8 27  2  7  0.0000000  0  8G26G10G29G12G05G15G25G02
  -8236276.33647  -6407349.67244  22841700.1414                   22841699.2344
  -9255348.38747  -7191207.54343  24350787.8054                   24350787.8674
 -12388462.10947  -9642000.01646  21987558.1024                   21987556.2194
 -19070124.73047 -14837602.34446  21909259.2664                   21909257.5234
 -24991806.64148 -19448525.92246  20571143.4694                   20571141.0744
  -1627282.76247  -1257476.03944  23738419.2974                   23738418.5944
 -16539113.87948 -12865683.71946  21637850.9924                   21637851.0004
 -24519611.73448 -19082755.12945  21825140.4454                   21825136.1644
 11  8 27  2  7 30.0000000  0  8G26G10G29G12G05G15G25G02
  -8334553.80947  -6483929.43044  22822997.9774                   22822997.8484
  -9156274.23047  -7114006.94143  24369640.9144                   24369641.0204
 -12476243.64547  -9710401.17646  21970853.8134                   21970852.1254
 -19003706.28148 -14785847.72746  21921897.9454                   21921896.4224
 -24955850.03548 -19420507.77746  20577985.9694                   20577983.2624
  -1733320.43747  -1340102.63744  23718240.6334                   23718240.3364
 -16526522.31648 -12855872.10246  21640246.2814                   21640247.1414
 -24489242.19148 -19059090.55945  21830919.6334                   21830915.6054
 11  8 27  2  8  0.0000000  0  8G26G10G29G12G05G15G25G02
  -8432601.30547  -6560329.97745  22804341.1414                   22804340.1134
  -9057136.93746  -7036757.16043  24388505.7194                   24388505.9694
 -12563859.39547  -9778673.17646  21954180.9304                   21954179.2504
 -18936951.28548 -14733830.86346  21934601.4534                   21934599.6334
 -24919444.69148 -19392139.96547  20584913.5234                   20584910.9534
  -1839357.85547  -1422729.08244  23698062.1254                   23698062.0394
 -16513381.23448 -12845632.29346  21642747.2894                   21642747.9614
 -24458774.53147 -19035349.53945  21836717.5004                   21836713.0474
 11  8 27  2  8 30.0000000  0  8G26G10G29G12G05G15G25G02
  -8530414.67247  -6636548.09845  22785727.6254                   22785726.2074
  -8957938.34846  -6959459.62143  24407383.3054                   24407383.2304
 -12651306.81648  -9846814.00046  21937540.1884                   21937538.3484
 -18869862.50848 -14681553.91446  21947367.9064                   21947366.6684
 -24882592.66448 -19363424.09047  20591926.2424                   20591923.7034
  -1945392.13747  -1505353.05944  23677884.6644                   23677883.5204
 -16499691.97348 -12834965.32046  21645352.2814                   21645352.5904
 -24428208.41448 -19011531.80145  21842533.9304                   21842530.1454
 11  8 27  2  9  0.0000000  0  8G26G10G29G12G05G15G25G02
  -8627990.55947  -6712581.15644  22767159.3364                   22767158.9884
  -8858681.46946  -6882116.64543  24426271.0944                   24426271.3874
 -12738584.23848  -9914822.35546  21920931.4064                   21920930.1334
 -18802442.94548 -14629019.20746  21960197.5944                   21960195.6684
 -24845296.42648 -19334362.08247  20599023.3914                   20599021.1024
  -2051420.70747  -1587972.57844  23657707.8594                   23657707.3954
 -16485456.43048 -12823872.68746  21648061.4774                   21648062.1604
 -24397544.39848 -18987637.78145  21848369.2344                   21848365.4884
 11  8 27  2  9 30.0000000  0  8G26G10G29G12G05G15G25G02
  -8725326.55947  -6788427.29745  22748636.8364                   22748636.4494
  -8759369.58646  -6804730.81643  24445169.3914                   24445169.8164
 -12825690.33648  -9982697.22746  21904355.9304                   21904354.0784
 -18734696.29348 -14576229.62146  21973089.0864                   21973087.2814
 -24807559.30148 -19304956.52346  20606204.6954                   20606202.0004
  -2157441.41847  -1670585.96144  23637532.3134                   23637532.7424
 -16470676.90648 -12812356.16846  21650873.9224                   21650874.3364
 -24366782.71148 -18963667.65245  21854222.8674                   21854218.8524
 11  8 27  2 10  0.0000000  0  8G26G10G29G12G05G15G25G02
  -8822417.59047  -6864082.54745  22730160.8444                   22730159.8594
  -8660004.13346  -6727303.22343  24464077.8674                   24464078.4184
 -12912621.84448 -10050436.03946  21887813.7424                   21887811.6724
 -18666624.77748 -14523186.89846  21986042.8204                   21986040.8094
 -24769382.18048 -19275208.10946  20613469.1094                   20613467.1024
  -2263450.39147  -1753190.18444  23617358.9454                   23617359.5164
 -16455353.93748 -12800416.18746  21653789.5474                   21653790.3054
 -24335922.21148 -18939620.53145  21860095.3444                   21860091.2194
 11  8 27  2 10 30.0000000  0  8G26G10G29G12G05G15G25G02
  -8919260.84447  -6939544.71945  22711731.7274                   22711732.0594
  -8560588.04746  -6649836.21543  24482995.6174                   24482996.4064
 -12999377.11748 -10118037.52746  21871304.5634                   21871302.9694
 -18598232.26248 -14469894.04746  21999057.6414                   21999055.9774
 -24730768.07048 -19245119.18446  20620817.6644                   20620814.9184
  -2369445.62546  -1835783.68044  23597188.7114                   23597189.0904
 -16439489.79748 -12788054.52346  21656808.6484                   21656809.2154
 -24304963.66848 -18915497.01645  21865986.4144                   21865982.7464
 11  8 27  2 11  0.0000000  0  7G26G29G12G05G15G25G02
  -9015851.82447  -7014810.32845  22693351.3914                   22693350.6054
 -13085952.97348 -10185499.19946  21854829.7114                   21854827.8444
 -18529520.72747 -14416352.60546  22012132.7344                   22012130.9734
 -24691718.20348 -19214690.71146  20628248.2584                   20628245.4064
  -2475423.33247  -1918363.49244  23577022.5234                   23577022.7424
 -16423085.21548 -12775271.72746  21659929.9304                   21659930.3594
 -24273906.07048 -18891296.29745  21871897.0554                   21871892.9104
 11  8 27  2 11 30.0000000  0  7G26G29G12G05G15G25G02
  -9112186.71947  -7089876.37545  22675019.2584                   22675018.2304
 -13172347.62948 -10252819.67646  21838389.5394                   21838387.5204
 -18460493.17247 -14362564.92246  22025268.5704                   22025266.2624
 -24652235.18448 -19183924.71546  20635761.6174                   20635759.0234
  -2581380.77047  -2000927.52044  23556858.3204                   23556859.1804
 -16406141.81248 -12762069.07446  21663153.8364                   21663154.4964
 -24242749.13748 -18867018.19545  21877825.7894                   21877821.7934
 11  8 27  2 12  0.0000000  0  7G26G29G12G05G15G25G02
  -9208259.42647  -7164738.13345  22656737.2814                   22656736.7584
 -13258556.12948 -10319995.09846  21821984.4384                   21821982.4304
 -18391149.85947 -14308531.17246  22038463.8444                   22038462.4184
 -24612318.87148 -19152821.07846  20643357.6644                   20643354.7974
  -2687312.26247  -2083471.32444  23536701.0784                   23536699.9024
 -16388658.71148 -12748445.88346  21666481.4384                   21666482.0164
 -24211490.19948 -18842660.59045  21883774.0314                   21883770.1254
 11  8 27  2 12 30.0000000  0  7G26G29G12G05G15G25G02
  -9304064.80947  -7239391.57044  22638505.8134                   22638505.3754
 -13344574.52048 -10387022.37546  21805615.8914                   21805614.0704
 -18321492.27747 -14254252.55546  22051719.4454                   22051717.7384
 -24571969.75048 -19121380.19546  20651035.5864                   20651032.9884
  -2793213.62147  -2165991.63744  23516548.0394                   23516548.4494
 -16370636.14548 -12734402.32846  21669910.8054                   21669911.3984
 -24180127.71948 -18818222.30946  21889742.2894                   21889738.4804
 11  8 27  2 13  0.0000000  0  8G26G21G29G12G05G15G25G02
  -9399598.12947  -7313833.02045  22620326.6094                   22620325.8164
   3054754.93816                  25079022.594
 -13430399.86348 -10453899.20746  21789283.6954                   21789281.7384
 -18251522.50447 -14199730.65646  22065034.0314                   22065031.8914
 -24531189.03548 -19089603.00446  20658796.2734                   20658793.6884
  -2899080.55947  -2248485.15244  23496402.7344                   23496402.3984
 -16352074.60948 -12719938.79346  21673443.0554                   21673443.4884
 -24148660.28148 -18793702.24245  21895730.3984                   21895726.2504
 11  8 27  2 13 30.0000000  0  8G26G21G29G12G05G15G25G02
  -9494857.93047  -7388061.33645  22602199.1644                   22602198.5394
   2989700.672 6                  25066642.531
 -13516032.11348 -10520625.58246  21772988.2034                   21772986.6724
 -18181245.74647 -14144969.55146  22078407.4144                   22078405.6914
 -24489981.22348 -19057493.01647  20666637.5234                   20666635.0434
  -3004912.82447  -2330951.66444  23476262.9224                   23476263.0354
 -16332978.01648 -12705058.33246  21677077.1724                   21677077.7504
 -24117089.91848 -18769101.96145  21901737.9534                   21901734.0514
 11  8 27  2 14  0.0000000  0  8G26G21G29G12G05G15G25G02
  -9589844.42247  -7462076.69545  22584124.1334                   22584123.6804
   2924659.53946   2285892.24252  25054265.4844                   25054265.0434
 -13601472.86348 -10587202.73046  21756729.3054                   21756727.4884
 -18110669.11747 -14089974.78946  22091837.5474                   22091836.2154
 -24448352.42648 -19025054.98046  20674559.3594                   20674556.8524
  -3110711.43047  -2413391.93444  23456129.8914                   23456129.5634
 -16313352.25848 -12689765.53546  21680811.8364                   21680812.2774
 -24085420.43748 -18744424.44145  21907764.1724                   21907760.8364
 11  8 27  2 14 30.0000000  0  8G26G21G29G12G05G15G25G02
  -9684556.09047  -7535877.90645  22566100.7974                   22566100.0204
   2859629.57845   2235219.71942  25041890.5634                   25041890.2774
 -13686721.87148 -10653630.46146  21740507.0944                   21740505.1914
 -18039797.19547 -14034749.92245  22105324.0394                   22105322.4614
 -24406307.26648 -18992292.51247  20682560.3054                   20682557.7074
  -3216474.89847  -2495804.84844  23436003.8524                   23436002.8954
 -16293200.75048 -12674063.06646  21684646.3834                   21684646.8014
 -24053653.46548 -18719670.95745  21913809.6094                   21913805.6454
 11  8 27  2 15  0.0000000  0  8G26G21G29G12G05G15G25G02
  -9778989.09447  -7609461.97745  22548130.6024                   22548130.2544
   2794610.05146   2184555.35243  25029518.0474                   25029517.8754
 -13771777.03148 -10719907.12946  21724321.5944                   21724319.6844
 -17968633.19947 -13979297.46545  22118865.9534                   22118864.4774
 -24363847.97348 -18959207.34046  20690639.8204                   20690637.6484
  -3322200.83247  -2578188.51644  23415884.9224                   23415883.5664
 -16272525.44148 -12657952.43046  21688580.9534                   21688581.7194
 -24021789.05948 -18694841.55145  21919872.9614                   21919869.0004
 11  8 27  2 15 30.0000000  0  8G26G21G29G12G05G15G25G02
  -9873139.53947  -7682825.87945  22530214.3524                   22530213.7384
   2729600.51646   2133898.73443  25017147.0784                   25017146.2544
 -13856635.55548 -10786030.57846  21708173.5634                   21708171.4774
 -17897179.81647 -13923619.51645  22132463.4064                   22132462.0274
 -24320977.07848 -18925801.43746  20698797.8754                   20698795.5394
  -3427885.99647  -2660540.43744  23395773.2344                   23395772.8554
 -16251327.94948 -12641434.91446  21692614.2734                   21692615.1254
 -23989826.67248 -18669935.79345  21925955.5234                   21925951.6484
 11  8 27  2 16  0.0000000  0  8G26G21G29G12G05G15G25G02
  -9967003.38347  -7755966.44145  22512352.3914                   22512351.8484
   2664600.62946   2083249.66043  25004777.4144                   25004777.9064
 -13941294.78948 -10851998.74246  21692063.4534                   21692061.2274
 -17825439.56647 -13867718.03546  22146115.0634                   22146113.8094
 -24277695.42248 -18892075.46146  20707034.2734                   20707031.7624
  -3533526.68447  -2742857.68744  23375669.9924                   23375669.3404
 -16229609.44148 -12624511.39846  21696747.6094                   21696747.9774
 -23957765.60248 -18644953.13345  21932056.3134                   21932052.4384
 11  8 27  2 16 30.0000000  0  8G26G21G29G12G05G15G25G02
 -10060576.62147  -7828880.57845  22494545.8914                   22494545.0824
   2599610.33646   2032608.08243  24992410.8914                   24992410.2384
 -14025752.28548 -10917809.69546  21675991.2034                   21675989.1454
 -17753415.37547 -13811595.29346  22159821.2274                   22159819.3244
 -24234005.77748 -18858031.58646  20715348.2034                   20715345.7664
  -3639120.07847  -2825138.09044  23355576.2504                   23355575.6484
 -16207371.68048 -12607183.28146  21700979.2114                   21700979.7624
 -23925605.48847 -18619893.30945  21938175.9774                   21938172.0004
 11  8 27  2 17  0.0000000  0  8G26G21G29G12G05G15G25G02
 -10153855.26247  -7901565.14845  22476795.5864                   22476795.0164
   2534629.40646   1981973.77043  24980044.4844                   24980044.1684
 -14110005.36748 -10983461.36746  21659958.7114                   21659956.6174
 -17681109.93747 -13755253.40246  22173580.2584                   22173578.4574
 -24189910.14148 -18823671.34046  20723739.2424                   20723736.7734
  -3744662.63746  -2907378.87944  23335491.7814                   23335491.0204
 -16184616.08648 -12589451.65646  21705309.0784                   21705309.8364
 -23893345.62548 -18594755.73045  21944314.9844                   21944311.0594
 11  8 27  2 17 30.0000000  0  8G26G21G29G12G05G15G25G02
 -10246835.99647  -7974017.59045  22459101.9924                   22459100.3834
   2469656.54746   1931345.76643  24967680.4614                   24967680.2664
 -14194052.25448 -11048952.38346  21643964.6254                   21643962.6804
 -17608526.56647 -13698694.93445  22187392.9144                   22187390.5354
 -24145410.99248 -18788996.68446  20732207.2274                   20732204.6024
  -3850151.79346  -2989578.02044  23315418.1484                   23315417.4024
 -16161344.91448 -12571318.28546  21709737.7814                   21709738.4024
 -23860986.19148 -18569540.58645  21950472.8054                   21950468.8984
 11  8 27  2 18  0.0000000  0  8G26G21G29G12G05G15G25G02
 -10339514.50847  -8046234.52345  22441466.0164                   22441464.8554
   2404692.09046   1880724.29343  24955317.7584                   24955317.7624
 -14277889.87548 -11114280.32046  21628010.8204                   21628008.9654
 -17535667.57447 -13641921.69945  22201257.0314                   22201255.2934
 -24100509.98848 -18754008.87946  20740751.4694                   20740749.1884
  -3955584.14846  -3071732.93444  23295354.5864                   23295354.6254
 -16137559.38348 -12552784.10946  21714263.5474                   21714264.4774
 -23828526.17248 -18544247.05945  21956649.5944                   21956645.8524
 11  8 27  2 18 30.0000000  0  8G26G21G29G12G05G15G25G02
 -10431887.30947  -8118213.25045  22423887.7974                   22423886.8404
   2339735.00846   1830108.59443  24942956.4064                   24942956.9414
 -14361516.17248 -11179443.60246  21612097.4614                   21612094.9384
 -17462536.17647 -13584936.19945  22215173.2034                   22215171.2624
 -24055209.99248 -18718710.18446  20749371.6254                   20749369.3014
  -4060956.72347  -3153841.25844  23275302.8204                   23275303.1294
 -16113261.55948 -12533850.73846  21718887.7114                   21718888.1804
 -23795965.65248 -18518875.21545  21962845.9144                   21962841.9494
 11  8 27  2 19  0.0000000  0  8G26G21G29G12G05G15G25G02
 -10523950.66847  -8189950.85245  22406368.7344                   22406367.1174
   2274785.13746   1779498.46143  24930597.5004                   24930597.0434
 -14444928.77348 -11244440.37146  21596224.4454                   21596222.3594
 -17389135.63347 -13527740.98445  22229140.8524                   22229139.2894
 -24009513.17248 -18683102.26646  20758067.4304                   20758065.1454
  -4166266.40247  -3235900.59845  23255262.7974                   23255262.8404
 -16088453.30948 -12514519.64546  21723608.2424                   21723608.8204
 -23763304.12548 -18493424.67245  21969061.3594                   21969057.4064
 11  8 27  2 19 30.0000000  0  8G26G21G29G12G05G15G25G02
 -10615701.47347  -8261444.89545  22388908.7664                   22388907.9694
   2209841.35546   1728893.07043  24918239.8204                   24918238.2854
 -14528125.84848 -11309269.21146  21580392.5004                   21580390.6174
 -17315469.22747 -13470338.59845  22243159.3594                   22243157.3984
 -23963422.14548 -18647187.17646  20766838.1884                   20766835.7194
  -4271510.75847  -3317909.01645  23235235.4384                   23235235.1134
 -16063137.12148 -12494792.75846  21728426.0394                   21728426.2424
 -23730541.90648 -18467895.66845  21975295.6644                   21975291.8754
 11  8 27  2 20  0.0000000  0  8G26G21G29G12G05G15G25G02
 -10707135.84447  -8332692.37945  22371509.6414                   22371508.5204
   2144902.87546   1678291.81643  24905881.6414                   24905880.9734
 -14611105.10248 -11373928.31646  21564602.1804                   21564599.8794
 -17241539.97747 -13412731.40645  22257227.7274                   22257225.6334
 -23916939.44948 -18610966.89846  20775683.9224                   20775681.2774
  -4376686.50447  -3399863.99245  23215221.5394                   23215220.6644
 -16037314.84848 -12474671.51246  21733339.9384                   21733340.1454
 -23697678.90648 -18442288.12145  21981549.0944                   21981544.8134
 11  8 27  2 20 30.0000000  0  8G26G21G29G12G05G15G25G02
 -10798250.25447  -8403690.52345  22354170.8834                   22354170.0514
   2079969.39846   1627694.43043  24893524.4614                   24893524.1174
 -14693863.79748 -11438415.55946  21548853.8204                   21548851.5554
 -17167350.99647 -13354921.81245  22271345.6484                   22271343.3634
 -23870067.48048 -18574443.28146  20784603.4144                   20784600.7814
  -4481790.81647  -3481763.28945  23195220.7424                   23195219.6844
 -16010988.46148 -12454157.44946  21738349.6334                   21738349.9964
 -23664714.66448 -18416601.69545  21987822.1954                   21987818.0164
 11  8 27  2 21  0.0000000  0  8G26G21G29G12G05G15G25G02
 -10889040.79747  -8474436.31645  22336894.1724                   22336893.3914
   2015040.30946   1577100.43843  24881169.0704                   24881168.5784
 -14776399.82448 -11502729.30146  21533147.5084                   21533145.5314
 -17092904.93447 -13296911.89845  22285511.8364                   22285509.9884
 -23822808.22348 -18537617.89146  20793596.3914                   20793593.5314
  -4586820.52747  -3563604.46945  23175234.2194                   23175232.6804
 -15984159.77048 -12433251.97746  21743455.1484                   21743455.5314
 -23631648.34048 -18390835.71545  21994114.2504                   21994110.7344
 11  8 27  2 21 30.0000000  0  8G26G21G29G12G05G15G25G02
 -10979504.05147  -8544927.07845  22319679.6724                   22319678.3204
   1950114.63346   1526509.17243  24868814.4614                   24868813.0984
 -14858710.92648 -11566867.78946  21517484.3674                   21517482.3164
 -17018205.07447 -13238704.20745  22299726.7814                   22299724.6374
 -23775164.69548 -18500493.05946  20802662.7194                   20802660.0474
  -4691772.89847  -3645385.38745  23155262.0314                   23155260.7664
 -15956831.15248 -12411956.95346  21748655.5474                   21748656.3094
 -23598480.19948 -18364990.41045  22000425.9924                   22000422.0554
 11  8 27  2 22  0.0000000  0  8G26G21G29G12G05G15G25G02
 -11069636.57447  -8615160.11745  22302527.2734                   22302526.4064
   1885191.76247   1475920.03543  24856458.9384                   24856458.7424
 -14940795.27748 -11630829.58646  21501863.9304                   21501862.1684
 -16943254.89847 -13180301.48445  22313989.4454                   22313987.3794
 -23727139.46548 -18463070.80146  20811801.6644                   20811798.9224
  -4796645.37547  -3727104.05945  23135305.3054                   23135304.0274
 -15929004.86748 -12390274.12546  21753950.4144                   21753951.0474
 -23565210.26648 -18339065.78145  22006756.7114                   22006753.0904
 11  8 27  2 22 30.0000000  0  8G26G21G29G12G05G15G25G02
 -11159435.20747  -8685132.99645  22285439.7114                   22285438.6454
   1820270.85947   1425332.43043  24844105.7504                   24844104.5514
 -15022650.88748 -11694613.14546  21486287.7504                   21486285.6414
 -16868058.20747 -13121706.66445  22328298.4064                   22328297.1054
 -23678735.07848 -18425353.09046  20821012.6094                   20821009.7584
  -4901435.28547  -3808758.37144  23115363.7734                   23115363.0004
 -15900683.30948 -12368205.38746  21759339.7814                   21759340.7974
 -23531838.69548 -18313061.96545  22013107.5944                   22013103.7774
 11  8 27  2 23  0.0000000  0  8G26G21G29G12G05G15G25G02
 -11248895.79747  -8754842.46945  22268415.5864                   22268414.5434
   1755352.06646   1374746.48043  24831751.8754                   24831751.1884
 -15104274.27748 -11758215.76646  21470755.1254                   21470753.1954
 -16792616.81247 -13062921.17245  22342655.0084                   22342653.1414
 -23629953.21948 -18387341.24646  20830295.1174                   20830292.7664
  -5006138.42247  -3890345.10244  23095439.5864                   23095438.8484
 -15871868.05948 -12345751.94146  21764823.0084                   21764823.5864
 -23498364.42248 -18286978.11345  22019477.5944                   22019473.5784
 11  8 27  2 23 30.0000000  0  8G26G21G29G12G05G15G25G02
 -11338014.15647  -8824285.25045  22251456.8674                   22251455.6724
   1690435.26646   1324162.06343  24819398.2584                   24819397.3914
 -15185663.53148 -11821635.93446  21455267.4534                   21455264.8714
 -16716933.52747 -13003947.19545  22357056.7504                   22357055.2704
 -23580796.12148 -18349037.00446  20839649.9924                   20839647.2384
  -5110751.78547  -3971861.87544  23075532.6644                   23075530.7934
 -15842560.81248 -12322915.12146  21770400.1804                   21770400.9884
 -23464786.84448 -18260813.76645  22025866.9144                   22025862.6994
 11  8 27  2 24  0.0000000  0  8G26G21G29G12G05G15G25G02
 -11426787.05147  -8893458.85545  22234563.7584                   22234562.2234
   1625519.14847   1273578.20343  24807045.2034                   24807043.8324
 -15266816.17248 -11884871.73446  21439824.4534                   21439822.3134
 -16641011.79347 -12944787.41845  22371504.4924                   22371502.5124
 -23531266.61748 -18310442.57446  20849075.0784                   20849072.2034
  -5215272.76647  -4053306.68044  23055642.6484                   23055641.4414
 -15812763.98048 -12299696.81246  21776070.3834                   21776070.7344
 -23431105.86748 -18234568.84445  22032276.2504                   22032272.0744
 11  8 27  2 24 30.0000000  0  8G26G21G29G12G05G15G25G02
 -11515212.27047  -8962361.53545  22217736.5704                   22217735.9494
   1560601.62946   1222993.25843  24794691.5784                   24794691.1724
 -15347731.28548 -11947922.44146  21424426.5554                   21424424.4184
 -16564856.39547 -12885445.54745  22385995.9454                   22385994.2734
 -23481368.14148 -18271560.63746  20858569.9534                   20858567.2774
  -5319699.88347  -4134678.30944  23035770.6804                   23035769.4184
 -15782481.23048 -12276099.86346  21781832.9384                   21781833.1134
 -23397322.96548 -18208244.51645  22038704.8674                   22038700.8954
 11  8 27  2 25  0.0000000  0  8G26G21G29G12G05G15G25G02
 -11603285.87147  -9030990.21945  22200977.0474                   22200975.5124
   1495682.91046   1172407.41843  24782337.4454                   24782337.0634
 -15428405.90248 -12010785.75446  21409074.8204                   21409072.6724
 -16488469.76647 -12825923.51245  22400532.1724                   22400530.2894
 -23431103.45748 -18232393.34446  20868135.2194                   20868132.7504
  -5424029.30947  -4215973.84845  23015917.4694                   23015916.3134
 -15751714.25048 -12252125.59446  21787687.7194                   21787688.1644
 -23363436.87147 -18181839.77045  22045153.5394                   22045149.4384
 11  8 27  2 25 30.0000000  0  8G26G21G29G12G05G15G25G02
 -11691004.02347  -9099341.94145  22184285.0554                   22184283.3324
   1430762.18446   1121819.98043  24769982.9224                   24769983.0634
 -15508838.11748 -12073460.17246  21393769.3284                   21393766.6884
 -16411855.12547 -12766223.80145  22415111.4774                   22415109.9924
 -23380474.69948 -18192942.35546  20877769.8134                   20877767.3634
  -5528258.10247  -4297190.96944  22996083.0084                   22996082.2194
 -15720465.23048 -12227775.71146  21793634.1724                   21793634.7934
 -23329447.75847 -18155354.75445  22051621.1804                   22051616.9964
 11  8 27  2 26  0.0000000  0  8G26G21G29G12G05G15G25G02
 -11778362.98847  -9167413.78145  22167661.1724                   22167659.7704
   1365839.46546   1071230.97743  24757628.8914                   24757628.0634
 -15589024.95748 -12135943.39146  21378509.9384                   21378507.8794
 -16335014.85947 -12706348.28145  22429733.1254                   22429731.9304
 -23329483.77048 -18153209.15246  20887472.8914                   20887470.3364
  -5632383.02047  -4378327.13345  22976268.7114                   22976267.6764
 -15688735.98848 -12203051.63346  21799672.1724                   21799672.9104
 -23295354.74647 -18128788.77745  22058108.8204                   22058104.8404
 11  8 27  2 26 30.0000000  0  8G26G21G29G12G05G15G25G02
 -11865358.71947  -9235202.59045  22151106.2424                   22151104.8914
   1300914.35946   1020640.16043  24745274.0004                   24745272.7464
 -15668963.84448 -12198233.38746  21363297.9694                   21363296.0354
 -16257951.91447 -12646299.24645  22444397.9304                   22444396.9414
 -23278132.67248 -18113195.30146  20897244.8204                   20897242.1604
  -5736400.60947  -4459379.68745  22956475.0004                   22956474.0474
 -15656528.50848 -12177954.90246  21805801.2894                   21805801.9384
 -23261157.11347 -18102141.27345  22064616.2814                   22064612.5634
 11  8 27  2 27  0.0000000  0  8G26G21G29G12G05G15G25G02
 -11951988.72347  -9302706.41445  22134620.9064                   22134619.4734
   1235985.33246    970046.25842  24732918.1254                   24732916.9964
 -15748653.43448 -12260329.12546  21348133.4534                   21348131.4774
 -16180670.55947 -12586080.03145  22459104.5554                   22459102.6764
 -23226425.34848 -18072903.87946  20907084.1954                   20907081.7814
  -5840308.85247  -4540347.02745  22936701.4224                   22936700.1644
 -15623846.14148 -12152488.13746  21812020.6174                   21812020.6254
 -23226855.69147 -18075412.91045  22071143.7814                   22071139.6414
 11  8 27  2 27 30.0000000  0  8G26G21G29G12G05G15G25G02
 -10462825.76647  -8142319.62545  22417999.2424                   22417997.3914
   2746474.82046   2147051.19542  25020354.8524                   25020352.9654
 -14252667.77748 -11094625.97346  21632809.7664                   21632808.2704
 -14527755.66047 -11298094.40645  22773643.1484                   22773641.5124
 -21598944.75048 -16804737.17646  21216783.4614                   21216780.9454
  -4368680.30147  -3393623.35545  23216743.3134                   23216741.9964
 -14015271.21947 -10899053.13346  22118122.0314                   22118122.2464
 -21617030.56647 -16821003.73445  22377483.6804                   22377479.5434
 11  8 27  2 28  0.0000000  0  8G26G21G29G12G05G15G25G02
 -10548713.02347  -8209244.69145  22401655.4144                   22401653.9344
   2681536.94946   2096450.39542  25007996.9614                   25007996.4264
 -14331851.26648 -11156327.34446  21617742.1644                   21617739.7664
 -14450045.85947 -11237541.33645  22788431.4384                   22788429.1484
 -21546531.02748 -16763895.30546  21226757.4454                   21226755.2424
  -4472360.01647  -3474412.62545  23197013.6484                   23197012.0204
 -13981645.06248 -10872850.94546  22124520.8054                   22124521.1524
 -21582520.00847 -16794112.39545  22384050.7584                   22384046.6174
 11  8 27  2 28 30.0000000  0  8G26G21G29G12G05G15G25G02
 -10634223.87147  -8275876.45345  22385383.1884                   22385381.7854
   2616593.23846   2045845.02043  24995640.0004                   24995637.9614
 -14410778.30148 -11217828.87546  21602722.9064                   21602720.4494
 -14372126.97347 -11176825.32045  22803258.5394                   22803256.8014
 -21493768.20748 -16722781.42646  21236798.0004                   21236795.3524
  -4575921.16047  -3555109.50445  23177306.2814                   23177304.8324
 -13947550.82448 -10846284.01646  22131008.5474                   22131009.5084
 -21547904.66848 -16767139.41845  22390637.8054                   22390633.8754
 11  8 27  2 29  0.0000000  0  8G26G21G29G12G05G15G25G02
 -10719354.68047  -8342212.07445  22369182.7664                   22369181.8954
   2551643.41046   1995234.90243  24983279.9924                   24983278.6994
 -14489446.60948 -11279128.80946  21587752.6484                   21587750.3594
 -14294001.85247 -11115948.61745  22818125.8674                   22818123.8054
 -21440658.65648 -16681397.36346  21246904.6334                   21246901.6884
  -4679360.89547  -3635711.77045  23157622.5474                   23157621.1684
 -13912990.74648 -10819354.09446  22137585.3834                   22137585.9804
 -21513183.97347 -16740084.34045  22397244.8754                   22397240.8914
 11  8 27  2 29 30.0000000  0  8G26G21G29G12G05G15G25G02
 -10804101.43047  -8408248.43745  22353056.8524                   22353054.9414
   2486686.98846   1944619.60543  24970918.8364                   24970916.9104
 -14567853.52348 -11340225.05546  21572832.2344                   21572830.1484
 -14215673.51247 -11054913.55545  22833031.0864                   22833029.0864
 -21387204.86748 -16639745.05946  21257075.9844                   21257073.6454
  -4782675.71947  -3716216.70745  23137961.8524                   23137960.5704
 -13877966.94148 -10792062.82046  22144250.2734                   22144250.5474
 -21478357.77347 -16712947.04745  22403871.7974                   22403867.8594
 11  8 27  2 30  0.0000000  0  8G26G21G29G12G05G15G25G02
 -10888462.43447  -8473984.21945  22337002.9614                   22337001.5864
   2421722.05946   1893997.69543  24958556.6024                   24958554.4414
 -14645998.08648 -11401116.87146  21557961.5944                   21557959.1914
 -14137146.24647 -10993723.49245  22847973.9384                   22847972.6524
 -21333410.56648 -16597827.43046  21267313.1094                   21267310.4494
  -4885864.02347  -3796623.08245  23118326.3444                   23118324.9924
 -13842483.21148 -10764413.15646  22151002.7664                   22151003.0314
 -21443426.79347 -16685728.09445  22410519.6484                   22410515.4064
 11  8 27  2 30 30.0000000  0  8G26G21G29G12G05G15G25G02
 -10972432.99647  -8539415.75845  22321023.0864                   22321022.3204
   2356748.76646   1843369.23843  24946192.1884                   24946190.4264
 -14723876.99248 -11461801.69146  21543141.7974                   21543139.3594
 -14058422.18447 -10932380.07445  22862954.9694                   22862953.2304
 -21279277.32448 -16555645.68746  21277614.3444                   21277611.7974
  -4988921.92247  -3876927.82045  23098714.8134                   23098713.5514
 -13806541.06647 -10736406.28946  22157842.6174                   22157842.9224
 -21408390.01647 -16658426.71545  22417186.2734                   22417182.6054
 11  8 27  2 31  0.0000000  0  8G26G21G29G12G05G15G25G02
 -11056010.34447  -8604540.90645  22305119.3444                   22305117.9024
   2291766.08646   1792733.45343  24933826.4924                   24933824.9574
 -14801489.10548 -11522278.60946  21528372.7274                   21528370.3244
 -13979505.85947 -10870886.83645  22877972.0164                   22877970.1414
 -21224808.30948 -16513202.30146  21287979.1644                   21287976.7344
  -5091847.05547  -3957129.12545  23079128.5234                   23079126.9384
 -13770143.67248 -10708044.68046  22164768.2584                   22164768.6454
 -21373247.67647 -16631043.07045  22423873.5394                   22423869.6884
 11  8 27  2 31 30.0000000  0  8G26G21G29G12G05G15G25G02
 -11139190.48047  -8669356.53145  22289290.4144                   22289289.5784
   2226774.17647   1742090.51643  24921459.3754                   24921457.6844
 -14878830.94948 -11582544.94146  21513655.0164                   21513652.8324
 -13900399.26647 -10809245.34845  22893025.7114                   22893023.8284
 -21170005.55148 -16470498.86346  21298407.9304                   21298405.3484
  -5194635.76247  -4037224.12545  23059568.5474                   23059566.7934
 -13733292.69948 -10679329.63746  22171780.5234                   22171781.2774
 -21337998.74647 -16603576.36345  22430581.2974                   22430577.6374
 11  8 27  2 32  0.0000000  0  9G26G21G29G12G05G15G25G02G18
 -11221971.01647  -8733860.78145  22273538.4144                   22273536.7114
   2161770.75047   1691438.60543  24909088.9774                   24909088.0634
 -14955901.44948 -11642599.84046  21498988.9304                   21498986.5234
 -13821106.72747 -10747458.95345  22908114.3134                   22908112.7734
 -21114872.82048 -16427538.30546  21308899.2274                   21308896.8204
  -5297286.24647  -4117211.41845  23040034.4304                   23040032.5634
 -13695992.02348 -10650264.17246  22178879.0634                   22178879.1724
 -21302644.38347 -16576027.50445  22437309.3364                   22437305.2664
   4581236.57056   3579873.94553  24809455.1804                   24809455.6174
 11  8 27  2 32 30.0000000  0  9G26G21G29G12G05G15G25G02G18
 -11304350.14848  -8798052.24645  22257862.2584                   22257860.4304
   2096754.31647   1640776.54343  24896716.4844                   24896715.5824
 -15032700.06248 -11702442.87546  21484374.5944                   21484372.5394
 -13741633.11347 -10685531.48045  22923237.8984                   22923236.0664
 -21059414.10248 -16384323.73046  21319452.6024                   21319450.4964
  -5399796.95347  -4197089.79745  23020527.2034                   23020525.9104
 -13658245.56648 -10620851.33646  22186061.7974                   22186062.2464
 -21267185.44948 -16548397.14845  22444056.8594                   22444053.2074
   4483556.00446   3503759.57443  24790866.2814                   24790868.0354
 11  8 27  2 33  0.0000000  0  9G26G21G29G12G05G15G25G02G18
 -11386327.24647  -8861930.43745  22242262.3914                   22242260.7934
   2031721.01646   1590101.35943  24884341.4614                   24884339.6254
 -15109227.07448 -11762074.27346  21469812.0084                   21469809.8674
 -13661984.47347 -10623467.60945  22938394.3754                   22938392.8524
 -21003634.49248 -16340859.10946  21330067.1174                   21330064.9924
  -5502167.60547  -4276859.04345  23001046.6024                   23001045.5474
 -13620058.62148 -10591095.25446  22193328.3204                   22193328.9414
 -21231625.19948 -16520687.84045  22450823.7344                   22450819.6374
   4386047.74646   3427779.43043  24772311.6804                   24772311.8164
 11  8 27  2 33 30.0000000  0  9G26G21G29G12G05G15G25G02G18
 -11467898.66447  -8925492.52045  22226739.4924                   22226738.4184
   1966670.43846   1539412.69543  24871962.1484                   24871961.3524
 -15185479.93448 -11821492.05546  21455301.1564                   21455299.0904
 -13582163.43047 -10561269.41045  22953583.6334                   22953581.9734
 -20947536.56248 -16297146.44546  21340742.5164                   21340739.8954
  -5604395.31647  -4356516.90645  22981593.5234                   22981591.2304
 -13581433.60248 -10560997.82846  22200678.4614                   22200679.1484
 -21195962.47348 -16492898.68045  22457610.2974                   22457606.5634
   4288713.11746   3351934.55543  24753789.3444                   24753789.1884
 11  8 27  2 34  0.0000000  0  9G26G21G29G12G05G15G25G02G18
 -11549061.51647  -8988736.23045  22211294.5394                   22211293.3094
   1901601.34446   1488709.64543  24859579.4924                   24859578.2704
 -15261457.32048 -11880695.17646  21440843.5784                   21440841.1604
 -13502174.16447 -10498940.12945  22968805.2814                   22968804.0234
 -20891123.61348 -16253188.32046  21351477.2734                   21351475.0204
  -5706477.43747  -4436061.32845  22962167.3674                   22962165.8914
 -13542373.80148 -10530561.60246  22208111.5314                   22208112.1724
 -21160197.66048 -16465029.97745  22464415.4534                   22464411.8404
   4191552.62946   3276225.39543  24735299.6564                   24735300.3714
 11  8 27  2 34 30.0000000  0  9G26G21G29G12G05G15G25G02G18
 -11629810.80147  -9051657.67245  22195928.4534                   22195927.4184
   1836514.86346   1437993.00443  24847193.7584                   24847193.4734
 -15337155.06248 -11939680.39546  21426438.2034                   21426436.2584
 -13422017.91447 -10436480.73845  22984058.9384                   22984057.4494
 -20834396.38748 -16208985.28946  21362272.3674                   21362270.2034
  -5808409.15247  -4515488.54745  22942770.7584                   22942769.1804
 -13502879.92248 -10499787.14846  22215627.1724                   22215627.3754
 -21124328.77348 -16437080.17245  22471241.1884                   22471237.4964
   4094569.44146   3200654.36743  24716844.5004                   24716844.4694
 11  8 27  2 35  0.0000000  0  9G26G21G29G12G05G15G25G02G18
 -11710141.41447  -9114252.88745  22180642.0164                   22180640.4804
   1771412.28146   1387263.85943  24834805.8754                   24834804.5044
 -15412568.84048 -11998444.34446  21412087.3674                   21412085.2114
 -13341696.16047 -10373892.37145  22999343.3984                   22999342.0634
 -20777355.68748 -16164537.99646  21373126.7664                   21373124.1174
  -5910186.02047  -4594795.11345  22923402.7424                   22923401.2734
 -13462952.84048 -10468675.12546  22223224.8914                   22223225.0204
 -21088353.94548 -16409047.80945  22478087.5084                   22478083.3054
   3997766.37146   3125223.63743  24698423.2194                   24698422.6954
 11  8 27  2 35 30.0000000  0  9G26G21G29G12G05G15G25G02G18
 -11790050.09047  -9176519.33245  22165435.8204                   22165434.4104
   1706292.59846   1336521.36343  24822413.5474                   24822412.3914
 -15487696.83648 -12056985.60546  21397791.2274                   21397789.3634
 -13261211.71147 -10311177.24645  23014658.9224                   23014657.1174
 -20720004.34848 -16119848.65246  21384040.6564                   21384037.7304
  -6011805.18447  -4673978.77745  22904065.8204                   22904064.0864
 -13422595.39548 -10437227.74646  22230904.2504                   22230904.3954
 -21052272.84047 -16380932.64545  22484952.8984                   22484948.5984
   3901144.43446   3049934.10243  24680036.3134                   24680035.0084
 11  8 27  2 36  0.0000000  0  9G26G21G29G12G05G15G25G02G18
 -11869533.92247  -9238454.71145  22150310.0784                   22150309.0004
   1641155.17646   1285765.07843  24810018.2584                   24810017.1884
 -15562536.89848 -12115302.50446  21383549.7974                   21383547.7154
 -13180568.72747 -10248338.57445  23030004.7114                   23030003.6414
 -20662344.95748 -16074919.25446  21395012.7664                   21395009.7734
  -6113263.61747  -4753037.21545  22884758.4924                   22884756.7464
 -13381810.35948 -10405447.19146  22238665.7734                   22238666.2624
 -21016085.65648 -16352734.82445  22491839.1884                   22491835.2424
   3804704.46146   2974786.29742  24661684.3054                   24661682.4064
 11  8 27  2 36 30.0000000  0  9G26G21G29G12G05G15G25G02G18
 -11948588.37947  -9300055.52045  22135266.6644                   22135265.4804
   1576000.37546   1234995.19543  24797619.5314                   24797618.9574
 -15637085.89848 -12173392.59046  21369363.4064                   21369361.1374
 -13099769.42647 -10185378.09845  23045380.5234                   23045379.1724
 -20604379.32448 -16029751.23846  21406042.9844                   21406040.3164
  -6214557.62547  -4831967.52745  22865482.6804                   22865481.0864
 -13340599.55148 -10373334.85546  22246507.7424                   22246508.4344
 -20979791.00448 -16324453.27345  22498745.8444                   22498742.4144
   3708448.67646   2899782.02342  24643367.0084                   24643365.7344
 11  8 27  2 37  0.0000000  0  9G26G21G29G12G05G15G25G02G18
 -12027210.78147  -9361319.67645  22120305.7274                   22120304.0944
   1510826.89546   1184210.75843  24785217.2734                   24785216.2504
 -15711341.71148 -12231254.21946  21355233.3204                   21355230.9734
 -13018817.19547 -10122298.45345  23060785.2894                   23060783.1054
 -20546110.64148 -15984347.07046  21417131.0864                   21417128.3524
  -6315684.68447  -4910767.73045  22846238.9844                   22846237.3634
 -13298966.08648 -10340893.18746  22254430.2974                   22254430.5634
 -20943388.96947 -16296088.02345  22505673.2114                   22505669.0084
   3612377.57046   2824921.62942  24625085.4694                   24625084.2544
 11  8 27  2 37 30.0000000  0  9G26G21G29G12G05G15G25G02G18
 -12105397.54748  -9422244.36345  22105426.9224                   22105425.2934
   1445634.49246   1133411.59443  24772811.9534                   24772810.7774
 -15785301.93448 -12288885.53546  21341158.7274                   21341156.7544
 -12937715.31247 -10059102.20745  23076218.6644                   23076217.0234
 -20487541.18748 -15938708.53546  21428276.7814                   21428274.1954
  -6416641.33647  -4989435.16845  22827027.6174                   22827026.2154
 -13256912.46948 -10308124.12946  22262432.8914                   22262433.1054
 -20906879.16047 -16267638.81245  22512620.4774                   22512616.6914
   3516492.23446   2750206.01642  24606838.6644                   24606837.4224
 11  8 27  2 38  0.0000000  0  9G26G21G29G12G05G15G25G02G18
 -12183145.55948  -9482827.17245  22090632.1334                   22090630.5314
   1380422.29746   1082597.03543  24760402.1174                   24760400.7734
 -15858964.79348 -12346285.12146  21327141.1644                   21327138.8284
 -12856466.80147  -9995791.68745  23091679.2504                   23091677.6604
 -20428673.58248 -15892837.67646  21439478.8594                   21439476.1134
  -6517424.93447  -5067967.75045  22807849.3674                   22807847.1374
 -13214441.54348 -10275029.89146  22270514.8444                   22270515.0984
 -20870261.57047 -16239105.61745  22519588.3364                   22519584.9104
   3420793.93046   2675636.06642  24588627.5704                   24588626.2664
 11  8 27  2 38 30.0000000  0  9G26G21G29G12G05G15G25G02G18
 -12260450.40247  -9543064.65645  22075921.4384                   22075920.1214
   1315190.95747   1031767.48843  24747989.2194                   24747987.7194
 -15932326.84848 -12403450.32046  21313181.2734                   21313178.4614
 -12775073.92647  -9932368.68045  23107167.8834                   23107166.0594
 -20369509.36748 -15846735.68746  21450737.2274                   21450734.6094
  -6618031.01647  -5146362.01245  22788704.8054                   22788702.3794
 -13171554.98848 -10241611.77746  22278675.9224                   22278676.0744
 -20833534.33647 -16210486.99245  22526577.5234                   22526573.9534
   3325284.86746   2601213.68842  24570453.1174                   24570451.3594
 11  8 27  2 39  0.0000000  0  9G26G21G29G12G05G15G25G02G18
 -12337309.36747  -9602954.71145  22061295.7424                   22061294.1604
   1249939.18846    980922.05943  24735571.5704                   24735570.2934
 -16005386.05948 -12460379.53146  21299278.1644                   21299275.5634
 -12693540.49247  -9868836.14545  23122683.6644                   23122681.6054
 -20310051.77748 -15800405.08246  21462051.5474                   21462048.8914
  -6718457.77047  -5224616.53945  22769593.8984                   22769592.3954
 -13128256.03148 -10207872.32046  22286915.2664                   22286915.5944
 -20796697.82447 -16181783.19945  22533587.0634                   22533583.5554
   3229965.46546   2526939.05143  24552313.8134                   24552313.0354
 11  8 27  2 39 30.0000000  0  9G26G21G29G12G05G15G25G02G18
 -12413719.81248  -9662495.26645  22046755.2664                   22046753.6094
   1184665.86746    930059.81643  24723151.6334                   24723148.9344
 -16078141.15248 -12517071.77346  21285433.4064                   21285431.1094
 -12611870.21947  -9805196.96545  23138224.7274                   23138222.4104
 -20250303.97748 -15753848.34846  21473421.4774                   21473418.5204
  -6818702.71947  -5302729.40645  22750517.5554                   22750515.8914
 -13084548.03548 -10173814.13746  22295232.6804                   22295233.0164
 -20759752.78947 -16152994.86345  22540617.9384                   22540614.0274
   3134836.22746   2452812.55543  24534211.4614                   24534210.6564
 11  8 27  2 40  0.0000000  0  9G26G21G29G12G05G15G25G02G18
 -12489676.76247  -9721682.43745  22032300.5634                   22032299.2074
   1119371.95746    879181.55543  24710725.8134                   24710723.7974
 -16150587.79748 -12573523.65646  21271646.9694                   21271644.9144
 -12530064.27747  -9741452.07845  23153791.9924                   23153789.9144
 -20190266.64548 -15707066.00846  21484845.9534                   21484843.3834
  -6918760.56247  -5380696.48045  22731477.1094                   22731475.3164
 -13040432.09448 -10139438.07046  22303627.5474                   22303627.5634
 -20722697.09447 -16124120.30145  22547669.3594                   22547665.3754
   3039900.08646   2378836.52743  24516146.2424                   24516145.2664
 11  8 27  2 40 30.0000000  0  9G26G21G29G12G05G15G25G02G18
 -12565177.38748  -9780514.05145  22017933.5004                   22017931.5594
   1054056.76246    828286.70743  24698296.2114                   24698294.7504
 -16222724.02748 -12629733.66846  21257920.0554                   21257917.7664
 -12448126.43047  -9677604.41845  23169384.5084                   23169381.7734
 -20129942.97748 -15660060.54746  21496325.2734                   21496322.4774
  -7018629.03547  -5458515.99645  22712472.9844                   22712470.7584
 -12995911.24648 -10104746.48846  22312099.8754                   22312100.0864
 -20685530.59847 -16095159.39145  22554741.6954                   22554737.3754
   2945157.11746   2305011.04743  24498115.8444                   24498116.1454
 11  8 27  2 41  0.0000000  0  9G26G21G29G12G05G15G25G02G18
 -12640219.56248  -9838988.43045  22003653.4614                   22003651.4964
    988718.27746    777373.74243  24685863.1414                   24685861.2274
 -16294548.90648 -12685701.05946  21244252.1094                   21244249.5204
 -12366061.31647  -9613657.57045  23185000.3134                   23184998.7274
 -20069336.89848 -15612835.02346  21507858.2424                   21507855.5904
  -7118306.37147  -5536186.56245  22693504.6254                   22693502.7154
 -12950989.47348 -10069742.50846  22320648.0554                   22320648.3914
 -20648254.07447 -16066112.75445  22561835.2114                   22561831.1764
   2850607.77046   2231336.42243  24480124.1174                   24480123.2344
 11  8 27  2 41 30.0000000  0  9G26G21G29G12G05G15G25G02G18
 -12714798.78947  -9897102.05545  21989461.3594                   21989459.7624
    923357.34046    726443.28143  24673425.1884                   24673423.0314
 -16366058.87548 -12741423.07046  21230643.8444                   21230641.7464
 -12283870.73047  -9549612.98044  23200641.1334                   23200638.9804
 -20008449.29748 -15565390.12546  21519444.9384                   21519442.2814
  -7217788.11347  -5613704.73045  22674573.7974                   22674572.0664
 -12905668.37948 -10034427.35546  22329272.2584                   22329273.0354
 -20610866.10247 -16036979.27045  22568949.8204                   22568945.9804
   2756253.98046   2157814.16843  24462169.3914                   24462168.1884
 11  8 27  2 42  0.0000000  0  9G26G21G29G12G05G15G25G02G18
 -12788912.08647  -9954852.62545  21975358.2424                   21975356.3284
    857973.22746    675494.73843  24660983.0554                   24660980.6724
 -16437251.43048 -12796897.75046  21217096.5394                   21217094.2034
 -12201557.71946  -9485472.98045  23216304.0944                   23216303.1844
 -19947282.96148 -15517728.03546  21531084.4924                   21531081.7074
  -7317071.42247  -5691068.27745  22655680.6414                   22655678.8094
 -12859950.77048  -9998803.24246  22337972.1254                   22337972.7934
 -20573366.24248 -16007758.60545  22576086.0474                   22576081.4534
   2662097.21146   2084445.46543  24444251.9144                   24444250.5474
 11  8 27  2 42 30.0000000  0  9G26G21G29G12G05G15G25G02G18
 -12862556.32448 -10012237.69145  21961343.9924                   21961342.7854
    792565.36746    624527.71143  24648536.2114                   24648534.4454
 -16508124.93447 -12852123.82046  21203609.9694                   21203607.7344
 -12119125.18747  -9421239.85245  23231991.5704                   23231989.2934
 -19885840.60248 -15469850.85546  21542776.7424                   21542774.0124
  -7416153.34047  -5768274.89545  22636826.3914                   22636824.4804
 -12813839.59048  -9962872.44546  22346746.6254                   22346747.0314
 -20535754.39147 -15978450.67245  22583243.0234                   22583239.0704
   2568137.93846   2011230.64843  24426370.9224                   24426370.3914
 11  8 27  2 43  0.0000000  0  9G26G21G29G12G05G15G25G02G18
 -12935728.34848 -10069254.80945  21947420.2974                   21947418.0704
    727132.90646    573541.49643  24636084.1174                   24636082.6454
 -16578676.86348 -12907099.30146  21190184.3914                   21190182.0044
 -12036577.23447  -9356916.79745  23247699.3444                   23247697.9654
 -19824124.84848 -15421760.64846  21554520.5004                   21554517.7734
  -7515031.07447  -5845322.40645  22618010.7344                   22618008.4064
 -12767337.76248  -9926637.25446  22355596.0004                   22355596.1134
 -20498030.29348 -15949055.26645  22590421.7664                   22590417.7154
   2474377.22746   1938170.54743  24408529.2034                   24408528.0944
 11  8 27  2 43 30.0000000  0  9G26G21G29G12G05G15G25G02G18
 -13008425.14847 -10125901.60945  21933586.4614                   21933584.0744
    661675.29347    522535.69543  24623628.4534                   24623626.4264
 -16648905.37948 -12961822.78546  21176820.0474                   21176817.8404
 -11953916.99647  -9292506.23845  23263429.0164                   23263427.5234
 -19762138.50448 -15373459.58646  21566316.1804                   21566313.4104
  -7613702.00047  -5922208.76645  22599233.8054                   22599231.8164
 -12720448.39848  -9890100.07446  22364518.5474                   22364518.8054
 -20460194.05547 -15919572.49645  22597622.0394                   22597617.6994
   2380815.75446   1865265.71543  24390724.9924                   24390723.3674
 11  8 27  2 44  0.0000000  0  9G26G21G29G12G05G15G25G02G18
 -13080642.47347 -10182174.80145  21919843.8364                   21919841.7424
    596193.08647    471510.69543  24611167.5234                   24611165.5554
 -16718806.78947 -13016291.38746  21163518.3674                   21163515.7854
 -11871145.82047  -9228009.23845  23279180.1954                   23279178.6134
 -19699883.08248 -15324948.85246  21578162.8834                   21578160.4614
  -7712161.74647  -5998930.57045  22580497.7034                   22580495.8324
 -12673173.17648  -9853262.23845  22373514.6724                   22373514.8324
 -20422243.94947 -15890000.98845  22604844.2274                   22604839.8244
   2287455.59846   1792517.76243  24372958.7344                   24372957.6254
 11  8 27  2 44 30.0000000  0  9G26G21G29G12G05G15G25G02G18
 -13152378.11347 -10238072.65645  21906192.7734                   21906190.8674
    530684.80546    420465.39543  24598701.6884                   24598699.7114
 -16788379.81647 -13070504.09846  21150279.1254                   21150276.6804
 -11788268.35947  -9163429.42245  23294950.6644                   23294949.5204
 -19637361.82448 -15276230.97346  21590060.3444                   21590057.8984
  -7810407.75047  -6075485.82445  22561801.9304                   22561799.9694
 -12625515.66048  -9816126.50845  22382583.5004                   22382584.0704
 -20384180.22347 -15860340.93445  22612087.0234                   22612082.9614
   2194297.41846   1719927.16043  24355231.5394                   24355229.6214
 11  8 27  2 45  0.0000000  0  9G26G21G29G12G05G15G25G02G18
 -13223628.37947 -10293592.30145  21892634.3834                   21892632.7234
    465150.57046    369399.85943  24586230.3674                   24586228.0514
 -16857621.91448 -13124458.94146  21137102.8204                   21137100.2194
 -11705287.21947  -9098768.82045  23310742.6174                   23310740.2584
 -19574576.73048 -15227307.50846  21602008.0944                   21602005.3134
  -7908437.09447  -6151872.25445  22543147.7664                   22543145.6604
 -12577478.34047  -9778694.82446  22391724.7584                   22391725.3954
 -20346002.28947 -15830591.89545  22619352.2734                   22619347.8164
   2101342.51646   1647494.96543  24337541.8284                   24337540.9264
 11  8 27  2 45 30.0000000  0  9G26G21G29G12G05G15G25G02G18
 -13294389.92647 -10348731.11745  21879168.8754                   21879166.8984
    399589.72346    318313.61344  24573754.3834                   24573752.8364
 -16926530.06648 -13178153.56646  21123990.1024                   21123987.8714
 -11622205.23447  -9034029.63745  23326552.3914                   23326550.5044
 -19511530.58248 -15178180.62946  21614005.4144                   21614002.7734
  -8006246.35947  -6228087.19145  22524534.7664                   22524533.0274
 -12529063.86347  -9740969.26246  22400937.8204                   22400937.9024
 -20307709.50847 -15800753.35245  22626638.2894                   22626635.0354
   2008591.74246   1575221.79343  24319892.9144                   24319891.0944
 11  8 27  2 46  0.0000000  0  9G26G21G29G12G05G15G25G02G18
 -13364659.25447 -10403486.39145  21865796.7584                   21865795.3444
    334002.25046    267206.58243  24561273.6174                   24561271.7544
 -16995101.96548 -13231586.18046  21110940.8754                   21110938.6174
 -11539025.00047  -8969213.89845  23342380.2114                   23342378.9184
 -19448225.46948 -15128851.94946  21626051.7034                   21626049.2194
  -8103832.18747  -6304128.02345  22505964.7734                   22505962.9384
 -12480274.82847  -9702951.84446  22410221.8284                   22410221.9144
 -20269301.06647 -15770824.68045  22633947.7194                   22633943.7934
   1916046.63746   1503108.89543  24302281.4614                   24302280.4574
 11  8 27  2 46 30.0000000  0  9G26G21G29G12G05G15G25G02G18
 -13434434.09447 -10457856.34845  21852518.9694                   21852516.9024
    268387.11746    216078.01243  24548786.9924                   24548785.4844
 -17063335.99248 -13284755.50846  21097956.7274                   21097954.5004
 -11455750.32447  -8904324.55544  23358227.1254                   23358225.0314
 -19384663.93748 -15079323.46546  21638147.1954                   21638144.3674
  -8201192.10947  -6379992.82045  22487437.9304                   22487435.9774
 -12431114.74647  -9664645.28946  22419576.9924                   22419576.8674
 -20230777.73847 -15740806.50445  22641278.0394                   22641274.1334
   1823707.43847   1431156.41843  24284710.3204                   24284708.2934
 11  8 27  2 47  0.0000000  0  9G26G21G29G12G05G15G25G02G18
 -13503711.05947 -10511838.34445  21839336.3284                   21839334.4774
    202743.80146    164927.51643  24536295.1024                   24536293.7894
 -17131229.43448 -13337659.44946  21085037.0704                   21085034.0514
 -11372384.65647  -8839364.31245  23374091.1254                   23374089.2114
 -19320848.75448 -15029597.33646  21650290.4774                   21650287.7814
  -8298323.04747  -6455679.19945  22468954.2664                   22468952.0784
 -12381586.21547  -9626051.62146  22429001.8754                   22429002.0904
 -20192138.44547 -15710697.94545  22648631.3444                   22648626.9264
   1731575.56647   1359365.51243  24267177.5554                   24267177.0354
 11  8 27  2 47 30.0000000  0  9G26G21G29G12G05G15G25G02G18
 -13572486.29747 -10565429.37945  21826249.0394                   21826247.0824
    137072.80946    113755.41043  24523798.6094                   24523796.8244
 -17198779.41048 -13390295.74246  21072182.4614                   21072179.8324
 -11288929.95746  -8774334.69544  23389971.6094                   23389970.2384
 -19256781.94148 -14979675.12546  21662482.3834                   21662479.3364
  -8395221.18747  -6531184.18445  22450515.0864                   22450513.4654
 -12331691.47747  -9587172.61745  22438496.6024                   22438496.7854
 -20153382.21147 -15680498.27745  22656006.2504                   22656002.2934
   1639652.55147   1287737.37943  24249684.8834                   24249683.5044
 11  8 27  2 48  0.0000000  0  9G26G21G29G12G05G15G25G02G18
 -13640757.49647 -10618627.67645  21813257.1644                   21813255.2384
     71372.78546     62560.70343  24511296.9924                   24511294.6684
 -17265984.35548 -13442663.18746  21059393.7584                   21059391.1764
 -11205389.80947  -8709238.49644  23405869.0864                   23405867.4494
 -19192466.53148 -14929559.20746  21674721.2974                   21674718.4064
  -8491884.23047  -6606505.96545  22432120.6644                   22432118.8874
 -12281434.21547  -9548011.10946  22448060.3204                   22448060.2544
 -20114509.35947 -15650207.73045  22663403.3364                   22663399.6914
   1547938.68447   1216272.19943  24232232.5704                   24232230.6024
 11  8 27  2 48 30.0000000  0  9G26G21G29G12G05G15G25G02G18
 -13708521.20347 -10671430.51245  21800362.3134                   21800360.2234
      5643.70746     11343.34843  24498788.7664                   24498786.4064
 -17332841.52348 -13494759.63346  21046671.3364                   21046668.8014
 -11121766.83247  -8644077.77344  23421782.3204                   23421780.5234
 -19127904.40248 -14879251.03946  21687006.7194                   21687003.8874
  -8588308.46547  -6681641.66845  22413771.7974                   22413769.8634
 -12230816.72747  -9508568.91445  22457692.4534                   22457692.7774
 -20075519.10247 -15619825.69545  22670823.1644                   22670818.6884
   1456435.28547   1144971.02343  24214820.5234                   24214819.1054
 11  8 27  2 49  0.0000000  0  9G26G21G29G12G05G15G25G02G18
 -13775774.66447 -10723835.74645  21787564.1884                   21787562.5594
    -60115.01646    -39897.10944  24486275.1174                   24486273.0944
 -17399349.04348 -13546583.62946  21034015.3134                   21034012.6024
 -11038064.91447  -8578855.51244  23437710.5944                   23437708.0514
 -19063098.60248 -14828753.00046  21699338.8524                   21699336.0274
  -8684491.23847  -6756589.23045  22395468.9774                   22395466.9264
 -12179842.36347  -9468848.63746  22467392.4774                   22467392.9884
 -20036411.28547 -15589352.06645  22678264.9064                   22678260.3714
   1365143.05147   1073834.39843  24197447.6094                   24197446.0594
 11  8 27  2 49 30.0000000  0  9G26G21G29G12G05G15G25G02G18
 -13842515.01247 -10775841.16045  21774863.8984                   21774862.1374
   -125904.16446    -91161.26644  24473755.8914                   24473754.1804
 -17465504.51248 -13598133.30146  21021426.0554                   21021423.4534
 -10954286.96547  -8513574.01645  23453653.1644                   23453651.1374
 -18998051.53948 -14778066.96146  21711717.0634                   21711714.2974
  -8780429.79747  -6831346.49245  22377212.4844                   22377210.0594
 -12128514.10947  -9428852.59446  22477159.9844                   22477159.9924
 -19997185.52747 -15558786.52045  22685729.3134                   22685725.3794
   1274062.84447   1002862.96143  24180115.1414                   24180113.8594
 11  8 27  2 50  0.0000000  0  9G26G21G29G12G05G15G25G02G18
 -13908738.22747 -10827443.60945  21762261.8754                   21762260.1414
   -191723.31646   -142448.79344  24461230.8364                   24461229.0514
 -17531305.00048 -13649406.35546  21008904.5634                   21008902.5594
 -10870435.13347  -8448234.94545  23469609.1954                   23469607.5704
 -18932765.12548 -14727194.41846  21724140.5864                   21724137.6294
  -8876120.00847  -6905910.22745  22359003.5474                   22359001.0434
 -12076834.04347  -9388582.41846  22486994.5634                   22486994.7194
 -19957840.69147 -15528128.19945  22693216.1804                   22693212.6684
   1183196.30946    932058.00843  24162823.9304                   24162822.9104
 11  8 27  2 50 30.0000000  0  9G26G21G29G12G05G15G25G02G18
 -13974441.75047 -10878641.10545  21749759.1804                   21749757.0314
   -257573.25846   -193760.33644  24448700.0474                   24448698.1174
 -17596748.14848 -13700400.96546  20996451.5004                   20996449.0784
 -10786512.80147  -8382840.94545  23485578.8204                   23485577.1644
 -18867241.53148 -14676137.05546  21736609.2194                   21736606.6954
  -8971559.44547  -6980278.57045  22340841.0474                   22340838.7154
 -12024805.27347  -9348040.52046  22496895.1334                   22496895.2424
 -19918376.68047 -15497377.02745  22700725.8594                   22700722.1054
   1092544.23846    861420.23443  24145572.8674                   24145572.2234
 11  8 27  2 51  0.0000000  0  9G26G21G29G12G05G15G25G02G18
 -14039622.34447 -10929431.12946  21737355.1564                   21737353.5984
   -323454.33246   -245096.13344  24436163.3054                   24436161.5274
 -17661831.98848 -13751115.60246  20984066.1884                   20984063.7584
 -10702523.37147  -8317394.66845  23501561.6724                   23501559.6914
 -18801483.71548 -14624897.18446  21749122.3674                   21749119.9454
  -9066744.85947  -7054448.96545  22322728.5234                   22322725.9924
 -11972430.92247  -9307229.34046  22506861.5004                   22506861.7424
 -19878792.73447 -15466532.38745  22708258.9534                   22708254.6884
   1002107.71946    790950.39543  24128363.2974                   24128361.6374
 11  8 27  2 51 30.0000000  0  9G26G21G29G12G05G15G25G02G18
 -14104276.97347 -10979811.30946  21725051.9534                   21725050.0664
   -389366.43746   -296456.11344  24423620.1334                   24423619.0594
 -17726553.83248 -13801548.15646  20971750.2664                   20971747.4734
 -10618468.65247  -8251897.51645  23517557.0084                   23517555.4024
 -18735493.49248 -14573476.20346  21761679.8054                   21761677.1334
  -9161672.73447  -7128418.67645  22304664.1954                   22304661.5554
 -11919713.34047  -9266150.69945  22516893.6564                   22516893.7034
 -19839088.37947 -15435593.91845  22715814.5084                   22715810.0084
    911888.02346    720649.50843  24111195.5554                   24111193.6484
 11  8 27  2 52  0.0000000  0  9G26G21G29G12G05G15G25G02G18
 -14168403.18448 -11029779.74245  21712849.1484                   21712847.4884
   -455310.75846   -347841.20743  24411072.0314                   24411069.5824
 -17790911.74248 -13851697.13746  20959502.9844                   20959500.5864
 -10534352.90247  -8186352.81245  23533563.5944                   23533561.9304
 -18669274.16048 -14521876.72346  21774281.0004                   21774278.4734
  -9256340.50847  -7202185.73045  22286649.4224                   22286646.9654
 -11866656.24247  -9224807.50445  22526989.7664                   22526990.1024
 -19799263.49647 -15404561.54345  22723392.3134                   22723388.8834
    821885.33246    650517.72743  24094067.9384                   24094066.2034
 11  8 27  2 52 30.0000000  0  9G26G21G29G12G05G15G25G02G18
 -14231996.93447 -11079333.26645  21700747.5164                   21700745.5784
   -521286.72346   -399250.94144  24398516.5704                   24398514.6524
 -17854902.53548 -13901560.05546  20947325.9384                   20947323.7854
 -10450178.02046  -8120762.02344  23549581.2504                   23549580.7934
 -18602826.91048 -14470099.62546  21786925.5004                   21786922.8594
  -9350744.33247  -7275747.09845  22268684.5784                   22268682.7274
 -11813261.42647  -9183201.16045  22537150.6094                   22537150.8874
 -19759316.45747 -15373433.98845  22730994.1414                   22730991.0904
    732101.66847    580556.59043  24076982.8674                   24076980.9024
 11  8 27  2 53  0.0000000  0  9G26G21G29G12G05G15G25G02G18
 -14295056.59447 -11128470.61345  21688747.8754                   21688745.8524
   -587295.67246   -450686.39843  24385955.7034                   24385953.4344
 -17918525.23848 -13951136.14846  20935219.0084                   20935216.6844
 -10365948.18746  -8055128.45344  23565610.2894                   23565608.5204
 -18536155.73848 -14418148.05546  21799612.5084                   21799609.8794
  -9444882.56247  -7349101.49645  22250771.1024                   22250768.9024
 -11759533.32047  -9141335.09045  22547374.4384                   22547374.4454
 -19719248.57847 -15342212.25845  22738618.9224                   22738615.3794
    642536.98847    510766.07843  24059938.8984                   24059936.7974
 11  8 27  2 53 30.0000000  0  9G26G21G29G12G05G15G25G02G18
 -14357579.02747 -11177189.34046  21676849.6334                   21676848.0044
   -653337.54747   -502147.50843  24373388.3984                   24373385.4224
 -17981777.39848 -14000423.50846  20923182.6564                   20923179.8204
 -10281666.01647  -7989454.06644  23581647.5784                   23581646.8914
 -18469262.36348 -14366023.33646  21812342.0784                   21812339.2464
  -9538751.33647  -7422245.94145  22232908.1254                   22232906.2114
 -11705474.19147  -9099211.09045  22557661.6334                   22557662.0514
 -19679058.78147 -15310895.53945  22746267.0784                   22746263.3874
    553192.05547    441146.79743  24042937.1024                   24042935.0594
 11  8 27  2 54  0.0000000  0  9G26G21G29G12G05G15G25G02G18
 -14419561.00848 -11225486.93745  21665055.4614                   21665053.7814
   -719413.10247   -553634.89843  24360814.4304                   24360810.9654
 -18044656.28148 -14049420.00046  20911216.7504                   20911214.6254
 -10197334.64147  -7923741.35944  23597696.0164                   23597694.4694
 -18402149.35548 -14313727.48046  21825112.8834                   21825110.8094
  -9632347.83647  -7495178.22746  22215096.9774                   22215095.1764
 -11651087.22747  -9056831.63345  22568011.0634                   22568011.6454
 -19638746.67647 -15279483.50845  22753938.1954                   22753934.4414
    464067.71947    371699.40243  24025977.7664                   24025975.3094
 11  8 27  2 54 30.0000000  0  9G26G21G29G12G05G15G25G02G18
 -14481000.23048 -11273361.61745  21653363.8204                   21653361.8284
   -785522.94947   -605148.99243  24348234.4844                   24348230.7034
 -18107160.02348 -14098124.16846  20899322.8674                   20899320.0904
 -10112957.14547  -7857992.70344  23613752.5234                   23613750.9734
 -18334819.12148 -14261262.35946  21837925.6564                   21837922.9064
  -9725669.44547  -7567896.30946  22197338.9454                   22197336.6094
 -11596375.72347  -9014199.29345  22578422.3284                   22578422.4774
 -19598312.05547 -15247975.99645  22761631.9304                   22761628.4924
    375164.93847    302424.62143  24009060.1804                   24009057.2194
 11  8 27  2 55  0.0000000  0  9G26G21G29G12G05G15G25G02G18
 -14541892.91448 -11320810.41845  21641776.4694                   21641774.7814
   -851666.34447   -656689.22743  24335647.2424                   24335644.6844
 -18169285.86748 -14146533.88346  20887500.8134                   20887498.3364
 -10028536.21147  -7792210.19544  23629817.9534                   23629815.3914
 -18267273.95348 -14208629.74246  21850779.0474                   21850776.0434
  -9818712.27747  -7640397.15645  22179633.5164                   22179631.0354
 -11541341.91447  -8971315.81245  22588895.0234                   22588895.5434
 -19557753.77047 -15216372.13745  22769350.4614                   22769346.4224
    286485.30947    233323.70743  23992183.9224                   23992181.9654
 11  8 27  2 55 30.0000000  0  9G26G21G29G12G05G15G25G02G18
 -14602236.74647 -11367831.53946  21630292.8444                   21630291.0204
   -917844.64547   -708256.66444  24323053.9144                   24323050.2274
 -18231031.46948 -14194647.29746  20875750.7504                   20875748.0634
  -9944074.58247  -7726395.97344  23645890.0234                   23645887.8524
 -18199516.27748 -14155831.55546  21863673.0784                   21863670.2344
  -9911473.46947  -7712678.55145  22161981.2034                   22161979.0084
 -11485989.01247  -8928183.68745  22599428.3834                   22599428.7624
 -19517071.67247 -15184671.80145  22777092.2424                   22777088.0474
    198029.17647    164396.97743  23975351.6334                   23975349.8324
 11  8 27  2 56  0.0000000  0  9G26G21G29G12G05G15G25G02G18
 -14662029.10548 -11414422.93445  21618914.7664                   21618912.8674
   -984057.88747   -759851.32043  24310453.9064                   24310451.5664
 -18292395.10548 -14242463.08646  20864073.7274                   20864070.9264
  -9859575.76247  -7660552.74244  23661969.7034                   23661967.7304
 -18131548.78948 -14102869.86746  21876606.5704                   21876603.8014
 -10003950.41847  -7784738.46145  22144383.4224                   22144381.4654
 -11430320.34047  -8884805.50445  22610021.7734                   22610021.9694
 -19476265.37547 -15152874.68045  22784857.2194                   22784853.1724
    109797.26646     95644.98843  23958561.0944                   23958559.7114
 11  8 27  2 56 30.0000000  0  9G26G21G29G12G05G15G25G02G18
 -14721266.32848 -11460581.76646  21607642.2974                   21607640.2424
  -1050306.04346   -811473.16444  24297847.4304                   24297844.6484
 -18353373.39548 -14289978.59846  20852469.8284                   20852467.3444
  -9775041.56247  -7594681.96944  23678056.3364                   23678054.3134
 -18063372.90248 -14049745.79746  21889580.1884                   21889576.9694
 -10096138.98447  -7856573.65646  22126840.4224                   22126838.6294
 -11374337.94547  -8841182.85945  22620674.6954                   22620675.0864
 -19435333.63347 -15120979.81645  22792646.3054                   22792641.8094
     21791.33646     27069.05943  23941814.1414                   23941812.7544
 11  8 27  2 57  0.0000000  0  9G26G21G29G12G05G15G25G02G18
 -14779944.88748 -11506305.27346  21596475.9774                   21596474.0594
  -1116588.64846   -863121.84843  24285233.7814                   24285231.5864
 -18413963.58648 -14337191.69546  20840939.5474                   20840937.1374
  -9690474.69947  -7528785.71944  23694148.5004                   23694146.6644
 -17994990.59048 -13996460.86746  21902592.7424                   21902590.1294
 -10188035.90247  -7928181.59046  22109353.3754                   22109351.1604
 -11318044.42247  -8797317.77746  22631386.9844                   22631387.9104
 -19394275.60247 -15088986.52745  22800459.2114                   22800455.6294
    -65987.58646    -41329.94543  23925109.7504                   23925108.6804
 11  8 27  2 57 30.0000000  0  9G26G21G29G12G05G15G25G02G18
 -14838063.54348 -11551592.48845  21585416.4384                   21585414.4734
  -1182907.19946   -914798.55543  24272613.4774                   24272611.6024
 -18474164.81648 -14384101.71147  20829483.9064                   20829481.2624
  -9605879.48047  -7462867.41844  23710246.7664                   23710244.8754
 -17926405.07448 -13943017.60246  21915644.3444                   21915641.6684
 -10279639.18047  -7999560.71146  22091921.7424                   22091919.5744
 -11261443.78147  -8753213.38745  22642157.5864                   22642157.7664
 -19353091.65247 -15056895.12945  22808296.2814                   22808292.3444
   -153539.47346   -109552.03943  23908449.4694                   23908447.8554
 11  8 27  2 58  0.0000000  0  9G26G21G29G12G05G15G25G02G18
 -14895619.33648 -11596441.11746  21574464.3444                   21574462.1954
  -1249261.77046   -966503.31643  24259986.7504                   24259984.6214
 -18533974.94148 -14430706.96947  20818102.3444                   20818099.9804
  -9521258.72347  -7396929.18044  23726349.0084                   23726347.8984
 -17857619.13748 -13889418.16846  21928733.9064                   21928730.9734
 -10370945.75847  -8070708.64546  22074546.8284                   22074544.1454
 -11204539.21147  -8708872.16845  22652986.3444                   22652986.5164
 -19311781.57047 -15024705.45745  22816157.5634                   22816153.5514
   -240863.28146   -177596.41843  23891832.3914                   23891831.0004
 11  8 27  2 58 30.0000000  0  9G26G21G29G12G05G15G25G02G18
 -14952609.16048 -11640848.73446  21563619.1174                   21563617.0274
  -1315652.53146  -1018236.25043  24247353.0004                   24247350.4844
 -18593391.30148 -14477005.39547  20806795.8204                   20806793.6454
  -9436614.79747  -7330972.94544  23742456.5784                   23742455.1844
 -17788634.38348 -13835663.81246  21941861.2734                   21941858.6094
 -10461952.03547  -8141622.57446  22057228.5784                   22057226.2344
 -11147333.08247  -8664295.96945  22663872.3914                   22663872.5784
 -19270344.14847 -14992416.54745  22824042.6954                   22824038.6134
   -327957.90246   -245462.21943  23875259.0944                   23875257.1214
 11  8 27  2 59  0.0000000  0  9G26G21G29G12G05G15G25G02G18
 -15009030.33248 -11684813.23045  21552882.5234                   21552880.2344
  -1382079.59846  -1069997.53143  24234712.6884                   24234709.4304
 -18652411.07448 -14522994.78547  20795564.7424                   20795562.5394
  -9351950.47347  -7265000.79744  23758567.0084                   23758566.0514
 -17719453.16048 -13781756.36346  21955025.9304                   21955023.2304
 -10552654.91847  -8212300.09446  22039968.2584                   22039965.8244
 -11089828.43747  -8619487.16045  22674815.0554                   22674815.5084
 -19228779.14547 -14960028.21145  22831952.1024                   22831948.0744
   -414822.46946   -313148.76244  23858728.7584                   23858726.9344
 11  8 27  2 59 30.0000000  0  9G26G21G29G12G05G15G25G02G18
 -15064879.74648 -11728332.22745  21542254.4924                   21542252.3794
  -1448543.25447  -1121787.31243  24222064.4614                   24222061.5474
 -18711032.31648 -14568673.64147  20784409.2194                   20784406.2704
  -9267268.73847  -7199015.08644  23774681.5474                   23774680.5944
 -17650077.98048 -13727697.77746  21968227.4614                   21968224.7664
 -10643051.43447  -8282738.88746  22022766.6644                   22022763.7974
 -11032028.31647  -8574448.09845  22685814.6564                   22685815.0314
 -19187085.89147 -14927539.94945  22839885.8984                   22839882.1844
   -501456.18046   -380655.43444  23842242.9144                   23842240.9614
 11  8 27  3  0  0.0000000  0  9G26G21G29G12G05G15G25G02G18
 -15120155.21948 -11771403.98446  21531736.3284                   21531733.8984
  -1515043.78146  -1173605.82444  24209409.5234                   24209407.3984
 -18769252.62548 -14614040.07446  20773330.2894                   20773327.8054
  -9182572.47347  -7133018.04744  23790799.4614                   23790797.7344
 -17580511.10548 -13673489.80946  21981466.0474                   21981463.2274
 -10733138.69147  -8352936.69946  22005622.9454                   22005620.5664
 -10973935.73447  -8529181.14545  22696868.6564                   22696869.1054
 -19145263.93047 -14894951.39545  22847844.6564                   22847840.2194
   -587858.08246   -447981.49244  23825801.6484                   23825799.4734
 11  8 27  3  0 30.0000000  0  9G26G21G29G12G05G15G25G02G18
 -15174853.64848 -11814026.09045  21521327.0864                   21521325.2934
  -1581581.11747  -1225453.03943  24196748.0704                   24196745.6914
 -18827069.55548 -14659092.18746  20762328.3204                   20762325.8874
  -9097864.30147  -7067011.71544  23806919.1024                   23806917.4654
 -17510754.26648 -13619133.82846  21994740.2274                   21994737.3164
 -10822913.44947  -8422891.02046  21988539.8914                   21988537.1804
 -10915553.38347  -8483688.40245  22707978.4454                   22707979.1374
 -19103312.54747 -14862261.98845  22855827.5944                   22855823.4104
   -674027.37547   -515126.30144  23809403.5634                   23809402.0554
 11  8 27  3  1  0.0000000  0  9G26G21G29G12G05G15G25G02G18
 -15228973.53548 -11856197.38345  21511028.7114                   21511026.3754
  -1648156.95746  -1277330.24244  24184079.3054                   24184076.4494
 -18884482.01248 -14703829.13347  20751403.1254                   20751400.9844
  -9013148.39847  -7000999.37144  23823039.5394                   23823038.2344
 -17440811.33248 -13564632.84446  22008049.7664                   22008046.8834
 -10912373.64547  -8492600.20746  21971516.2034                   21971513.5044
 -10856885.48047  -8437973.16445  22719143.1884                   22719142.9964
 -19061232.29747 -14829472.18044  22863835.1174                   22863831.1294
   -759964.25047   -582090.00044  23793050.8054                   23793048.0594
 11  8 27  3  1 30.0000000  0  9G26G21G29G12G05G15G25G02G18
 -15282511.96148 -11897915.60946  21500840.7734                   21500838.7814
  -1714770.82447  -1329237.09444  24171403.1954                   24171400.5124
 -18941487.64548 -14748249.07447  20740554.9924                   20740552.6764
  -8928426.91447  -6934982.69544  23839162.0314                   23839160.3054
 -17370684.05148 -13509988.19946  22021394.6414                   22021391.9454
 -11001515.85947  -8562061.63346  21954552.5474                   21954550.2544
 -10797934.72747  -8392037.49645  22730360.3754                   22730361.3284
 -19019022.30147 -14796581.28945  22871867.4614                   22871863.6954
   -845667.91447   -648872.00443  23776741.7504                   23776738.9344
 11  8 27  3  2  0.0000000  0  9G26G21G29G12G05G15G25G02G18
 -15335466.06648 -11939178.50446  21490763.8524                   21490761.3554
  -1781423.13747  -1381173.87144  24158719.5474                   24158716.7704
 -18998083.71948 -14792349.87547  20729785.2504                   20729782.4344
  -8843702.75847  -6868963.91044  23855284.4844                   23855282.3364
 -17300374.42648 -13455201.47346  22034773.9614                   22034771.0004
 -11090336.89147  -8631272.77746  21937650.5864                   21937648.2304
 -10738703.85248  -8345883.56245  22741631.7114                   22741632.3954
 -18976681.88347 -14763588.75045  22879925.4614                   22879920.5044
   -931136.69146   -715470.96143  23760477.2344                   23760474.6174
 11  8 27  3  2 30.0000000  0  9G26G21G29G12G05G15G25G02G18
 -15387833.08648 -11979983.93446  21480798.7194                   21480796.8284
  -1848113.62146  -1433140.40244  24146028.8754                   24146026.0314
 -19054267.94548 -14836129.76247  20719094.0314                   20719091.0594
  -8758978.68447  -6802945.18044  23871407.1174                   23871404.5474
 -17229884.56248 -13400274.30946  22048187.5944                   22048184.7424
 -11178833.63747  -8700231.23046  21920810.2114                   21920808.0434
 -10679195.69547  -8299513.57445  22752956.1094                   22752956.4344
 -18934210.08647 -14730493.83645  22888007.0944                   22888002.7384
  -1016369.90247   -781886.36343  23744258.2344                   23744255.4304
 11  8 27  3  3  0.0000000  0  9G26G21G29G12G05G15G25G02G18
 -15439609.70348 -12020329.31645  21470945.8834                   21470944.0124
  -1914842.03947  -1485136.48044  24133330.4454                   24133328.2464
 -19110037.33248 -14879586.39147  20708480.7974                   20708478.0084
  -8674256.49647  -6736927.91844  23887529.1414                   23887527.0784
 -17159216.28148 -13345208.11746  22061635.2974                   22061632.7194
 -11267002.21548  -8768933.96946  21904031.9844                   21904029.9104
 -10619412.56247  -8252929.32445  22764332.0004                   22764332.7934
 -18891605.73447 -14697295.62944  22896114.0474                   22896109.7194
  -1101366.07046   -848117.07843  23728083.0634                   23728080.9224
 11  8 27  3  3 30.0000000  0  9G26G21G29G12G05G15G25G02G18
 -15490795.02748 -12060213.94546  21461205.5474                   21461203.3634
  -1981609.94547  -1537163.33244  24120625.1254                   24120623.1484
 -19165391.27048 -14922719.30947  20697947.6954                   20697944.7734
  -8589540.83647  -6670915.78144  23903649.9454                   23903648.1134
 -17088373.26247 -13290005.76246  22075116.2664                   22075113.7194
 -11354841.14847  -8837379.84446  21887316.8754                   21887314.3014
 -10559359.10247  -8206134.40645  22775760.3284                   22775760.0204
 -18848870.10247 -14663995.15645  22904247.1724                   22904242.4534
  -1186125.79346   -914163.50843  23711953.4694                   23711951.5434
 11  8 27  3  4  0.0000000  0  9G26G21G29G12G05G15G25G02G18
 -15541385.80548 -12099635.29746  21451578.3834                   21451576.3014
  -2048416.76247  -1589220.50044  24107912.0234                   24107910.0044
 -19220326.58248 -14965526.02347  20687493.7974                   20687491.0984
  -8504833.64147  -6604910.19944  23919769.2194                   23919767.3484
 -17017356.65648 -13234668.14146  22088630.2114                   22088627.6724
 -11442346.92248  -8905566.10946  21870665.0554                   21870662.7774
 -10499037.55147  -8159130.60545  22787239.4534                   22787239.3634
 -18806001.86747 -14630591.32844  22912403.5554                   22912399.8554
  -1270647.89846   -980024.78943  23695869.5004                   23695867.1604
 11  8 27  3  4 30.0000000  0  9G26G21G29G12G05G15G25G02G18
 -15591380.17647 -12138591.91446  21442064.8594                   21442062.5474
  -2115263.16847  -1641308.53144  24095191.3834                   24095189.3524
 -19274842.13348 -15008005.65247  20677119.7894                   20677117.1134
  -8420138.37947  -6538913.93444  23935886.0474                   23935884.3754
 -16946169.56247 -13179197.68046  22102176.8204                   22102174.0274
 -11529517.08248  -8973490.85546  21854076.9924                   21854074.7854
 -10438451.66047  -8111920.81645  22798768.0944                   22798768.3634
 -18763000.95347 -14597084.12944  22920586.7034                   22920582.2074
  -1354932.25446  -1045700.78143  23679830.7734                   23679828.7504
 11  8 27  3  5  0.0000000  0  9G26G21G29G12G05G15G25G02G18
 -15640776.28148 -12177082.34446  21432664.8674                   21432662.7274
  -2182150.35947  -1693428.34044  24082463.5164                   24082460.9734
 -19328936.17248 -15050156.82447  20666826.2344                   20666823.3094
  -8335458.70346  -6472929.81644  23952000.3594                   23951998.4654
 -16874815.00847 -13123596.71946  22115754.9064                   22115752.3324
 -11616349.10948  -9041152.13346  21837553.8524                   21837551.7624
 -10377605.08247  -8064507.90245  22810346.8594                   22810347.3754
 -18719867.67647 -14563473.79345  22928795.0164                   22928790.5904
  -1438978.41847  -1111191.19143  23663837.4064                   23663835.0984
 11  8 27  3  5 30.0000000  0  9G26G21G29G12G05G15G25G02G18
 -15689571.15248 -12215104.28946  21423379.6484                   21423377.6054
  -2249077.65647  -1745579.40644  24069727.6644                   24069724.5044
 -19382605.92648 -15091977.38747  20656613.0004                   20656610.1954
  -8250796.77746  -6406959.53144  23968110.4694                   23968109.2274
 -16803294.78148 -13067866.66846  22129364.7504                   22129362.0314
 -11702839.62148  -9108547.28546  21821094.9144                   21821092.4964
 -10316500.23847  -8016893.74245  22821974.8054                   22821975.2114
 -18676600.79747 -14529759.33244  22937028.1724                   22937024.6954
  -1522785.33246  -1176495.18044  23647889.5084                   23647887.5124
 11  8 27  3  6  0.0000000  0  9G26G21G29G12G05G15G25G02G18
 -15737762.95348 -12252656.30546  21414209.3134                   21414207.0514
  -2316046.08247  -1797762.51644  24056983.6644                   24056980.4144
 -19435849.77048 -15133466.07047  20646480.8134                   20646478.3284
  -8166155.77046  -6341005.55144  23984218.0944                   23984216.2504
 -16731611.52748 -13012009.58646  22143005.9304                   22143003.4304
 -11788986.08248  -9175674.35246  21804701.7584                   21804699.3094
 -10255140.78948  -7969081.19145  22833650.7274                   22833651.7854
 -18633200.39147 -14495940.84845  22945287.5004                   22945283.0944
  -1606352.99647  -1241612.73444  23631987.4844                   23631985.0904
 11  8 27  3  6 30.0000000  0  9G26G21G29G12G05G15G25G02G18
 -15785348.86347 -12289736.19946  21405153.6024                   21405151.3714
  -2383055.52747  -1849977.59044  24044232.0864                   24044229.1684
 -19488665.24248 -15174620.96947  20636430.5314                   20636427.9024
  -8081538.26247  -6275069.88344  24000319.3524                   24000318.2974
 -16659766.77747 -12956026.67646  22156677.7664                   22156674.7504
 -11874785.29348  -9242530.83246  21788374.5704                   21788372.2034
 -10193529.35547  -7921072.28945  22845375.0084                   22845375.7234
 -18589665.40247 -14462017.48845  22953571.4614                   22953567.6454
  -1689679.84846  -1306542.65644  23616130.4534                   23616128.5904
 11  8 27  3  7  0.0000000  0  9G26G21G29G12G05G15G25G02G18
 -15832326.49247 -12326342.10946  21396213.8054                   21396211.8014
  -2450106.19147  -1902224.79743  24031472.1414                   24031469.5044
 -19541050.17648 -15215440.37547  20626461.9774                   20626459.4384
  -7996947.04746  -6209154.69544  24016416.6414                   24016415.2304
 -16587762.92647 -12899919.77046  22170379.6174                   22170376.4654
 -11960234.16048  -9309114.32046  21772114.3204                   21772112.0704
 -10131669.08648  -7872869.50445  22857146.7664                   22857147.3134
 -18545995.63747 -14427989.12944  22961881.3134                   22961877.7194
  -1772765.30147  -1371284.47344  23600319.4614                   23600317.9924
 11  8 27  3  7 30.0000000  0  9G26G21G29G12G05G15G25G02G18
 -15878693.66447 -12362472.33646  21387390.2114                   21387388.3714
  -2517197.59447  -1954503.71143  24018705.6414                   24018702.5274
 -19593002.21948 -15255922.46147  20616576.0164                   20616573.1524
  -7912384.41847  -6143261.79744  24032508.3524                   24032507.0744
 -16515601.99247 -12843690.47746  22184110.9774                   22184108.6374
 -12045329.55148  -9375422.37546  21755921.1954                   21755918.6484
 -10069562.83648  -7824475.04345  22868965.4384                   22868966.1024
 -18502190.17647 -14393855.03144  22970217.2504                   22970213.8324
  -1855608.78547  -1435837.75044  23584555.4224                   23584552.9064
 11  8 27  3  8  0.0000000  0  9G26G21G29G12G05G15G25G02G18
 -15924447.85248 -12398124.91446  21378684.0314                   21378681.7194
  -2584330.29746  -2006814.82443  24005930.7344                   24005927.1454
 -19644519.36748 -15296065.67247  20606772.5164                   20606769.5044
  -7827853.55147  -6077393.64844  24048594.5634                   24048593.1804
 -16443286.40247 -12787340.65646  22197872.3284                   22197869.5594
 -12130068.81648  -9441452.93446  21739795.7584                   21739793.1764
 -10007213.69147  -7775891.31645  22880829.5944                   22880830.1724
 -18458248.53547 -14359614.81645  22978579.2584                   22978575.3484
  -1938209.48447  -1500201.84844  23568837.1094                   23568834.5824
 11  8 27  3  8 30.0000000  0  9G26G21G29G12G05G15G25G02G18
 -15969586.13748 -12433297.57846  21370094.3914                   21370092.2854
  -2651503.92246  -2059157.82844  23993147.9144                   23993144.4224
 -19695598.55548 -15335867.61747  20597052.5474                   20597049.5784
  -7743356.74647  -6011552.04344  24064674.0314                   24064672.3914
 -16370817.35247 -12730871.26646  22211662.4384                   22211659.9654
 -12214448.14548  -9507203.02046  21723738.2974                   21723736.6174
  -9944623.98047  -7727120.13745  22892740.1804                   22892741.1524
 -18414169.43447 -14325267.46144  22986967.2194                   22986962.5744
  -2020566.08247  -1564375.73844  23553164.9304                   23553162.6604
 11  8 27  3  9  0.0000000  0  9G26G21G29G12G05G15G25G02G18
 -16014107.94948 -12467989.86346  21361621.9844                   21361620.2464
  -2718719.68446  -2111533.66844  23980356.6334                   23980353.7034
 -19746239.49248 -15375328.06247  20587415.5704                   20587413.0434
  -7658898.08247  -5945740.12544  24080745.7114                   24080743.6764
 -16298199.07848 -12674285.60246  22225481.9384                   22225478.8364
 -12298466.16448  -9572671.56646  21707750.6174                   21707748.3094
  -9881798.50847  -7678165.26245  22904695.2424                   22904696.1054
 -18369954.14147 -14290813.98844  22995381.0784                   22995376.6914
  -2102679.42247  -1628360.07844  23537539.0234                   23537536.1914
 11  8 27  3  9 30.0000000  0  9G26G21G29G12G05G15G25G02G18
 -16058010.32048 -12502199.46546  21353267.9064                   21353265.7114
  -2785977.28547  -2163942.11344  23967558.1094                   23967554.3984
 -19796439.52748 -15414444.94947  20577862.7894                   20577860.1994
  -7574479.27047  -5879959.27044  24096809.7974                   24096808.2034
 -16225432.71947 -12617584.54345  22239328.6254                   22239325.8204
 -12382118.94548  -9637855.50446  21691832.0554                   21691829.5004
  -9818739.57047  -7629028.44145  22916695.4224                   22916695.8204
 -18325601.30547 -14256253.34444  23003821.2814                   23003817.1454
  -2184548.25047  -1692153.89544  23521959.5704                   23521957.2274
 11  8 27  3 10  0.0000000  0  9G26G21G29G12G05G15G25G02G18
 -16101291.00848 -12535924.63746  21345031.6954                   21345029.5634
  -2853276.73446  -2216383.17644  23954751.3834                   23954748.5784
 -19846196.71948 -15453216.75847  20568394.2034                   20568391.4884
  -7490103.38747  -5814211.88744  24112865.8674                   24112864.9494
 -16152520.51647 -12560769.83646  22253203.0944                   22253200.7424
 -12465404.10948  -9702753.00046  21675983.0944                   21675981.2974
  -9755450.27747  -7579712.12145  22928739.5864                   22928739.5084
 -18281110.61347 -14221585.26644  23012287.8444                   23012283.4654
  -2266172.04747  -1755756.77043  23506427.1334                   23506424.5124
 11  8 27  3 10 30.0000000  0  9G26G21G29G12G05G15G25G02G18
 -16143948.52048 -12569164.22346  21336913.9694                   21336911.7384
  -2920619.32447  -2268857.84844  23941936.5394                   23941933.4534
 -19895509.29348 -15491642.11747  20559010.7034                   20559008.1134
  -7405773.71947  -5748500.53544  24128914.0554                   24128911.9964
 -16079465.35947 -12503843.75445  22267104.8834                   22267102.4494
 -12548319.47347  -9767362.32846  21660204.9924                   21660202.9344
  -9691934.50047  -7530219.32845  22940826.0784                   22940826.0314
 -18236482.07447 -14186809.78945  23020779.9454                   23020775.8834
  -2347550.87946  -1819168.74643  23490941.0084                   23490938.0354
 11  8 27  3 11  0.0000000  0  9G26G21G29G12G05G15G25G02G18
 -16185980.72748 -12601916.54746  21328915.7974                   21328913.5164
  -2988004.39146  -2321365.59844  23929113.3754                   23929110.8404
 -19944374.74648 -15529719.07447  20549711.6174                   20549708.9264
  -7321492.92647  -5682827.18444  24144951.5704                   24144949.9414
 -16006269.27347 -12446807.84046  22281034.2274                   22281031.1684
 -12630861.40648  -9831680.68746  21644497.7664                   21644495.2274
  -9628194.88748  -7480552.10945  22952954.9304                   22952955.5004
 -18191714.71547 -14151926.14145  23029298.9384                   23029295.0274
  -2428683.60547  -1882388.98443  23475502.5164                   23475499.1644
 11  8 27  3 11 30.0000000  0  9G26G21G29G12G05G15G25G02G18
 -16227384.96548 -12634179.56246  21321036.4694                   21321034.3524
  -3055432.35946  -2373906.80544  23916282.1564                   23916279.5634
 -19992791.70748 -15567446.55147  20540498.3284                   20540495.2344
  -7237263.62146  -5617194.02744  24160979.9064                   24160978.6024
 -15932934.02747 -12389663.50045  22294989.1644                   22294986.6294
 -12713027.37948  -9895706.07846  21628862.3914                   21628859.2974
  -9564234.50847  -7430712.87145  22965125.9774                   22965126.2974
 -18146808.12147 -14116934.00045  23037844.9534                   23037840.9304
  -2509569.47347  -1945416.84043  23460109.5004                   23460107.2584
 11  8 27  3 12  0.0000000  0  9G26G21G29G12G05G15G25G02G18
 -16268159.98448 -12665952.27046  21313277.4774                   21313275.2464
  -3122903.39546  -2426481.54744  23903442.4534                   23903439.9734
 -20040757.92248 -15604822.79747  20531370.6414                   20531368.0554
  -7153089.12946  -5551603.59443  24176997.8134                   24176996.5394
 -15859462.23847 -12332412.75046  22308970.2504                   22308967.6524
 -12794814.83648  -9959436.52746  21613298.6804                   21613296.1254
  -9500056.75048  -7380704.25045  22977338.6884                   22977339.0234
 -18101762.22747 -14081833.32045  23046416.6414                   23046412.5164
  -2590208.54747  -2008252.41444  23444764.9144                   23444762.0204
 11  8 27  3 12 30.0000000  0  9G26G21G29G12G05G15G25G02G18
 -16308303.18447 -12697232.64546  21305638.6254                   21305636.3984
  -3190417.41847  -2479089.79344  23890595.4304                   23890592.2814
 -20088271.51248 -15641846.35947  20522328.7424                   20522326.3484
  -7068971.52747  -5486057.44943  24193004.6254                   24193002.9304
 -15785855.93047 -12275057.18445  22322977.1884                   22322974.7114
 -12876220.55548 -10022869.51646  21597807.4924                   21597804.8444
  -9435664.68447  -7330528.61345  22989592.6334                   22989592.5084
 -18056576.39547 -14046623.60945  23055015.2424                   23055011.4384
  -2670600.00447  -2070895.02344  23429466.8364                   23429464.4024
 11  8 27  3 13  0.0000000  0  9G26G21G29G12G05G15G25G02G18
 -16347813.35248 -12728019.74246  21298120.0084                   21298117.5434
  -3257974.82447  -2531731.86344  23877739.6484                   23877736.1804
 -20135330.74248 -15678515.86747  20513373.9064                   20513371.4224
  -6984914.11746  -5420558.21543  24209000.5554                   24208998.7424
 -15712117.61347 -12217598.76246  22337009.4454                   22337006.2544
 -12957242.44548 -10086003.41446  21582389.4844                   21582387.1724
  -9371061.82047  -7280188.74245  23001885.5314                   23001886.5554
 -18011250.48047 -14011304.71145  23063640.5084                   23063636.4454
  -2750743.77747  -2133344.62944  23414215.9064                   23414213.8714
 11  8 27  3 13 30.0000000  0  9G26G21G29G12G05G15G25G02G18
 -16386686.88348 -12758310.77346  21290722.3914                   21290720.1254
  -3325574.53547  -2584406.90244  23864876.1724                   23864873.1054
 -20181931.71148 -15714828.28547  20504506.3284                   20504503.4454
  -6900918.11746  -5355106.85944  24224984.6254                   24224983.6484
 -15638248.12147 -12160038.12145  22351065.8284                   22351063.2734
 -13037875.85948 -10148834.60946  21567045.5784                   21567043.0904
  -9306249.75448  -7229685.83645  23014218.8054                   23014219.3404
 -17965782.45747 -13975875.09445  23072292.9924                   23072288.7624
  -2830637.80147  -2195599.64844  23399012.7814                   23399009.8204
 11  8 27  3 14  0.0000000  0  9G26G21G29G12G05G15G25G02G18
 -16424921.80148 -12788104.17646  21283446.4924                   21283444.7114
  -3393216.85947  -2637115.12944  23852003.6804                   23852001.2504
 -20228073.34048 -15750782.78147  20495725.4534                   20495722.2304
  -6816985.95346  -5289705.22744  24240956.8834                   24240954.8754
 -15564249.40247 -12102376.78545  22365147.1954                   22365144.7704
 -13118118.41448 -10211361.23046  21551775.8914                   21551773.1524
  -9241231.59447  -7179022.34445  23026591.6564                   23026591.8284
 -17920171.85247 -13940334.36744  23080972.0394                   23080967.6604
  -2910281.44947  -2257659.55944  23383856.4924                   23383854.3834
 11  8 27  3 14 30.0000000  0  9G26G21G29G12G05G15G25G02G18
 -16462517.02748 -12817399.11746  21276292.3674                   21276290.2234
  -3460902.37547  -2689857.00045  23839123.7974                   23839120.6254
 -20273753.83248 -15786377.95347  20487032.9774                   20487030.0704
  -6733121.51646  -5224356.37143  24256914.4454                   24256914.2504
 -15490124.35947 -12044617.00445  22379253.0394                   22379250.2704
 -13197967.52348 -10273581.28146  21536580.6804                   21536578.5704
  -9176011.06247  -7128201.15245  23039002.5704                   23039002.9574
 -17874418.77047 -13904682.61744  23089678.8284                   23089674.6484
  -2989674.75447  -2319524.38344  23368748.6484                   23368746.3014
 11  8 27  3 15  0.0000000  0  9G26G21G29G12G05G15G25G02G18
 -16499470.66048 -12846194.12946  21269260.4534                   21269257.6644
  -3528630.95747  -2742632.45344  23826235.3834                   23826233.0354
 -20318971.73448 -15821612.66447  20478428.2814                   20478425.5434
  -6649327.63346  -5159062.49244  24272860.3524                   24272859.5004
 -15415875.34047 -11986760.60945  22393382.2424                   22393378.9734
 -13277420.85248 -10335492.92246  21521461.4774                   21521458.6134
  -9110591.64147  -7077224.99245  23051451.5084                   23051452.1524
 -17828523.04747 -13868919.71145  23098411.9534                   23098408.2734
  -3068817.75447  -2381194.18744  23353688.4064                   23353685.5904
 11  8 27  3 15 30.0000000  0  9G26G21G29G12G05G15G25G02G18
 -16535780.93748 -12874487.81646  21262350.7274                   21262348.2544
  -3596403.25047  -2795441.94944  23813338.6024                   23813336.0084
 -20363724.90248 -15856485.23847  20469912.0554                   20469909.1174
  -6565607.10246  -5093825.76644  24288792.3284                   24288791.4924
 -15341504.28147 -11928809.13745  22407534.5394                   22407531.8524
 -13356475.60948 -10397093.98846  21506417.6484                   21506415.0664
  -9044976.43447  -7026096.27345  23063937.7894                   23063938.0234
 -17782484.35947 -13833045.43044  23107172.8364                   23107168.5314
  -3147709.80547  -2442668.44544  23338675.5944                   23338672.4884
 11  8 27  3 16  0.0000000  0  9G26G21G29G12G05G15G25G02G18
 -16571445.24248 -12902278.15646  21255564.0164                   21255561.6484
  -3664218.33646  -2848284.77344  23800433.4454                   23800431.1844
 -20408010.57848 -15890993.53947  20461484.9064                   20461481.6334
  -6481961.43446  -5028647.40244  24304710.0004                   24304709.2074
 -15267012.99247 -11870763.98045  22421709.7424                   22421706.8054
 -13435128.32048 -10458381.77746  21491450.8674                   21491448.5514
  -8979167.69547  -6974816.75045  23076460.8054                   23076461.5274
 -17736301.10947 -13797058.51244  23115961.4384                   23115957.4614
  -3226349.60947  -2503946.12944  23323710.4614                   23323708.7854
 11  8 27  3 16 30.0000000  0  9G26G21G29G12G05G15G25G02G18
 -16606463.29748 -12929564.91846  21248900.3284                   21248897.9964
  -3732077.75047  -2901162.14144  23787519.9844                   23787517.3364
 -20451828.44548 -15925137.31647  20453146.3594                   20453143.6684
  -6398394.91046  -4963530.73844  24320611.8204                   24320610.8014
 -15192404.32047 -11812627.35245  22435907.7664                   22435904.8634
 -13513377.66448 -10519355.24646  21476560.4534                   21476557.8164
  -8913170.11747  -6923390.08245  23089019.4534                   23089020.1024
 -17689974.60247 -13760959.96544  23124776.9924                   23124773.2704
  -3304738.26247  -2565028.14144  23308793.6564                   23308791.1804
 11  8 27  3 17  0.0000000  0  9G26G21G29G12G05G15G25G02G18
 -16640833.25448 -12956346.66846  21242359.8754                   21242357.2814
  -3799981.42246  -2954073.99644  23774598.4534                   23774596.0594
 -20495176.50048 -15958915.00447  20444897.0004                   20444894.4804
  -6314909.91847  -4898477.54744  24336498.3524                   24336497.0354
 -15117680.59047 -11754401.05545  22450126.1804                   22450123.6764
 -13591220.74248 -10580012.14846  21461747.5234                   21461744.6374
  -8846986.67647  -6871818.59845  23101613.9304                   23101614.6804
 -17643504.04746 -13724749.17644  23133620.3754                   23133616.3714
  -3382875.00847  -2625913.86344  23293924.8674                   23293922.4414
 11  8 27  3 17 30.0000000  0  9G26G21G29G12G05G15G25G02G18
 -16674552.78948 -12982621.60246  21235942.9534                   21235940.5234
  -3867928.67247  -3007019.82844  23761668.3674                   23761665.4964
 -20538052.35248 -15992324.73847  20436738.2814                   20436735.5474
  -6231508.77047  -4833489.66444  24352369.6954                   24352368.0474
 -15042843.09447 -11696086.11745  22464367.6564                   22464364.7974
 -13668654.53548 -10640350.13346  21447012.0164                   21447009.5744
  -8780619.83647  -6820104.20345  23114243.0944                   23114244.1374
 -17596888.52347 -13688425.40244  23142490.8754                   23142486.8444
  -3460758.55547  -2686602.27744  23279104.2114                   23279101.1914
 11  8 27  3 18  0.0000000  0  9G26G21G29G12G05G15G25G02G18
 -16707619.52048 -13008387.86346  21229650.8134                   21229648.2384
  -3935919.25047  -3059999.42244  23748730.8914                   23748727.0044
 -20580453.49648 -16025364.57447  20428669.8444                   20428667.0084
  -6148193.37146  -4768568.63743  24368223.5234                   24368223.5784
 -14967893.40647 -11637683.75045  22478630.3524                   22478627.5044
 -13745675.07448 -10700366.09846  21432355.5314                   21432353.1604
  -8714072.16447  -6768248.89545  23126907.2584                   23126907.0594
 -17550126.69946 -13651987.63344  23151389.1884                   23151385.0164
  -3538388.28147  -2747092.92644  23264331.8134                   23264329.1094
 11  8 27  3 18 30.0000000  0  9G26G21G29G12G05G15G25G02G18
 -16740031.92648 -13033644.26246  21223482.7974                   21223480.3714
  -4003953.20347  -3113012.83644  23735783.8364                   23735780.7584
 -20622378.17248 -16058033.13347  20420691.7194                   20420688.3674
  -6064966.53046  -4703716.69644  24384061.8834                   24384060.9414
 -14892833.73047 -11579195.69145  22492913.5474                   22492910.6484
 -13822280.22348 -10760058.37146  21417777.9924                   21417775.4304
  -8647346.86347  -6716255.17645  23139604.7584                   23139605.0354
 -17503218.47346 -13615435.79344  23160316.0234                   23160311.7734
  -3615763.86347  -2807385.52044  23249607.2814                   23249604.9064
 11  8 27  3 19  0.0000000  0  9G26G21G29G12G05G15G25G02G18
 -16771788.98848 -13058390.00046  21217439.5474                   21217437.1414
  -4072031.18747  -3166060.54344  23722829.3054                   23722825.9884
 -20663824.94148 -16090329.30147  20412804.5314                   20412801.6804
  -5981831.66046  -4638936.35944  24399882.4924                   24399880.5514
 -14817666.90247 -11520624.13745  22507217.4384                   22507214.7734
 -13898467.74248 -10819425.23446  21403279.7664                   21403277.1724
  -8580447.71147  -6664125.98045  23152334.8984                   23152335.7274
 -17456163.84046 -13578769.87544  23169269.7814                   23169265.5704
  -3692885.53147  -2867480.26244  23234931.5234                   23234929.4694
 11  8 27  3 19 30.0000000  0  9G26G21G29G12G05G15G25G02G18
 -16802889.44948 -13082624.10246  21211521.3914                   21211519.1644
  -4140153.80947  -3219143.04344  23709865.4844                   23709862.2774
 -20704792.80948 -16122252.29347  20405008.7034                   20405005.9184
  -5898791.79346  -4574230.00443  24415684.2974                   24415681.7344
 -14742395.49247 -11461971.08245  22521541.4454                   22521538.3484
 -13974235.88348 -10878465.31646  21388861.8914                   21388859.1484
  -8513378.57447  -6611864.34045  23165097.5944                   23165098.0164
 -17408962.80947 -13541989.88344  23178251.8364                   23178248.2194
  -3769753.31647  -2927377.18744  23220304.4844                   23220301.7274
 11  8 27  3 20  0.0000000  0  9G26G21G29G12G05G15G25G02G18
 -16833332.43448 -13106345.89546  21205728.3594                   21205726.0084
  -4208321.12546  -3272260.34444  23696893.5944                   23696890.9534
 -20745280.25448 -16153800.93747  20397304.2424                   20397301.3984
  -5815849.79346  -4509599.93443  24431466.4064                   24431465.5394
 -14667021.51247 -11403238.11345  22535884.0634                   22535881.1374
 -14049581.95348 -10937176.49646  21374523.8754                   21374521.1094
  -8446142.64547  -6559472.73445  23177892.2894                   23177892.8094
 -17361615.53146 -13505095.93044  23187261.8204                   23187257.6844
  -3846366.70747  -2987075.86744  23205725.3444                   23205722.1054
 11  8 27  3 20 30.0000000  0  9G26G21G29G12G05G15G25G02G18
 -16863115.51648 -13129553.46146  21200061.0234                   21200058.8324
  -4276532.61346  -3325412.05144  23683913.7034                   23683910.6564
 -20785285.28548 -16184973.67647  20389691.3984                   20389688.9494
  -5733007.44546  -4445047.59043  24447231.5944                   24447230.5434
 -14591546.50847 -11344426.42245  22550246.5234                   22550243.6484
 -14124502.50848 -10995556.11346  21360267.0394                   21360264.1994
  -8378742.44147  -6506953.12545  23190718.4144                   23190718.7424
 -17314120.85947 -13468087.08244  23196299.9924                   23196295.5204
  -3922725.08647  -3046575.85944  23191194.6334                   23191192.2624
 11  8 27  3 21  0.0000000  0  9G26G21G29G12G05G15G25G02G18
 -16892236.28148 -13152244.95746  21194519.4454                   21194516.9454
  -4344787.48846  -3378597.59844  23670925.0944                   23670921.4924
 -20824804.69148 -16215767.99647  20382171.0234                   20382168.1804
  -5650266.63746  -4380574.33644  24462977.0314                   24462975.7274
 -14515971.85547 -11285537.06645  22564628.2504                   22564625.7034
 -14198994.29747 -11053601.63346  21346091.5704                   21346088.8674
  -8311180.18047  -6454307.21945  23203574.9694                   23203575.5514
 -17266477.07047 -13430962.07044  23205365.9924                   23205361.8634
  -3998827.31247  -3105876.24244  23176713.0944                   23176709.9144
 11  8 27  3 21 30.0000000  0  9G26G21G29G12G05G15G25G02G18
 -16920693.44148 -13174419.34446  21189104.1564                   21189101.3674
  -4413085.84847  -3431817.01644  23657927.9614                   23657924.7584
 -20863836.71148 -16246182.54747  20374743.5864                   20374740.8714
  -5567629.99646  -4316182.21543  24478701.5314                   24478700.7034
 -14440299.29347 -11226571.42245  22579028.4224                   22579025.2384
 -14273054.82048 -11111311.09446  21331998.3524                   21331995.4344
  -8243459.06647  -6401537.55545  23216461.6484                   23216462.1334
 -17218684.00846 -13393720.74244  23214460.7504                   23214456.7194
  -4074672.73847  -3164976.53144  23162279.5554                   23162276.4804
 11  8 27  3 22  0.0000000  0  9G26G21G29G12G05G15G25G02G18
 -16948485.25448 -13196075.27746  21183815.4064                   21183812.7664
  -4481427.53147  -3485070.19944  23644923.0394                   23644919.6954
 -20902379.57848 -16276215.93047  20367409.3834                   20367406.3554
  -5485100.36746  -4251873.50843  24494405.6484                   24494405.0594
 -14364530.87547 -11167531.10245  22593446.3444                   22593443.7274
 -14346681.17248 -11168682.24646  21317987.8364                   21317985.1094
  -8175582.15247  -6348646.48045  23229378.5474                   23229378.4844
 -17170741.22346 -13356362.74644  23223583.7734                   23223579.7304
  -4150260.99647  -3223876.43444  23147895.8594                   23147892.6094
 11  8 27  3 22 30.0000000  0  9G26G21G29G12G05G15G25G02G18
 -16975610.51248 -13217211.82046  21178653.4064                   21178651.1414
  -4549812.46147  -3538357.11744  23631909.8834                   23631906.5704
 -20940431.94948 -16305867.11747  20360168.0234                   20360165.1994
  -5402679.94546  -4187649.84443  24510090.4614                   24510090.0084
 -14288668.73847 -11108417.74245  22607882.4924                   22607879.6094
 -14419870.84047 -11225713.12546  21304060.2274                   21304057.2464
  -8107552.52047  -6295636.39544  23242323.2894                   23242323.8834
 -17122648.00047 -13318887.55544  23232736.0474                   23232731.9694
  -4225591.65647  -3282575.60544  23133560.9304                   23133557.6374
 11  8 27  3 23  0.0000000  0  9G26G21G29G12G05G15G25G02G18
 -17002068.30548 -13237828.25846  21173618.7274                   21173616.1414
  -4618241.33647  -3591678.27044  23618888.2664                   23618884.2464
 -20977992.46148 -16335135.03547  20353020.2504                   20353017.5744
  -5320372.15646  -4123513.98443  24525753.8674                   24525752.6414
 -14212715.09447 -11049233.08645  22622335.9534                   22622333.5824
 -14492621.96948 -11282402.29346  21290215.7734                   21290213.1914
  -8039374.07047  -6242510.35944  23255297.7584                   23255297.7274
 -17074404.89847 -13281295.54744  23241916.2194                   23241913.1054
  -4300665.08647  -3341074.32444  23119274.6334                   23119272.0124
 11  8 27  3 23 30.0000000  0  9G26G21G29G12G05G15G25G02G18
 -17027857.17248 -13257923.45746  21168711.2424                   21168708.6294
  -4686713.77347  -3645033.35244  23605857.9924                   23605854.2194
 -21015059.51648 -16364018.44547  20345966.6174                   20345963.8954
  -5238179.01546  -4059467.44844  24541394.8914                   24541393.2194
 -14136671.82847 -10989978.58645  22636806.5084                   22636803.9494
 -14564931.69548 -11338747.49246  21276455.9774                   21276453.5904
  -7971049.62547  -6189270.54744  23268299.1254                   23268299.4694
 -17026011.09447 -13243586.10244  23251124.9534                   23251121.0594
  -4375481.03147  -3399372.41844  23105037.7034                   23105035.5044
 11  8 27  3 24  0.0000000  0  9G26G21G29G12G05G15G25G02G18
 -17052975.90248 -13277496.47346  21163931.4064                   21163928.9494
  -4755229.98447  -3698422.55544  23592820.1484                   23592816.6334
 -21051631.53148 -16392516.10547  20339007.3834                   20339004.9414
  -5156103.50846  -3995512.61344  24557013.3674                   24557012.4694
 -14060541.34047 -10930656.12945  22651293.7974                   22651291.1174
 -14636797.82048 -11394747.03946  21262780.3754                   21262777.3284
  -7902582.53547  -6135919.59844  23281328.4064                   23281328.5434
 -16977466.25047 -13205758.96144  23260363.0704                   23260358.5474
  -4450039.14847  -3457469.60244  23090849.8914                   23090847.0314
 11  8 27  3 24 30.0000000  0  9G26G21G29G12G05G15G25G02G18
 -17077423.04748 -13296546.16846  21159279.1954                   21159276.8404
  -4823789.80547  -3751845.71544  23579773.2424                   23579769.9654
 -21087706.12948 -16420626.17647  20332142.7344                   20332139.6994
  -5074147.69546  -3931651.05143  24572608.8284                   24572607.5234
 -13984325.23447 -10871266.94945  22665797.3444                   22665794.5904
 -14708217.66448 -11450398.84046  21249189.2814                   21249186.5554
  -7833975.60547  -6082459.68444  23294383.6724                   23294383.7854
 -16928769.65646 -13167813.59044  23269629.8834                   23269625.6644
  -4524338.77047  -3515365.35544  23076711.5394                   23076708.2504
 11  8 27  3 25  0.0000000  0  9G26G21G29G12G05G15G25G02G18
 -17101196.26248 -13315070.72346  21154755.4224                   21154752.9024
  -4892392.01247  -3805301.90644  23566718.8524                   23566716.0554
 -21123281.05148 -16448346.88747  20325373.0234                   20325369.7034
  -4992313.33646  -3867884.11743  24588181.0164                   24588180.6214
 -13908024.48447 -10811811.81645  22680316.5004                   22680313.9694
 -14779187.70747 -11505700.14146  21235684.2034                   21235681.4844
  -7765231.07047  -6028892.53144  23307465.1094                   23307465.4224
 -16879920.26247 -13129749.13344  23278925.2424                   23278921.4964
  -4598378.72747  -3573058.76244  23062621.7734                   23062618.5314
 11  8 27  3 25 30.0000000  0  9G26G21G29G12G05G15G25G02G18
 -17124295.52048 -13333070.11746  21150359.9384                   21150357.4024
  -4961037.69947  -3858791.97344  23553655.9224                   23553653.2034
 -21158355.93748 -16475677.96547  20318698.0164                   20318695.5944
  -4910603.92246  -3804214.49644  24603730.6804                   24603729.8324
 -13831642.09847 -10752293.06245  22694851.8054                   22694849.0124
 -14849705.89548 -11560649.34046  21222265.0784                   21222262.0394
  -7696353.02347  -5975221.35945  23320572.6094                   23320573.3204
 -16830918.28547 -13091565.78544  23288250.6804                   23288246.8444
  -4672159.65647  -3630550.35544  23048581.7974                   23048578.7234
 11  8 27  3 26  0.0000000  0  9G26G21G29G12G05G15G25G02G18
 -17146719.11348 -13350543.01646  21146092.6254                   21146090.5634
  -5029726.27347  -3912315.46144  23540584.9924                   23540581.6844
 -21192928.26648 -16502617.43747  20312119.4144                   20312116.6724
  -4829021.49246  -3740643.87944  24619255.3444                   24619254.8134
 -13755179.50847 -10692711.82845  22709401.8364                   22709399.4024
 -14919769.90247 -11615244.63746  21208932.4534                   21208929.3874
  -7627344.19947  -5921448.27045  23333704.8444                   23333705.5354
 -16781762.93747 -13053262.92644  23297604.8754                   23297600.6604
  -4745680.89547  -3687839.58244  23034591.0864                   23034587.9144
 11  8 27  3 26 30.0000000  0  9G26G21G29G12G05G15G25G02G18
 -17168466.46948 -13367488.97746  21141953.9304                   21141951.6604
  -5098458.39547  -3965872.88344  23527505.8984                   23527502.9104
 -21226997.07848 -16529164.55547  20305636.3364                   20305633.2194
  -4747569.15246  -3677174.61344  24634755.0234                   24634754.7384
 -13678639.26247 -10633070.07445  22723967.5634                   22723964.2624
 -14989377.25448 -11669484.10546  21195686.3984                   21195683.6764
  -7558208.09047  -5867576.00445  23346861.1024                   23346861.8634
 -16732454.12546 -13014840.49644  23306987.5474                   23306983.8094
  -4818942.91847  -3744926.82044  23020649.3444                   23020646.3714
 11  8 27  3 27  0.0000000  0  9G26G21G29G12G05G15G25G02G18
 -17189536.45748 -13383907.11746  21137944.7344                   21137942.3954
  -5167233.70747  -4019463.97344  23514418.0084                   23514414.9184
 -21260561.34048 -16555318.52047  20299249.4454                   20299246.4964
  -4666249.23046  -3613808.60943  24650229.3674                   24650229.8484
 -13602023.18047 -10573369.22745  22738546.8594                   22738543.9344
 -15058525.95748 -11723366.18746  21182527.7664                   21182524.9844
  -7488948.02047  -5813607.15245  23360040.8054                   23360041.8014
 -16682991.78146 -12976298.43444  23316399.4844                   23316396.3524
  -4891945.37547  -3801811.82044  23006757.3984                   23006754.6214
 11  8 27  3 27 30.0000000  0  9G26G21G29G12G05G15G25G02G18
 -17209927.23448 -13399796.00046  21134064.7344                   21134062.2664
  -5236051.50447  -4073088.16844  23501322.3834                   23501319.0664
 -21293618.43048 -16581077.28147  20292958.8984                   20292955.9304
  -4585063.75846  -3550547.35543  24665679.6724                   24665678.5864
 -13525332.28147 -10513610.08245  22753140.6334                   22753137.7274
 -15127212.72348 -11776888.31646  21169457.2424                   21169454.3984
  -7419566.26647  -5759543.47345  23373243.6174                   23373244.4064
 -16633374.62146 -12937635.74244  23325841.5474                   23325838.1564
  -4964687.40247  -3858493.85944  22992915.1564                   22992911.9264
 11  8 27  3 28  0.0000000  0  9G26G21G29G12G05G15G25G02G18
 -17229636.82048 -13415154.08646  21130314.0864                   21130311.3594
  -5304910.62946  -4126744.54344  23488218.2974                   23488215.6764
 -21326165.86748 -16606438.91447  20286765.1724                   20286762.1604
  -4504014.19946  -3487391.93043  24681102.7114                   24681102.3284
 -13448567.88747 -10453793.66445  22767748.3834                   22767745.5514
 -15195434.28548 -11830047.95346  21156474.7194                   21156472.2734
  -7350065.05547  -5705386.69945  23386469.2894                   23386469.7584
 -16583601.65646 -12898851.64144  23335313.6414                   23335309.8714
  -5037167.58247  -3914971.86344  22979122.7814                   22979119.4614
 11  8 27  3 28 30.0000000  0  9G26G21G29G12G05G15G25G02G18
 -17248665.55548 -13429981.64146  21126692.8054                   21126690.3914
  -5373812.07846  -4180433.90244  23475106.6724                   23475103.4384
 -21358203.30548 -16631403.14847  20280668.9304                   20280665.7584
  -4423104.34446  -3424345.39543  24696498.4924                   24696498.6094
 -13371732.77347 -10393922.13745  22782369.6334                   22782366.8984
 -15263189.44547 -11882844.14846  21143581.6954                   21143578.6844
  -7280448.77347  -5651140.26645  23399716.3754                   23399717.6764
 -16533673.32047 -12859946.46544  23344814.5314                   23344810.7544
  -5109387.21947  -3971246.84844  22965378.8054                   22965377.0274
 11  8 27  3 29  0.0000000  0  8G26G21G29G05G15G25G02G18
 -17267011.48048 -13444277.14146  21123201.5084                   21123199.3134
  -5442755.49646  -4234155.96544  23461987.5864                   23461984.2074
 -21389728.77748 -16655968.43747  20274669.3754                   20274666.8244
 -13294828.28547 -10333996.55145  22797004.2114                   22797000.7774
 -15330475.14148 -11935274.52746  21130777.5864                   21130774.7154
  -7210719.76247  -5596806.00445  23412986.1254                   23412987.1484
 -16483588.57447 -12820919.41044  23354345.3284                   23354340.8714
  -5181344.98447  -4027317.78544  22951686.5864                   22951683.4804
 11  8 27  3 29 30.0000000  0  8G26G21G29G05G15G25G02G18
 -17284673.13348 -13458039.43746  21119840.5554                   21119838.2584
  -5511739.82847  -4287909.90644  23448860.3524                   23448857.4494
 -21420739.95748 -16680132.98447  20268768.7424                   20268765.4804
 -13217855.39847 -10274017.68445  22811651.6334                   22811648.5594
 -15397288.10548 -11987336.54346  21118063.6094                   21118060.5164
  -7140880.34047  -5542385.70745  23426275.5864                   23426276.7234
 -16433346.32847 -12781769.61344  23363906.1884                   23363901.7814
  -5253040.15247  -4083184.09844  22938043.3594                   22938040.0234
 11  8 27  3 30  0.0000000  0  8G26G21G29G05G15G25G02G18
 -17301648.30148 -13471266.81646  21116610.2974                   21116607.7814
  -5580763.66847  -4341694.63344  23435725.6884                   23435722.3594
 -21451233.86348 -16703894.46947  20262965.6254                   20262962.9774
 -13140814.89147 -10213986.10945  22826311.8444                   22826308.9774
 -15463625.08248 -12039027.66046  21105440.1644                   21105437.1454
  -7070932.33647  -5487880.80544  23439586.0554                   23439587.1994
 -16382944.88347 -12742495.74644  23373497.1484                   23373493.2234
  -5324471.09047  -4138844.52044  22924450.1564                   22924447.5044
 11  8 27  3 30 30.0000000  0  8G26G21G29G05G15G25G02G18
 -17317933.07048 -13483956.22346  21113511.3204                   21113508.8054
  -5649823.96547  -4395507.78544  23422583.6024                   23422580.8054
 -21481206.51248 -16727249.77047  20257262.0314                   20257259.0904
 -13063705.68047 -10153900.98845  22840985.2504                   22840982.3984
 -15529480.38748 -12090343.44946  21092907.9384                   21092905.1334
  -7000876.00047  -5433291.49644  23452918.1174                   23452918.8954
 -16332380.79746 -12703095.18744  23383118.5944                   23383115.2774
  -5395634.91447  -4194296.79744  22910908.6414                   22910905.4304
 11  8 27  3 31  0.0000000  0  8G26G21G29G05G15G25G02G18
 -17333525.29348 -13496105.97746  21110544.1724                   21110541.9804
  -5718919.35947  -4449348.28544  23409435.4224                   23409432.3874
 -21510655.05148 -16750196.68447  20251657.7194                   20251654.8054
 -12986528.78947 -10093763.15245  22855671.1414                   22855668.5594
 -15594850.39548 -12141281.09046  21080468.5234                   21080465.3404
  -6930713.21947  -5378619.22344  23466269.2424                   23466269.8834
 -16281652.48846 -12663566.64844  23392772.3444                   23392768.5784
  -5466530.29747  -4249539.89844  22897417.4694                   22897413.9774
 11  8 27  3 31 30.0000000  0  8G26G21G29G05G15G25G02G18
 -17348425.43048 -13507716.44946  21107708.7344                   21107706.1684
  -5788050.48147  -4503216.60744  23396279.9224                   23396276.5944
 -21539579.09048 -16772734.88747  20246153.5704                   20246151.0984
 -12909286.32047 -10033574.21545  22870370.1804                   22870367.1094
 -15659734.12548 -12191839.81246  21068121.6334                   21068118.6254
  -6860448.01647  -5323867.14544  23479640.3204                   23479641.1484
 -16230760.79346 -12623910.80544  23402456.5164                   23402452.8754
  -5537158.06647  -4304574.48044  22883977.2504                   22883974.2074
 11  8 27  3 32  0.0000000  0  8G26G21G29G05G15G25G02G18
 -17362634.34048 -13518788.30946  21105004.9924                   21105002.7274
  -5857218.79747  -4557113.92644  23383117.5164                   23383114.8014
 -21567978.97348 -16794864.65247  20240749.7114                   20240746.7774
 -12831982.05947  -9973337.12545  22885080.3524                   22885077.8404
 -15724130.91848 -12242019.09446  21055867.3054                   21055864.5204
  -6790085.21547  -5269038.99644  23493029.7584                   23493030.5274
 -16179706.93046 -12584128.60944  23412171.9694                   23412168.0394
  -5607519.72347  -4359401.69944  22870587.9384                   22870584.9184
 11  8 27  3 32 30.0000000  0  8G26G21G29G05G15G25G02G18
 -17376150.21948 -13529320.14546  21102432.7344                   21102430.5514
  -5926423.32047  -4611039.46144  23369948.0164                   23369944.6994
 -21595852.05548 -16816583.92647  20235445.5474                   20235442.8164
 -12754616.78547  -9913052.49645  22899802.5784                   22899799.9884
 -15788037.41448 -12291816.33246  21043705.9454                   21043702.7734
  -6719626.69547  -5214136.27744  23506437.9844                   23506437.9104
 -16128489.11746 -12544218.62944  23421917.8984                   23421913.8714
  -5677613.93047  -4414020.50844  22857249.3134                   22857246.4344
 11  8 27  3 33  0.0000000  0  8G26G21G29G05G15G25G02G18
 -17388972.86348 -13539311.79346  21099992.9774                   21099990.6094
  -5995664.64547  -4664993.68744  23356772.1484                   23356768.5904
 -21623197.59048 -16837892.12547  20230241.7664                   20230239.1524
 -12677192.86747  -9852722.17245  22914536.2504                   22914533.4804
 -15851452.26248 -12341230.46946  21031638.7114                   21031636.0704
  -6649076.56647  -5159162.15244  23519863.2034                   23519863.0514
 -16077107.96546 -12504181.39144  23431695.5554                   23431691.6024
  -5747441.40247  -4468431.48044  22843961.6254                   22843958.9964
 11  8 27  3 33 30.0000000  0  8G26G21G29G05G15G25G02G18
 -17401102.48048 -13548763.42246  21097684.7274                   21097682.8134
  -6064943.18747  -4718976.91044  23343589.2274                   23343585.1254
 -21650015.59448 -16858789.26247  20225138.5084                   20225135.7624
 -12599712.94147  -9792348.21945  22929279.9064                   22929277.3324
 -15914373.73848 -12390260.15246  21019664.8134                   21019662.3284
  -6578438.41047  -5104119.44144  23533305.0314                   23533305.5474
 -16025563.89146 -12464017.20744  23441504.1094                   23441500.5984
  -5817002.75047  -4522635.07444  22830724.7424                   22830721.7504
 11  8 27  3 34  0.0000000  0  8G26G21G29G05G15G25G02G18
 -17412538.87147 -13557674.87946  21095508.3284                   21095506.1604
  -6134259.18747  -4772989.31244  23330398.8204                   23330395.1024
 -21676305.27048 -16879274.71547  20220135.8204                   20220132.8404
 -12522179.34847  -9731932.43045  22944034.2894                   22944031.2814
 -15976800.14148 -12438904.07046  21007785.7034                   21007782.7194
  -6507715.82847  -5049010.96144  23546763.1024                   23546763.1994
 -15973857.02746 -12423726.16844  23451343.1884                   23451340.1454
  -5886298.32847  -4576631.58644  22817537.8754                   22817535.2814
